[[{"header":{"parameterUnit":"m.s-1","parameterCategory":1,"la1":30.6,"la2":29.2853,"lo1":-89.7004,"lo2":-87.6739,"dy":0.0162,"dx":0.0183,"nx":112,"ny":82,"refTime":"2023-04-27T12:00:00:Z","depth":0,"parameterNumber":2,"parameterNumberName":"U-component_of_WINDS"},"data":[0.0,0.0,0.0,0.0,0.0,0.0,0.0,0.0,0.0,0.0,0.0,0.0,0.0,0.0,0.0,0.0,0.0,0.0,0.0,0.0,0.0,0.0,0.0,0.0,0.0,0.0,0.0,0.0,0.0,0.0,0.0,0.0,0.0,0.0,0.0,0.0,0.0,0.0,0.0,0.0,0.0,0.0,0.0,0.0,0.0,0.0,0.0,0.0,0.0,0.0,0.0,0.0,0.0,0.0,0.0,0.0,0.0,0.0,0.0,0.0,0.0,0.0,0.0,0.0,0.0,0.0,0.0,0.0,0.0,0.0,0.0,0.0,0.0,0.0,0.0,0.0,0.0,0.0,0.0,0.0,0.0,0.0,0.0,0.0,0.0,0.0,0.0,0.0,0.0,0.0,2.1512,2.1502,2.1731,2.1807,2.1807,2.1807,2.1807,2.1807,0.0,0.0,0.0,0.0,0.0,0.0,0.0,0.0,0.0,0.0,0.0,0.0,0.0,0.0,0.0,0.0,0.0,0.0,0.0,0.0,0.0,0.0,0.0,0.0,0.0,0.0,0.0,0.0,0.0,0.0,0.0,0.0,0.0,0.0,0.0,0.0,0.0,0.0,0.0,0.0,0.0,0.0,0.0,0.0,0.0,0.0,0.0,0.0,0.0,0.0,0.0,0.0,0.0,0.0,0.0,0.0,0.0,0.0,0.0,0.0,0.0,0.0,0.0,0.0,0.0,0.0,0.0,0.0,0.0,0.0,0.0,0.0,0.0,0.0,0.0,0.0,0.0,0.0,0.0,0.0,0.0,0.0,0.0,0.0,0.0,0.0,0.0,0.0,0.0,0.0,0.0,0.0,0.0,0.0,0.0,0.0,0.0,0.0,0.0,0.0,0.0,0.0,0.0,0.0,2.1359,2.1731,2.1807,2.1807,2.1807,2.1807,2.1807,2.1807,0.0,0.0,0.0,0.0,0.0,0.0,0.0,0.0,0.0,0.0,0.0,0.0,0.0,0.0,0.0,0.0,0.0,0.0,0.0,0.0,0.0,0.0,0.0,0.0,0.0,0.0,0.0,0.0,0.0,0.0,0.0,0.0,0.0,0.0,0.0,0.0,0.0,0.0,0.0,0.0,0.0,0.0,0.0,0.0,0.0,0.0,0.0,0.0,0.0,0.0,0.0,0.0,0.0,0.0,0.0,0.0,0.0,0.0,0.0,0.0,0.0,0.0,0.0,0.0,0.0,0.0,0.0,0.0,0.0,0.0,0.0,0.0,0.0,0.0,0.0,0.0,0.0,0.0,0.0,0.0,0.0,0.0,0.0,0.0,0.0,0.0,0.0,0.0,0.0,0.0,0.0,0.0,0.0,0.0,0.0,0.0,0.0,0.0,0.0,0.0,0.0,0.0,0.0,2.1282,2.1512,2.1807,2.1807,2.1807,2.1807,2.1807,2.1911,2.2159,2.1942,0.0,0.0,0.0,0.0,0.0,0.0,0.0,0.0,0.0,0.0,0.0,0.0,0.0,0.0,0.0,0.0,0.0,0.0,0.0,0.0,0.0,0.0,0.0,0.0,0.0,0.0,0.0,0.0,0.0,0.0,0.0,0.0,0.0,0.0,0.0,0.0,0.0,0.0,0.0,0.0,0.0,0.0,0.0,0.0,0.0,0.0,0.0,0.0,0.0,0.0,0.0,0.0,0.0,0.0,0.0,0.0,0.0,0.0,0.0,0.0,0.0,0.0,0.0,0.0,0.0,0.0,0.0,0.0,0.0,0.0,0.0,0.0,0.0,0.0,0.0,0.0,0.0,0.0,0.0,0.0,0.0,0.0,0.0,0.0,0.0,0.0,0.0,0.0,0.0,0.0,0.0,0.0,0.0,0.0,0.0,0.0,0.0,0.0,0.0,0.0,0.0,0.0,2.1502,2.1655,2.1807,2.1807,2.1807,2.1807,2.1901,2.2118,2.247,2.2263,0.0,0.0,0.0,0.0,0.0,0.0,0.0,0.0,0.0,0.0,0.0,0.0,0.0,0.0,0.0,0.0,0.0,0.0,0.0,0.0,0.0,0.0,0.0,0.0,0.0,0.0,0.0,0.0,0.0,0.0,0.0,0.0,0.0,0.0,0.0,0.0,0.0,0.0,0.0,0.0,0.0,0.0,0.0,0.0,0.0,0.0,0.0,0.0,0.0,0.0,0.0,0.0,0.0,0.0,0.0,0.0,0.0,0.0,0.0,0.0,0.0,0.0,0.0,0.0,0.0,0.0,0.0,0.0,0.0,0.0,0.0,0.0,0.0,0.0,0.0,0.0,0.0,0.0,0.0,0.0,0.0,0.0,0.0,0.0,0.0,0.0,0.0,0.0,0.0,0.0,0.0,0.0,0.0,0.0,0.0,0.0,0.0,0.0,0.0,0.0,0.0,0.0,2.1578,2.1807,2.1807,2.1807,2.1807,2.1807,2.2201,2.2459,2.2501,2.2873,0.0,0.0,0.0,0.0,0.0,0.0,0.0,0.0,0.0,0.0,0.0,0.0,0.0,0.0,0.0,0.0,0.0,0.0,0.0,0.0,0.0,0.0,0.0,0.0,0.0,0.0,0.0,0.0,0.0,0.0,0.0,0.0,0.0,0.0,0.0,0.0,0.0,0.0,0.0,0.0,0.0,0.0,0.0,0.0,0.0,0.0,0.0,0.0,0.0,0.0,0.0,0.0,0.0,0.0,0.0,0.0,0.0,0.0,0.0,0.0,0.0,0.0,0.0,0.0,0.0,0.0,0.0,0.0,0.0,0.0,0.0,0.0,0.0,0.0,0.0,0.0,0.0,0.0,0.0,0.0,0.0,0.0,0.0,0.0,0.0,0.0,0.0,0.0,0.0,0.0,0.0,0.0,0.0,0.0,0.0,0.0,0.0,0.0,0.0,0.0,0.0,0.0,2.1436,2.1655,0.0,2.1807,2.1807,2.1807,2.1963,2.2315,2.2894,0.0,0.0,0.0,0.0,0.0,0.0,0.0,0.0,0.0,0.0,0.0,0.0,0.0,0.0,0.0,0.0,0.0,0.0,0.0,0.0,0.0,0.0,0.0,0.0,0.0,0.0,0.0,0.0,0.0,0.0,0.0,0.0,0.0,0.0,0.0,0.0,0.0,0.0,0.0,0.0,0.0,0.0,0.0,0.0,0.0,0.0,0.0,0.0,0.0,0.0,0.0,0.0,0.0,0.0,0.0,0.0,0.0,0.0,0.0,0.0,0.0,0.0,0.0,0.0,0.0,0.0,0.0,0.0,0.0,0.0,0.0,0.0,0.0,0.0,0.0,0.0,0.0,0.0,0.0,0.0,0.0,0.0,0.0,0.0,0.0,0.0,0.0,0.0,0.0,0.0,0.0,0.0,0.0,0.0,0.0,0.0,0.0,0.0,0.0,0.0,0.0,0.0,2.1338,2.1517,2.1655,0.0,2.1807,2.1807,2.1807,2.1942,2.2356,2.3143,0.0,0.0,0.0,0.0,0.0,0.0,0.0,0.0,0.0,0.0,0.0,0.0,0.0,0.0,0.0,0.0,0.0,0.0,0.0,0.0,0.0,0.0,0.0,0.0,0.0,0.0,0.0,0.0,0.0,0.0,0.0,0.0,0.0,0.0,0.0,0.0,0.0,0.0,0.0,0.0,0.0,0.0,0.0,0.0,0.0,0.0,0.0,0.0,0.0,0.0,0.0,0.0,0.0,0.0,0.0,0.0,0.0,0.0,0.0,0.0,0.0,0.0,0.0,0.0,0.0,0.0,0.0,0.0,0.0,0.0,0.0,0.0,0.0,0.0,0.0,0.0,0.0,0.0,0.0,0.0,0.0,0.0,0.0,0.0,0.0,0.0,0.0,0.0,0.0,0.0,0.0,0.0,0.0,0.0,0.0,0.0,0.0,0.0,0.0,0.0,0.0,0.0,2.1769,2.1778,2.1807,2.1807,2.1807,2.1807,2.1807,2.2232,2.2687,0.0,0.0,0.0,0.0,0.0,0.0,0.0,0.0,0.0,0.0,0.0,0.0,0.0,0.0,0.0,0.0,0.0,0.0,0.0,0.0,0.0,0.0,0.0,0.0,0.0,0.0,0.0,0.0,0.0,0.0,0.0,0.0,0.0,0.0,0.0,0.0,0.0,0.0,0.0,0.0,0.0,0.0,0.0,0.0,0.0,0.0,0.0,0.0,0.0,0.0,0.0,0.0,0.0,0.0,0.0,0.0,0.0,0.0,0.0,0.0,0.0,0.0,0.0,0.0,0.0,0.0,0.0,0.0,0.0,0.0,0.0,0.0,0.0,0.0,0.0,0.0,0.0,0.0,0.0,0.0,0.0,0.0,0.0,0.0,0.0,0.0,0.0,0.0,0.0,0.0,0.0,0.0,0.0,0.0,0.0,0.0,0.0,0.0,0.0,0.0,0.0,0.0,0.0,2.1769,2.1778,2.1807,2.1807,2.1807,2.1807,2.1807,2.2232,2.2687,2.3153,0.0,0.0,0.0,0.0,0.0,0.0,0.0,0.0,0.0,0.0,0.0,0.0,0.0,0.0,0.0,0.0,0.0,0.0,0.0,0.0,0.0,0.0,0.0,0.0,0.0,0.0,0.0,0.0,0.0,0.0,0.0,0.0,0.0,0.0,0.0,0.0,0.0,0.0,0.0,0.0,0.0,0.0,0.0,0.0,0.0,0.0,0.0,0.0,0.0,0.0,0.0,0.0,0.0,0.0,0.0,0.0,0.0,0.0,0.0,0.0,0.0,0.0,0.0,0.0,0.0,0.0,0.0,0.0,0.0,0.0,0.0,0.0,0.0,0.0,0.0,0.0,0.0,0.0,0.0,0.0,0.0,0.0,0.0,0.0,0.0,0.0,0.0,0.0,0.0,0.0,0.0,0.0,0.0,0.0,0.0,0.0,0.0,0.0,0.0,0.0,0.0,0.0,2.2362,2.2165,2.2149,2.2335,2.2522,2.2635,2.2635,2.3049,2.3505,2.3971,0.0,0.0,0.0,0.0,0.0,0.0,0.0,0.0,0.0,0.0,0.0,0.0,0.0,0.0,0.0,0.0,0.0,0.0,0.0,0.0,0.0,0.0,0.0,0.0,0.0,0.0,0.0,0.0,0.0,0.0,0.0,0.0,0.0,0.0,0.0,0.0,0.0,0.0,0.0,0.0,0.0,0.0,0.0,0.0,0.0,0.0,0.0,0.0,0.0,0.0,0.0,0.0,0.0,0.0,0.0,0.0,0.0,0.0,0.0,0.0,0.0,0.0,0.0,0.0,0.0,0.0,0.0,0.0,0.0,0.0,0.0,0.0,0.0,0.0,0.0,0.0,0.0,0.0,0.0,0.0,0.0,0.0,0.0,0.0,0.0,0.0,0.0,0.0,0.0,0.0,0.0,0.0,0.0,0.0,0.0,0.0,0.0,0.0,0.0,0.0,0.0,0.0,2.3197,2.292,2.2801,2.3267,2.3691,2.3939,2.3939,2.4353,2.4788,2.5202,0.0,0.0,0.0,0.0,0.0,0.0,0.0,0.0,0.0,0.0,0.0,0.0,0.0,0.0,0.0,0.0,0.0,0.0,0.0,0.0,0.0,0.0,0.0,0.0,0.0,0.0,0.0,0.0,0.0,0.0,0.0,0.0,0.0,0.0,0.0,0.0,0.0,0.0,0.0,0.0,0.0,0.0,0.0,0.0,0.0,0.0,0.0,0.0,0.0,0.0,0.0,0.0,0.0,0.0,0.0,0.0,0.0,0.0,0.0,0.0,2.0924,0.0,0.0,0.0,0.0,0.0,0.0,0.0,0.0,0.0,0.0,0.0,0.0,0.0,0.0,0.0,0.0,0.0,0.0,0.0,0.0,0.0,0.0,0.0,0.0,0.0,0.0,0.0,0.0,0.0,0.0,0.0,0.0,0.0,0.0,0.0,0.0,0.0,0.0,0.0,0.0,0.0,2.3917,2.3752,2.3753,2.4209,2.4343,2.4405,2.4405,2.4819,2.513,2.5223,2.5554,0.0,0.0,0.0,0.0,0.0,0.0,0.0,0.0,0.0,0.0,0.0,0.0,0.0,0.0,0.0,0.0,0.0,0.0,0.0,0.0,0.0,0.0,0.0,0.0,0.0,0.0,0.0,0.0,0.0,0.0,0.0,0.0,0.0,0.0,0.0,0.0,0.0,0.0,0.0,0.0,0.0,0.0,0.0,0.0,0.0,0.0,0.0,0.0,0.0,0.0,0.0,0.0,0.0,0.0,0.0,0.0,0.0,0.0,0.0,0.0,2.1282,0.0,0.0,0.0,0.0,0.0,0.0,0.0,0.0,0.0,0.0,0.0,0.0,0.0,0.0,0.0,0.0,0.0,0.0,0.0,0.0,0.0,0.0,0.0,0.0,0.0,0.0,0.0,0.0,0.0,0.0,0.0,0.0,0.0,0.0,0.0,0.0,0.0,0.0,0.0,0.0,2.4798,2.4635,2.4695,2.514,2.5378,2.5513,2.5513,2.5937,2.6206,2.6206,2.6413,0.0,0.0,0.0,0.0,0.0,0.0,0.0,0.0,0.0,0.0,0.0,0.0,0.0,0.0,0.0,0.0,0.0,0.0,0.0,0.0,0.0,0.0,0.0,0.0,0.0,0.0,0.0,0.0,0.0,0.0,0.0,0.0,0.0,0.0,0.0,0.0,0.0,0.0,0.0,0.0,0.0,0.0,0.0,0.0,0.0,0.0,0.0,0.0,0.0,0.0,0.0,0.0,0.0,2.1282,2.1399,2.1701,2.147,2.1665,2.2045,2.1891,2.1773,2.1732,2.2033,0.0,0.0,0.0,0.0,0.0,0.0,0.0,0.0,0.0,0.0,0.0,0.0,0.0,0.0,0.0,0.0,0.0,0.0,0.0,0.0,0.0,0.0,0.0,0.0,2.4276,2.4485,0.0,0.0,0.0,0.0,0.0,0.0,0.0,0.0,0.0,0.0,0.0,0.0,2.5706,2.5609,2.5637,2.6072,2.6465,2.6693,2.6693,2.7044,2.7262,2.7262,2.7262,2.7262,0.0,0.0,0.0,0.0,0.0,0.0,0.0,0.0,0.0,0.0,0.0,0.0,0.0,0.0,0.0,0.0,0.0,0.0,0.0,0.0,0.0,0.0,0.0,0.0,0.0,0.0,0.0,0.0,0.0,0.0,0.0,0.0,1.7016,1.6909,0.0,0.0,0.0,0.0,0.0,0.0,0.0,0.0,0.0,0.0,0.0,0.0,0.0,2.0391,2.1205,2.1349,2.1436,2.1425,2.1655,2.1937,2.2408,2.2329,2.2546,2.3008,2.3008,0.0,2.2329,2.2244,0.0,0.0,0.0,0.0,0.0,0.0,0.0,0.0,0.0,0.0,0.0,0.0,0.0,0.0,0.0,0.0,0.0,0.0,0.0,0.0,0.0,0.0,2.4464,2.4867,2.5378,2.5668,0.0,2.4825,2.4413,2.4964,2.4882,0.0,0.0,0.0,0.0,0.0,0.0,0.0,2.6434,2.6434,2.6568,2.7034,2.7138,2.7169,2.7169,2.722,2.7262,2.7262,2.7262,2.7262,2.7262,2.7262,0.0,0.0,0.0,0.0,0.0,0.0,0.0,0.0,0.0,0.0,0.0,0.0,0.0,0.0,0.0,0.0,0.0,0.0,0.0,0.0,0.0,0.0,0.0,0.0,0.0,0.0,0.0,0.0,0.0,1.6876,1.7698,1.8995,1.8748,1.8443,0.0,0.0,0.0,0.0,0.0,0.0,0.0,0.0,0.0,2.0779,2.1026,2.14,2.189,2.2302,2.2426,2.2426,2.2505,2.2687,2.2884,2.2884,2.2998,2.3184,2.3184,2.3215,2.3277,2.3196,2.3165,2.3073,0.0,0.0,0.0,0.0,2.3362,2.354,2.354,2.353,0.0,2.3463,0.0,0.0,0.0,0.0,0.0,0.0,0.0,0.0,0.0,0.0,0.0,2.6243,2.6178,2.6055,2.6572,2.6341,2.5953,0.0,2.531,2.5279,2.5802,0.0,0.0,0.0,0.0,2.6651,2.6931,2.6962,2.7127,2.7583,2.7634,2.7634,2.7634,2.7634,2.7521,2.7272,2.7262,2.7262,2.7262,2.7262,2.7262,0.0,0.0,0.0,0.0,0.0,0.0,0.0,0.0,0.0,0.0,0.0,0.0,0.0,0.0,0.0,0.0,0.0,0.0,0.0,0.0,0.0,0.0,0.0,0.0,0.0,0.0,0.0,0.0,1.7778,1.8618,2.0653,1.9956,1.9506,0.0,0.0,0.0,0.0,0.0,0.0,2.1444,2.1454,2.1582,2.1927,2.2254,2.2518,2.2677,2.3018,2.3184,2.3184,2.3308,2.3422,2.3536,2.366,2.3774,2.3877,2.3877,2.4002,2.4209,2.3971,2.3743,2.3598,2.4111,2.4292,2.4282,2.4013,2.411,2.4292,2.4292,2.4368,2.4519,2.4405,0.0,2.4416,2.4654,0.0,0.0,0.0,0.0,2.5221,2.531,2.573,2.6233,2.7044,2.6679,2.641,2.7115,2.7284,2.7072,0.0,2.5962,2.5968,2.6246,0.0,0.0,0.0,0.0,2.7469,2.7593,2.7603,2.7728,2.8059,2.81,2.81,2.81,2.81,2.7955,2.7624,2.7603,2.7603,2.7603,2.7603,2.7603,2.7603,0.0,0.0,0.0,0.0,0.0,0.0,0.0,0.0,0.0,0.0,0.0,0.0,0.0,0.0,0.0,0.0,0.0,0.0,0.0,0.0,0.0,0.0,0.0,0.0,0.0,0.0,0.0,0.0,0.0,2.0847,2.0671,0.0,0.0,0.0,0.0,2.1729,2.1369,2.1464,2.2135,2.2155,2.2429,2.3101,2.3143,2.3153,2.3153,2.3174,2.3184,2.3194,2.3629,2.4064,2.4488,2.4923,2.5357,2.574,2.574,2.5523,2.5099,2.424,2.4115,2.4478,2.4433,2.4454,2.4454,2.4454,2.4454,2.4454,2.4454,2.4454,2.4467,2.4043,2.3919,2.4074,2.4933,2.5202,0.0,0.0,2.5823,2.5844,2.5844,2.6185,2.6537,2.663,2.6962,2.7284,2.7284,2.7284,2.7149,0.0,2.7232,2.7726,2.7296,0.0,2.7365,2.779,2.7872,2.8048,2.8493,2.8545,2.8556,2.8576,2.8576,2.8576,2.8576,2.8576,2.8566,2.8545,2.8545,2.8545,2.8545,2.8545,2.8545,2.8545,2.8545,0.0,0.0,0.0,0.0,0.0,0.0,0.0,0.0,0.0,0.0,0.0,0.0,0.0,0.0,0.0,0.0,0.0,0.0,0.0,0.0,0.0,0.0,0.0,0.0,0.0,0.0,0.0,0.0,2.0566,2.0727,0.0,2.1241,2.1645,2.1934,2.2097,2.2308,2.2611,2.2855,2.2866,2.2938,2.3184,2.3753,2.4064,2.4064,2.4633,2.4923,2.4923,2.5088,2.5254,2.5409,2.5575,2.573,2.5875,2.5875,2.5792,2.5627,2.5306,2.5088,2.5016,2.5295,2.5399,2.5399,2.5399,2.5399,2.5399,2.5399,2.5399,2.5378,2.5213,2.5171,2.5233,2.5554,2.5647,2.5678,2.5834,2.6092,2.632,2.632,2.6672,2.7191,2.7836,2.7599,2.7525,2.8476,2.9183,2.9487,2.9061,2.8381,2.7956,2.8146,2.8131,2.8193,2.8349,2.8369,2.8421,2.8597,2.8618,2.8731,2.9032,2.9063,2.9063,2.9063,2.9063,2.8928,2.8628,2.8618,2.8618,2.8618,2.8618,2.8618,2.8618,2.8618,2.8618,0.0,0.0,0.0,0.0,0.0,0.0,0.0,0.0,0.0,0.0,0.0,0.0,0.0,0.0,0.0,0.0,0.0,0.0,0.0,0.0,0.0,0.0,0.0,0.0,0.0,0.0,1.9658,2.0703,2.0795,2.1054,2.165,2.209,2.2391,2.2715,2.294,2.3227,2.3629,2.3639,2.3784,2.4084,2.4674,2.4995,2.4995,2.5575,2.5875,2.5875,2.6041,2.6113,2.6113,2.6279,2.6341,2.6351,2.6506,2.6568,2.6579,2.6734,2.663,2.6341,2.6009,2.5875,2.5875,2.5875,2.5875,2.5875,2.5875,2.5875,2.5875,2.5875,2.5875,2.5906,2.6061,2.6113,2.6144,2.6299,2.6672,2.7024,2.7024,2.7641,2.8455,2.9099,2.9015,2.9007,2.9513,3.0521,3.1035,3.009,2.9515,2.9203,2.912,2.8796,2.8659,2.8825,2.8845,2.8897,2.9063,2.9073,2.9197,2.9508,2.9539,2.9539,2.9539,2.9539,2.9404,2.9094,2.9073,2.9073,2.9073,2.9073,2.9073,2.9073,2.9073,2.9073,2.9073,0.0,0.0,0.0,0.0,0.0,0.0,0.0,0.0,0.0,0.0,0.0,0.0,0.0,0.0,0.0,0.0,0.0,0.0,0.0,0.0,0.0,0.0,0.0,1.9009,1.9932,2.0732,2.1201,2.1046,2.1531,2.3046,2.2804,2.2919,2.3867,2.3248,2.3391,2.4454,2.4495,2.4985,2.5854,2.5885,2.5896,2.5896,2.5916,2.5916,2.5927,2.6372,2.6589,2.661,2.7055,2.7262,2.7282,2.7717,2.7903,2.7935,2.84,2.8597,2.8421,2.6651,2.5968,2.5968,2.5968,2.5968,2.5968,2.5968,2.5968,2.5968,2.5968,2.5968,2.6051,2.6496,2.663,2.6724,2.7179,2.7614,2.7945,2.7945,2.903,3.0122,3.0122,3.0993,3.1483,3.0436,3.1016,3.1366,2.9726,3.0712,3.1445,3.0361,2.9314,2.8804,2.9259,2.9321,0.0,2.9942,2.9994,2.9994,2.9994,2.9994,2.9994,2.9994,2.9994,2.9994,2.9994,2.9994,2.9994,2.9994,2.9994,2.9994,2.9994,2.9994,2.9994,2.9994,0.0,0.0,0.0,0.0,0.0,0.0,0.0,0.0,0.0,0.0,0.0,0.0,0.0,0.0,0.0,0.0,0.0,0.0,0.0,0.0,0.0,0.0,2.1202,2.0703,2.0703,2.1027,2.1621,2.1917,2.2149,2.2426,2.3092,2.3529,2.3831,2.423,2.4713,2.5155,2.5265,2.5458,2.5875,2.6206,2.6382,2.6382,2.6713,2.6879,2.6879,2.7013,2.7076,2.7076,2.72,2.7262,2.7272,2.7386,2.7438,2.7479,2.7924,2.811,2.809,2.7924,2.7862,2.7862,2.7862,2.7862,2.7862,2.7862,2.7862,2.7862,2.7862,2.7862,2.7883,2.8007,2.8048,2.8079,2.8204,2.8328,2.8421,2.8421,2.8703,2.9084,2.9084,2.9851,3.0416,2.9717,3.0954,3.2277,3.2195,3.2483,3.2194,3.0402,2.9807,2.9653,2.9787,2.9808,0.0,2.9973,2.9994,2.9994,2.9994,2.9994,2.9994,2.9994,2.9994,2.9994,2.9994,2.9994,2.9994,2.9994,2.9994,2.9994,2.9994,2.9994,2.9994,0.0,0.0,0.0,0.0,0.0,0.0,0.0,0.0,0.0,0.0,0.0,0.0,0.0,0.0,0.0,0.0,0.0,0.0,0.0,0.0,0.0,0.0,2.148,2.2139,2.1816,2.1634,2.1814,2.2334,2.2656,2.2889,2.3256,2.3741,2.4118,2.4305,2.4776,2.5249,2.5717,2.5819,2.6003,2.6455,2.6724,2.6858,2.6858,2.7127,2.7262,2.7262,2.7262,2.7262,2.7262,2.7262,2.7262,0.0,2.7458,2.7645,2.7862,2.8317,2.8618,0.0,0.0,0.0,0.0,0.0,2.8618,2.8618,2.8618,2.8618,2.8618,2.8618,2.8618,2.8618,2.8618,2.8618,2.8618,2.8618,2.8752,2.8897,2.8897,2.9727,3.0356,2.9966,3.1316,3.2471,3.1206,3.2643,3.392,3.3342,3.3201,0.0,3.1597,3.0991,3.0484,3.0099,2.9994,2.9994,2.9994,2.9994,2.9994,2.9994,2.9994,2.9994,2.9994,2.9994,0.0,0.0,0.0,2.9994,2.9994,2.9994,0.0,0.0,0.0,2.9994,2.9994,0.0,0.0,0.0,2.9651,2.9526,0.0,0.0,0.0,0.0,0.0,0.0,0.0,0.0,0.0,0.0,0.0,0.0,0.0,0.0,0.0,0.0,2.1928,2.2217,2.2539,2.2666,2.2842,2.3174,2.3271,2.3693,2.4631,2.4565,2.4677,2.5045,2.5003,2.5305,2.6174,0.0,0.0,0.0,0.0,2.7282,2.7334,2.7334,2.7365,2.7417,2.7417,2.7417,2.7417,2.7417,2.7417,2.7438,2.7831,2.8235,2.8649,2.9114,2.958,2.9911,2.9094,2.8773,2.8773,2.8773,2.8773,2.8773,2.8773,0.0,0.0,2.8773,2.8773,2.8773,2.8773,2.8773,2.8773,2.8773,2.9063,2.9384,2.9578,3.1179,3.27,3.1982,3.397,3.5571,3.3598,3.4823,3.5753,3.3878,3.3527,3.3573,3.3373,3.2307,3.1262,3.037,3.0223,3.0149,3.0149,3.0149,3.0149,3.0149,0.0,0.0,3.0149,3.0149,3.0149,3.0149,3.0149,3.0149,3.0149,3.0098,3.0067,3.0067,3.0025,2.9994,2.9994,2.9994,2.9994,2.9994,2.9994,2.9879,0.0,0.0,0.0,0.0,0.0,0.0,0.0,0.0,0.0,0.0,0.0,0.0,0.0,0.0,0.0,2.2155,2.2969,2.333,2.3076,2.3623,2.3955,2.3691,2.3965,2.4238,2.4496,2.4736,2.5036,2.513,2.5379,2.571,2.6068,2.6164,2.63,2.6688,2.6688,2.6957,2.7508,2.7508,2.7791,2.8349,0.0,0.0,2.8349,2.8349,2.8349,2.8359,2.8442,2.8535,2.8649,2.9114,2.958,2.9973,2.9798,2.9725,2.9725,2.9725,2.9725,2.9725,2.9725,2.9725,2.9725,2.9725,2.9725,2.9725,2.9725,2.9725,0.0,2.9725,2.9798,3.0057,3.0944,3.0927,3.1002,3.2499,3.34,3.3697,3.33,3.4521,3.5622,3.5214,3.5461,3.5532,3.4589,3.2427,3.1053,3.1758,3.1486,3.1112,3.1112,3.1112,3.1112,3.1112,3.1112,3.1112,3.1112,3.1112,3.1112,3.1112,3.1112,3.1112,3.1112,3.075,3.0553,3.0553,3.018,2.9994,2.9994,2.9994,2.9994,2.9994,2.9994,2.9994,0.0,0.0,0.0,0.0,0.0,0.0,0.0,0.0,0.0,0.0,0.0,2.0959,0.0,0.0,2.238,2.3076,2.3516,2.3789,2.3789,2.4336,2.4668,2.4453,2.4619,2.4834,2.5059,2.5273,2.54,2.54,2.5605,2.583,2.61,2.6309,2.6525,2.6818,2.7039,2.736,2.7681,2.7681,2.7893,2.8428,2.8428,2.8428,2.8428,2.8755,2.8868,2.8788,2.9106,2.9435,2.9684,3.0149,3.0481,3.0688,3.0688,3.0398,2.9994,2.9994,2.9994,2.9994,2.9994,2.9994,2.9994,2.9994,2.9994,2.9994,2.9994,2.9994,2.9994,2.9994,2.9994,3.0088,3.0692,3.137,3.2163,3.2654,3.4256,3.5469,3.4958,3.5873,3.6776,3.6776,3.6158,3.5715,3.6237,3.4065,3.233,3.2711,3.2459,3.22,3.22,3.22,3.1993,3.148,3.1381,3.1381,3.1381,3.1381,3.1381,3.1381,3.1381,3.1381,3.1381,3.1153,3.1029,3.1029,3.0801,3.0688,3.0688,3.0688,3.0688,3.0688,3.0688,3.0439,0.0,0.0,0.0,0.0,0.0,0.0,0.0,0.0,2.187,2.2463,2.2206,2.2122,2.2717,2.2882,2.3026,2.3721,2.3926,2.416,2.4492,2.4922,2.5195,2.5195,2.5195,2.5342,2.5703,2.5742,2.5742,2.5742,2.5742,2.5859,2.6132,2.6478,2.6794,2.7073,2.7432,2.7753,2.7843,2.7843,2.7995,2.8391,2.8391,2.8391,2.8401,2.9065,2.924,2.9064,2.9828,3.0387,3.0853,3.1215,3.1381,3.1381,3.1381,3.0915,3.0253,3.016,3.0067,2.9994,2.9994,3.0056,3.0129,3.0129,3.0191,3.0263,3.0263,3.0263,3.0263,3.0263,3.0263,3.0358,3.0758,3.2361,3.3788,3.356,3.5622,3.7494,3.6868,3.7468,3.8165,3.8165,3.6795,3.6125,3.7703,3.6063,3.4464,3.3972,3.3557,3.3408,3.3408,3.3203,3.2683,3.174,3.164,3.164,3.164,3.164,3.164,3.164,3.164,3.164,3.164,3.1557,3.1505,3.1505,3.1422,3.1381,3.1381,3.1381,3.1381,3.1381,3.1381,3.0977,2.1603,2.1603,0.0,2.218,2.2236,2.2274,0.0,0.0,2.2746,2.296,2.2716,2.2561,2.2979,2.3057,2.3193,2.3721,2.4434,2.4941,2.499,2.5381,2.5664,2.5664,2.5664,2.5684,2.5732,2.5742,2.5742,2.5742,2.5742,2.5908,2.6289,2.6457,2.6653,2.7025,2.7084,2.7393,2.8078,2.8088,2.8391,2.8981,2.8981,2.8981,2.8991,2.9347,2.9587,2.9503,3.0302,3.0874,3.1309,3.136,3.1381,3.1381,3.1381,3.1319,3.1174,3.076,3.0346,2.9994,2.9994,3.0263,3.0605,3.0605,3.0884,3.1215,3.1215,3.1215,3.1215,3.1215,3.1215,3.1737,3.3686,3.372,3.387,3.667,3.6932,3.6767,3.7593,3.8304,3.8781,3.8781,3.8953,3.8852,3.8085,3.7594,3.7251,3.6716,3.533,3.4316,3.4316,3.3444,3.2685,3.2582,3.2571,3.2571,3.2571,3.2571,3.2571,3.2571,3.2571,3.2571,3.2571,3.2178,3.1971,3.1971,3.1578,3.1381,3.1381,3.1381,3.1381,3.1381,3.1381,3.1319,2.1919,0.0,0.0,0.0,2.2264,2.2185,2.2618,2.2427,2.2331,2.2833,2.2911,2.3008,2.3437,2.3721,2.4023,0.0,2.4834,2.5156,2.542,2.5615,2.5742,2.5742,2.5742,2.5742,2.5742,2.5742,2.5742,2.5742,2.5977,2.6191,2.6377,2.6855,2.7207,2.7393,2.7627,2.7947,2.8229,2.8229,2.8433,2.8824,2.8824,2.8824,2.894,2.9403,2.988,3.0154,3.0929,3.1236,3.1319,3.1932,3.2045,3.1932,3.2055,3.2002,3.1712,3.1257,3.0967,3.0801,3.0801,3.0926,3.1091,3.1091,3.1215,3.1381,3.1381,3.1381,3.1589,3.22,3.2405,3.2717,3.4357,3.4678,3.5012,3.7139,3.7382,3.76,3.8778,3.9182,3.9346,3.9346,3.8993,3.8712,3.8921,3.8384,3.8089,3.8509,3.737,3.6208,3.5542,3.5002,3.4137,3.2467,3.2571,3.2623,3.2354,3.2571,3.2727,3.2727,3.2727,3.2727,3.2727,3.254,3.2447,3.2447,3.2261,3.2168,3.2168,3.2168,3.2168,3.2168,3.2168,3.2168,2.1919,0.0,0.0,2.2264,2.2185,2.2185,2.2353,2.2214,2.2197,2.2792,2.3055,2.3359,2.3877,2.4316,2.4697,2.501,2.5176,2.5361,2.5693,2.5742,2.5781,2.5908,2.5918,2.5918,2.5918,2.581,2.5781,2.5908,2.6211,2.6494,2.6728,2.7334,2.7715,2.7832,2.8135,2.8291,2.8291,2.8291,2.8408,2.8621,2.8621,2.8621,2.8631,2.9269,2.9758,3.0309,3.0843,3.1045,3.0973,3.1881,3.2189,3.2074,3.2322,3.2302,3.2188,3.1756,3.1588,3.1381,3.1381,3.1454,3.1557,3.1557,3.165,3.1754,3.1754,3.1754,3.1965,3.3106,3.3215,3.342,3.5189,3.5677,3.5966,3.7163,3.7895,3.8489,3.9037,3.9478,3.9697,3.9697,3.9037,3.8712,3.9581,3.8933,3.8712,3.9581,3.8933,3.795,3.6846,3.6088,3.4869,3.2486,3.253,3.2644,3.2426,3.2716,3.2965,3.3089,3.3099,3.3099,3.3099,3.3099,3.3099,3.3099,3.3099,3.3099,3.3099,3.3099,3.3099,3.3099,3.3099,3.3099,0.0,0.0,2.1741,2.2008,2.2097,2.2185,2.2353,2.2422,2.2536,2.3223,2.34,2.3615,2.4224,2.4756,2.5049,2.5068,2.543,2.5723,2.5742,2.5742,2.5898,2.6318,2.6367,2.6367,0.0,2.5986,2.5918,2.6338,2.6387,2.6748,2.7588,2.7656,2.7851,2.8262,2.8281,2.8291,2.8291,2.8291,2.8291,2.8291,2.8291,2.8291,2.8291,2.8641,2.9092,2.9816,2.9836,3.0087,3.053,3.0963,3.1369,3.1636,3.1731,3.2133,3.2592,3.2332,3.1891,3.1381,3.1381,3.1661,3.2023,3.2023,3.2323,3.2685,3.2685,3.2685,3.2903,3.4112,3.3561,3.3448,3.6918,3.7037,3.6487,3.7595,3.8804,3.9362,3.8161,3.8816,3.9697,3.9697,3.9697,3.9697,3.9685,3.9697,3.9697,3.9685,3.9697,3.9245,3.8043,3.5893,3.4032,3.282,3.2727,3.2892,3.3296,3.3348,3.3544,3.4,3.4031,3.4031,3.4031,3.4031,3.4031,3.4031,3.4031,3.4031,3.4031,3.4031,3.4031,3.4031,3.4031,3.4031,2.1741,0.0,2.1741,2.2008,2.2008,2.1983,2.2522,2.2372,2.2298,2.2791,2.3275,2.3696,2.3932,2.4631,2.5218,2.5218,2.5538,2.5742,2.5742,2.5742,2.5898,2.6338,2.6133,0.0,0.0,0.0,0.0,2.6396,2.6914,2.7363,2.7646,2.793,2.8144,2.8291,2.8291,2.8291,2.8291,2.8291,2.8291,2.8291,2.8291,2.8291,2.8291,2.8398,2.8583,2.8858,2.955,2.9887,2.9964,3.1151,3.1451,3.1461,3.1727,3.1903,3.2143,3.2248,3.2178,3.2035,3.2158,3.2375,3.2499,3.2499,3.2602,3.2727,3.2727,3.3275,3.3931,3.4368,3.5344,3.6426,3.7619,3.7619,3.7619,3.8816,3.8816,3.8594,3.9037,3.9362,3.9697,3.9697,3.9697,3.9697,3.9697,3.9697,3.9478,3.8607,3.7832,3.7275,3.6846,3.5067,3.3497,3.2758,3.3265,3.3555,3.3389,3.3658,3.3906,3.4051,3.4072,3.4072,3.4072,3.4072,3.4072,3.4072,3.4072,3.4072,3.4072,3.4072,3.4072,3.4072,3.4072,3.4072,2.1741,2.1841,2.1951,2.2131,2.2152,2.2199,2.2492,2.2407,2.2333,2.2823,2.3307,2.3673,2.407,2.4765,2.5235,2.5137,2.5333,2.5538,2.5538,2.5538,2.58,2.6338,2.6269,2.6406,0.0,0.0,0.0,2.6885,2.7353,2.7734,2.7881,2.8144,2.8291,2.8291,2.8291,2.8291,2.8291,2.8291,2.8291,2.8291,2.8291,2.8369,2.8516,2.8516,2.8603,2.8779,2.9557,2.9803,2.9629,3.0789,3.1202,3.1116,3.1391,3.1566,3.1787,3.2018,3.2248,3.2373,3.2612,3.2727,3.2727,3.2727,3.2727,3.2727,3.2727,3.3275,3.3931,3.4368,3.5564,3.6858,3.7725,3.7619,3.7619,3.8816,3.8489,3.8161,3.8933,3.9374,3.9697,3.9697,3.9697,3.9697,3.9697,3.986,3.9544,3.8333,3.7387,3.6557,3.5934,3.4908,3.3969,3.3244,3.372,3.401,3.3875,3.4145,3.4383,3.4548,3.4548,3.4548,3.4548,3.4548,3.4548,3.4548,3.4548,3.4548,3.4548,3.4548,3.4548,3.4548,3.4548,3.4548,2.1768,2.2043,2.2327,2.2355,2.2657,2.2756,2.2447,2.2337,2.2529,2.3122,2.3299,2.3645,0.0,0.0,2.5137,2.4932,2.5137,2.5333,2.5333,2.5333,2.5604,0.0,0.0,0.0,0.0,0.0,0.0,2.7754,0.0,2.7891,2.8271,2.8291,2.8291,2.8291,2.8291,2.8301,2.833,2.834,2.8359,2.8359,2.8359,2.8564,2.8955,2.8955,2.918,2.957,2.959,2.96,2.9629,3.0059,3.0472,3.0769,3.0839,3.1228,3.1787,3.1787,3.2018,3.2258,3.2612,3.2727,3.2727,3.2727,3.2737,3.2727,3.2727,3.2727,3.3058,3.4155,3.4469,3.5024,3.7192,3.6954,3.6522,3.7619,3.795,3.795,3.795,3.8921,3.9697,3.9697,3.9722,3.9735,3.9735,4.0199,4.0103,3.8959,3.8196,3.7224,3.5494,3.5638,3.5477,3.4331,3.4243,3.443,3.4755,3.4797,3.4973,3.5397,3.5418,3.5418,3.5418,3.5418,3.5418,3.5418,3.5418,3.5418,3.5418,3.5418,3.5418,3.5418,3.5418,3.5418,2.2098,2.2245,2.2401,2.2712,2.2784,2.2829,2.2729,2.2547,2.2437,2.2859,2.3036,2.3192,0.0,0.0,0.0,2.4833,2.5137,0.0,2.5538,2.5635,0.0,2.6768,0.0,2.6924,2.7871,2.7978,0.0,0.0,2.8418,2.8506,2.8301,2.8291,2.8291,2.8291,2.8291,2.8437,2.875,2.9082,2.9248,2.9248,2.9248,2.9297,2.9404,2.9404,2.9463,2.959,2.9902,3.0039,3.0068,3.0527,3.0713,3.0848,3.085,3.1005,3.1112,3.1334,3.1441,3.1556,3.1913,3.2373,3.2612,3.2487,3.2498,3.2727,3.2727,3.3275,3.3931,3.3275,3.4469,3.5651,3.5454,3.6426,3.7501,3.7832,3.8594,3.9258,3.9258,3.9478,3.9697,3.9697,4.0023,4.0312,4.0312,4.0764,4.1021,4.0662,4.011,3.9,3.7235,3.6711,3.6317,3.5973,3.6275,3.6182,3.5365,3.5252,3.5304,3.5418,3.5418,3.5418,3.5418,3.5418,3.5418,3.5418,3.5418,3.5418,3.5418,3.5418,3.5418,3.5418,3.5418,3.5418,2.2263,2.2584,2.2914,2.3153,2.3112,2.3112,2.3112,2.2896,2.2722,2.3125,2.3112,0.0,2.3739,0.0,0.0,0.0,0.0,0.0,2.5333,2.5342,2.5681,0.0,2.6699,0.0,2.793,2.8135,2.8232,0.0,2.8506,2.8545,2.8301,2.8291,2.8291,2.8291,2.8467,2.8769,2.9199,2.9443,2.957,2.957,2.957,2.9668,2.9844,2.9844,2.9961,3.0166,0.0,3.0508,3.0518,3.0781,3.0889,3.0889,3.0889,3.0889,3.0889,3.1218,3.1325,3.1325,3.1556,3.1913,3.2258,3.2248,3.2258,3.2373,3.2487,3.3048,3.3367,3.2716,3.392,3.5333,3.4692,3.5772,3.7287,3.7832,3.8384,3.9037,3.9581,3.9697,3.9772,4.0011,4.0501,4.0877,4.0877,4.1329,4.1476,4.0905,4.0779,4.0195,3.9101,3.7803,3.6915,3.6915,3.6674,3.6125,3.5418,3.5418,3.5418,3.5418,3.5418,3.5418,3.5418,3.5418,3.5418,3.5418,3.5418,3.5418,3.5418,3.5418,3.5418,3.5418,3.5418,3.5418,2.2392,2.2969,2.3556,2.3611,2.3584,2.3547,2.3547,2.314,2.2975,2.3464,0.0,2.3666,2.4079,2.4341,2.444,2.4251,0.0,2.4627,2.4833,2.4932,2.5319,2.6306,2.6797,2.7207,2.7695,2.8408,2.8682,2.832,2.8291,2.8291,2.8291,2.8291,2.831,2.8369,2.8838,2.9268,2.9648,2.9717,2.9746,2.9746,2.9746,2.9941,3.0293,3.0293,3.0508,3.0889,3.0889,0.0,3.0889,3.0889,3.0889,3.0889,3.0889,3.0889,3.0889,3.1102,3.1218,3.1218,3.1218,3.145,3.1682,3.2018,3.2018,3.1903,3.2133,3.2248,3.2248,3.2248,3.3254,3.4256,3.448,3.5333,3.6522,3.7619,3.8056,3.8384,3.9465,3.9747,3.9961,4.0513,4.1078,4.1442,4.1442,4.1907,4.1915,4.0865,4.1039,4.1215,4.0755,3.8851,3.7418,3.7418,3.6237,3.5407,3.5294,3.5294,3.5294,3.5294,3.5294,3.5294,3.5294,3.5418,3.5418,3.5418,3.5418,3.5418,3.5418,3.5418,3.5418,3.5418,3.5418,3.5418,2.2749,2.3189,2.362,2.396,2.3794,2.3547,2.3547,2.314,0.0,0.0,2.3547,2.3666,2.4079,2.4251,2.435,2.444,0.0,0.0,0.0,0.0,2.5522,0.0,0.0,0.0,0.0,0.0,0.0,0.0,0.0,2.8291,2.8291,2.8291,2.8447,2.8799,2.957,3.001,3.0088,3.0469,3.0664,3.0664,3.0664,3.0703,3.0771,3.0771,3.081,3.0889,3.0889,0.0,3.0889,3.0889,3.0889,3.0889,3.0889,3.0889,3.0898,3.1005,3.1005,3.1005,3.1005,3.1005,3.1112,3.1334,3.1672,3.1787,3.1903,3.2133,3.2248,3.2248,3.2592,3.3275,3.4256,3.5333,3.6522,3.7619,3.8712,3.9478,3.9685,4.0061,4.0538,4.1091,4.1643,4.2007,4.2007,4.2472,4.2836,4.2588,4.2563,4.2275,4.1215,3.9557,3.8365,3.8138,3.6924,3.5725,3.4662,3.4548,3.4548,3.4548,3.4797,3.5046,3.5046,3.5294,3.5418,3.5418,3.5418,3.5418,3.5418,3.5418,3.5418,3.5418,3.5418,3.5418,2.2747,2.3149,2.3584,2.3785,2.3529,2.3195,2.3492,0.0,0.0,0.0,2.3859,2.3923,2.4115,2.4152,0.0,2.4341,0.0,0.0,0.0,0.0,0.0,0.0,0.0,0.0,0.0,0.0,0.0,0.0,0.0,2.8525,2.8301,2.8496,2.8916,2.956,2.998,3.0312,3.0557,3.0781,3.0889,3.0889,3.0889,3.0889,3.0889,3.0889,3.0889,3.0889,3.0889,0.0,3.0889,3.0889,3.0889,3.0889,3.0889,3.0889,3.0889,3.0889,3.0889,3.0889,3.0889,3.0889,3.0889,3.0995,3.1228,3.1334,3.145,3.1787,3.2018,3.2018,3.2373,3.2944,3.4155,3.5333,3.6522,3.7619,3.9037,4.0199,4.0488,4.0978,4.1442,4.1718,4.2208,4.2585,4.2585,4.2798,4.2974,4.2974,4.2974,4.2513,4.0985,3.9428,3.8235,3.7648,3.6205,3.5005,3.4413,3.4423,3.4423,3.4423,3.4548,3.4673,3.4673,3.4922,3.517,3.517,3.5294,3.5418,3.5418,3.5418,3.5418,3.5418,3.5418,3.5418,2.2731,2.3116,2.3419,2.3419,2.3116,2.2942,2.3428,2.314,0.0,0.0,2.4152,2.4152,2.4152,0.0,2.4152,0.0,2.4436,2.4729,0.0,0.0,0.0,0.0,0.0,0.0,0.0,0.0,0.0,0.0,0.0,0.0,2.8584,2.8965,2.9502,3.0176,3.0293,3.0518,3.0889,3.0889,3.0889,3.0889,3.0889,3.0889,3.0889,3.0889,3.0889,3.0889,3.0889,0.0,0.0,3.0889,3.0889,3.0889,3.0889,3.0889,3.0889,3.0889,3.0889,3.0889,3.0889,3.0889,3.0889,3.0889,3.0889,3.0889,3.1102,3.1441,3.1787,3.1787,3.2258,3.3058,3.4469,3.5443,3.6449,3.7976,3.9288,4.0495,4.1284,4.1856,4.2183,4.2308,4.245,4.2625,4.2974,4.2737,4.2737,4.2974,4.2974,4.2388,4.0524,3.9075,3.7746,3.6571,3.5015,3.4173,3.4173,3.4173,3.4173,3.4173,3.4298,3.4298,3.4423,3.4673,3.4922,3.5046,3.5294,3.5418,3.5418,3.5418,3.5418,3.5418,3.5418,3.5418,2.2373,2.2685,2.2911,2.2911,2.2694,2.2584,2.3363,0.0,2.318,2.3987,2.4152,2.4152,2.4152,0.0,0.0,0.0,0.0,2.4288,2.4538,0.0,0.0,0.0,0.0,0.0,0.0,0.0,0.0,0.0,0.0,0.0,2.9453,2.9853,3.0117,3.0195,3.0605,3.085,3.0889,3.0889,3.0889,3.0889,3.0889,3.0889,3.0889,3.0889,3.0889,3.0889,3.0889,0.0,0.0,3.0889,3.0889,3.0889,3.0889,3.0889,3.0889,3.0889,3.0889,3.0889,3.0889,3.0889,3.0889,3.0889,3.0889,3.0889,3.0889,3.1334,3.1787,3.1787,3.2258,3.3161,3.5432,3.5881,3.6564,3.9218,3.9719,4.0013,4.1726,4.212,4.2296,4.2798,4.2,4.1684,4.275,4.2037,4.1684,4.2862,4.2974,4.215,3.9686,3.8721,3.7396,3.5273,3.4173,3.3544,3.3544,3.3544,3.3544,3.3544,3.3796,3.4047,3.4423,3.4673,3.5046,3.5294,3.5418,3.5418,3.5418,3.5418,3.5418,3.5418,3.5418,3.5418,2.2172,2.2447,2.2575,2.2575,2.2447,2.2474,2.2966,0.0,2.318,2.3987,2.4152,2.4152,2.4152,2.4152,2.4152,2.4152,2.4363,0.0,2.4792,2.5125,2.5703,0.0,0.0,0.0,0.0,0.0,0.0,0.0,0.0,0.0,3.0351,3.0254,3.0322,3.0605,3.0791,3.0889,3.0889,3.0889,3.0889,3.0889,3.0889,3.0889,3.0889,3.0889,3.0889,3.0889,3.0889,0.0,0.0,3.0889,3.0889,3.0889,3.0889,3.0889,3.0889,3.0889,3.0889,3.0889,3.0889,3.0889,3.0889,3.0889,3.0889,3.0889,3.0889,3.1228,3.1556,3.1787,3.2143,3.3037,3.5344,3.7211,3.8647,3.9697,4.0514,4.1384,4.2411,4.2647,4.271,4.2936,4.1923,4.1444,4.2737,4.1923,4.157,4.2862,4.2974,4.2037,3.9205,3.8472,3.7155,3.4528,3.3796,3.3418,3.367,3.367,3.367,3.3418,3.367,3.3922,3.4047,3.4423,3.4797,3.5046,3.5294,3.5418,3.5418,3.5418,3.5418,3.5418,3.5418,3.5418,2.1808,2.2062,2.2144,2.2144,2.2144,2.2291,0.0,0.0,2.318,2.3987,2.4152,2.4152,2.4152,2.4152,2.4152,2.4152,2.4409,2.473,2.5015,2.5303,2.5909,0.0,0.0,0.0,0.0,0.0,0.0,0.0,0.0,0.0,3.0869,3.0576,3.0547,3.0879,3.0889,3.0889,3.0889,3.0889,3.0889,3.0889,3.0889,3.0889,3.0889,3.0889,3.0889,3.0889,3.0889,0.0,0.0,3.0889,3.0889,3.0889,3.0889,3.0889,3.0889,3.0889,3.0889,3.0889,3.0889,3.0889,3.0889,3.0889,3.0889,3.0889,3.0889,3.1112,3.1325,3.1556,3.2225,3.3226,3.4799,3.7362,3.949,3.9653,4.0765,4.2041,4.2886,4.2974,4.2974,4.2974,4.1923,4.1341,4.2737,4.1911,4.1341,4.2625,4.2625,4.1558,3.9087,3.8115,3.6792,3.4413,3.367,3.3544,3.367,3.3796,3.3796,3.3544,3.3922,3.4047,3.4173,3.4423,3.4673,3.5046,3.5294,3.5418,3.5418,3.5418,3.5418,3.5418,3.5418,3.549,2.1122,2.1571,2.1741,2.1741,2.1741,2.1951,0.0,0.0,2.318,2.3987,2.4152,2.4152,2.4152,2.4152,2.4152,2.4152,2.4161,2.4389,2.4978,2.496,0.0,0.0,0.0,0.0,0.0,0.0,0.0,0.0,0.0,0.0,3.0889,3.0889,3.0889,3.0889,3.0889,3.0889,3.0889,3.0889,3.0889,3.0889,3.0889,3.0889,3.0889,3.0889,3.0889,0.0,0.0,0.0,0.0,3.0889,3.0889,3.0889,3.0889,3.0889,3.0889,3.0889,3.0889,3.0889,3.0889,3.0889,3.0889,3.0889,3.0889,3.0889,3.0889,3.1112,3.1325,3.1325,3.2649,3.4137,3.3928,3.5856,3.8204,3.9171,4.0259,4.1444,4.2737,4.2974,4.2974,4.2974,4.1696,4.1112,4.2737,4.1696,4.0997,4.2287,4.1684,4.0512,3.8992,3.7407,3.5949,3.5036,3.4047,3.3418,3.3418,3.367,3.3922,3.3922,3.4173,3.4548,3.4922,3.4922,3.5046,3.5428,3.5418,3.5418,3.5418,3.5418,3.5418,3.5418,3.5418,3.5666,1.9812,2.0266,2.0628,2.1293,2.1771,2.2282,2.2738,0.0,0.0,2.4042,2.4152,2.4152,2.4152,2.4152,2.4152,2.4152,2.4152,2.449,2.5172,0.0,0.0,0.0,0.0,0.0,0.0,0.0,0.0,0.0,0.0,0.0,3.0889,3.0889,3.0889,3.0889,3.0889,3.0889,3.0889,3.0889,3.0889,3.0889,3.0889,3.0889,3.0889,3.0889,3.0889,0.0,0.0,0.0,0.0,3.0889,3.0889,3.0889,3.0889,3.0889,3.0889,3.0889,3.0889,3.0889,3.0889,3.0889,3.0889,3.0889,3.0889,3.0889,3.0889,3.1005,3.1112,3.1218,3.2554,3.3769,3.316,3.5167,3.7233,3.7328,3.836,3.9908,4.1329,4.157,4.1456,4.1684,4.11,4.087,4.157,4.1329,4.1341,4.2625,4.181,4.0512,3.8969,3.7276,3.5837,3.4662,3.4047,3.3796,3.4047,3.4173,3.4298,3.4298,3.4548,3.4797,3.4922,3.4922,3.5046,3.5418,3.5418,3.5418,3.5418,3.5418,3.5583,3.5904,3.6225,3.6442,0.0,1.9621,2.0167,2.1114,2.1862,0.0,0.0,0.0,0.0,0.0,2.4152,2.4152,2.4152,2.4152,2.4152,2.4152,2.4152,2.439,2.506,0.0,0.0,0.0,0.0,0.0,0.0,0.0,0.0,0.0,0.0,0.0,3.0889,3.0889,3.0889,3.0889,3.0889,3.0889,3.0889,3.0889,3.0889,3.0889,3.0889,3.0889,3.0889,3.0889,3.0889,0.0,0.0,0.0,0.0,3.0889,3.0889,3.0889,3.0889,3.0889,3.0889,3.0889,3.0889,3.0889,3.0889,3.0889,3.0889,3.0889,3.0889,3.0889,3.0889,3.0889,3.0918,3.1309,3.2233,3.315,3.2762,3.459,3.6415,3.6221,3.7385,3.8957,4.0024,4.0152,4.0164,4.0396,4.0524,4.0755,4.0985,4.1329,4.1684,4.2037,4.11,3.9803,3.8268,3.6692,3.5489,3.4662,3.4298,3.4173,3.4548,3.4548,3.4548,3.4548,3.4922,3.5046,3.5046,3.5046,3.517,3.5418,3.5418,3.5418,3.5418,3.5594,3.5925,3.638,3.6846,3.7063,0.0,1.933,1.9985,2.0925,0.0,0.0,0.0,0.0,0.0,0.0,0.0,2.4152,2.4152,2.4152,2.4152,2.4152,2.4152,2.4308,2.4757,2.4867,0.0,0.0,0.0,0.0,0.0,0.0,0.0,0.0,0.0,0.0,3.0889,3.0889,3.0889,3.0889,3.0889,3.0889,3.0889,3.0889,3.0889,3.0889,3.0889,3.0889,3.0889,3.0889,3.0889,0.0,0.0,0.0,0.0,3.0889,3.0889,3.0889,3.0889,3.0889,3.0889,3.0889,3.0889,3.0889,3.0889,3.0889,3.0889,3.0889,3.0889,3.0889,3.0889,3.0889,3.0976,3.1396,3.1836,3.2266,3.2685,3.4164,3.5683,3.5683,3.7023,3.8484,3.8484,3.8851,3.8992,3.9098,3.9814,4.0524,4.0858,4.181,4.2049,4.0755,3.9814,3.8636,3.711,3.5777,3.4922,3.4922,3.4673,3.4548,3.4922,3.4922,3.4922,3.4922,3.517,3.5418,3.5418,3.5418,3.5418,3.5418,3.5418,3.5438,3.5469,3.5935,3.6401,3.6867,3.7322,3.7539,1.617,0.0,1.8495,1.878,2.067,2.2353,0.0,0.0,0.0,0.0,0.0,2.4152,2.4152,2.4152,2.4152,2.4152,2.4152,2.4409,2.5133,0.0,0.0,0.0,0.0,0.0,0.0,0.0,0.0,0.0,0.0,3.0889,3.0889,3.0889,3.0889,3.0889,3.0889,3.0889,3.0889,3.0889,3.0889,3.0889,3.0889,3.0889,3.0889,3.0889,3.0889,0.0,0.0,0.0,3.0889,3.0889,3.0889,3.0889,3.0889,3.0889,3.0889,3.0889,3.0889,3.0889,3.0889,3.0889,3.0889,3.0889,3.0889,3.0889,3.0889,3.0889,3.0976,3.1396,3.1836,3.2266,3.2685,3.3345,3.4017,3.4268,3.4881,3.5735,3.6924,3.7319,3.7451,3.767,3.8506,3.9345,3.958,4.0628,4.1341,4.0985,3.9931,3.8744,3.7429,3.5879,3.5046,3.5304,3.4922,3.4922,3.5294,3.5046,3.5046,3.5294,3.5304,3.5418,3.5418,3.5418,3.5418,3.5418,3.5418,3.5594,3.5956,3.6411,3.6877,3.7343,3.7808,3.8026,1.4949,1.6539,1.8033,1.8033,2.0356,2.247,0.0,0.0,0.0,0.0,0.0,0.0,2.4152,0.0,0.0,2.4152,2.4152,2.4372,0.0,0.0,0.0,0.0,0.0,0.0,0.0,0.0,0.0,0.0,0.0,3.0889,3.0889,3.0889,3.0889,3.0889,3.0889,3.0889,3.0889,3.0889,3.0889,3.0889,3.0889,3.0889,3.0889,3.0889,3.0889,0.0,0.0,0.0,3.0889,3.0889,3.0889,3.0889,3.0889,3.0889,3.0889,3.0889,3.0889,3.0889,3.0889,3.0889,3.0889,3.0889,3.0889,3.0889,3.0889,3.1025,3.1269,3.1699,3.2129,3.2549,3.2969,3.3252,3.3418,3.367,3.3922,3.4413,3.5489,3.5879,3.6013,3.6359,3.7309,3.8149,3.8268,3.9322,4.0036,3.944,3.8732,3.791,3.6603,3.5644,3.517,3.5418,3.5294,3.517,3.5418,3.517,3.517,3.5428,3.5418,3.5418,3.5418,3.5418,3.5418,3.5418,3.5418,3.5759,3.6432,3.668,3.7146,3.7819,3.8067,3.8181,1.4394,1.617,1.794,1.7669,2.0254,2.2564,0.0,0.0,0.0,0.0,0.0,0.0,0.0,0.0,0.0,0.0,0.0,0.0,0.0,0.0,0.0,0.0,0.0,0.0,0.0,0.0,0.0,0.0,0.0,3.0889,3.0889,3.0889,3.0889,3.0889,3.0889,3.0889,3.0889,3.0889,3.0889,3.0889,3.0889,3.0889,3.0889,3.0889,3.0889,3.0889,0.0,0.0,3.0889,3.0889,3.0889,3.0889,3.0889,3.0889,3.0889,3.0889,3.0889,3.0889,3.0889,3.0889,3.0889,3.0889,3.0889,3.0898,3.0967,3.1279,3.1709,3.2139,3.2519,3.2891,3.331,3.3418,3.3418,3.3418,3.367,3.3922,3.4298,3.4673,3.4922,3.5294,3.6247,3.7067,3.7298,3.8149,3.8506,3.7418,3.7298,3.6835,3.5541,3.5418,3.5418,3.5418,3.5418,3.5418,3.5418,3.5418,3.5418,3.5418,3.5418,3.5418,3.5418,3.5418,3.5418,3.5418,3.549,3.5945,3.6804,3.6877,3.7353,3.8181,3.8181,3.8181,1.4592,1.6271,1.7576,1.592,1.9123,2.2185,0.0,0.0,0.0,0.0,0.0,0.0,0.0,0.0,0.0,0.0,0.0,0.0,0.0,0.0,0.0,0.0,0.0,0.0,0.0,0.0,0.0,0.0,0.0,3.0889,3.0889,3.0889,3.0889,3.0889,3.0889,3.0889,3.0889,3.0889,3.0889,3.0889,3.0889,3.0889,3.0889,3.0889,3.0889,3.0889,0.0,3.0889,3.0889,3.0889,3.0889,3.0889,3.0889,3.0889,3.0889,3.0889,3.0889,3.0889,3.0889,3.0889,3.0889,3.0889,3.0889,3.0957,3.1309,3.1728,3.2158,3.2578,3.2744,3.2891,3.331,3.3418,3.3418,3.3418,3.367,3.3922,3.3922,3.4423,3.4922,3.4922,3.5407,3.6002,3.7067,3.7418,3.7539,3.7298,3.7298,3.6835,3.5541,3.5418,3.5418,3.5418,3.5418,3.5418,3.5418,3.5418,3.5418,3.5418,3.5418,3.5418,3.5418,3.5418,3.5418,3.5418,3.5801,3.6266,3.6804,3.7198,3.7664,3.8181,3.8181,3.8181,1.4592,1.6365,1.7669,1.6379,1.9255,0.0,0.0,0.0,0.0,0.0,0.0,0.0,0.0,0.0,0.0,0.0,0.0,0.0,0.0,0.0,0.0,0.0,0.0,0.0,0.0,0.0,0.0,0.0,0.0,0.0,3.0889,3.0889,3.0889,3.0889,3.0889,3.0889,3.0889,3.0889,3.0889,3.0889,3.0889,3.0889,3.0889,3.0889,3.0889,3.0889,0.0,3.0889,3.0889,3.0889,3.0889,3.0889,3.0889,3.0889,3.0889,3.0889,3.0889,3.0889,3.0889,3.0889,3.0889,3.0889,3.1045,3.1269,3.1455,3.1982,3.2549,3.2744,3.2959,3.3174,3.3369,3.3418,3.3418,3.3418,3.3544,3.367,3.3922,3.4298,3.4673,3.4922,3.517,3.5531,3.6125,3.6247,3.6247,3.6247,3.6247,3.6002,3.5541,3.5418,3.5418,3.5418,3.5418,3.5418,3.5418,3.5418,3.5418,3.5418,3.5418,3.5418,3.5418,3.5418,3.5542,3.579,3.6008,3.6463,3.7177,3.7384,3.7736,3.8181,3.8181,3.8181,1.4688,1.6177,1.7569,0.0,0.0,0.0,0.0,0.0,0.0,0.0,0.0,0.0,0.0,0.0,0.0,0.0,0.0,0.0,0.0,0.0,0.0,0.0,0.0,0.0,0.0,0.0,0.0,0.0,0.0,0.0,3.0889,3.0889,3.0889,3.0889,3.0889,3.0889,3.0889,3.0889,3.0889,3.0889,3.0889,3.0889,3.0889,3.0889,3.0889,3.0889,3.0889,3.0889,3.0889,3.0889,3.0889,3.0889,3.0889,3.0889,3.0889,3.0889,3.0889,3.0889,3.0889,3.0889,3.0908,3.1006,3.126,3.1553,3.1758,3.2275,3.2822,3.291,3.3174,3.3418,3.3418,3.3418,3.3418,3.3418,3.3418,3.3418,3.367,3.4047,3.4423,3.4673,3.517,3.5418,3.5418,3.5418,3.5418,3.5418,3.5418,3.5418,3.5418,3.5418,3.5418,3.5418,3.5418,3.5418,3.5418,3.5418,3.5418,3.5418,3.5418,3.5418,3.5418,3.5531,3.5749,3.6101,3.6328,3.6784,3.7498,3.7601,3.7839,3.8181,3.8181,3.8181,1.4885,1.5812,1.6915,0.0,0.0,0.0,0.0,0.0,0.0,0.0,0.0,0.0,0.0,0.0,0.0,0.0,0.0,0.0,0.0,0.0,0.0,0.0,0.0,0.0,0.0,0.0,0.0,0.0,0.0,0.0,3.0869,3.0889,3.0889,3.0889,3.0889,3.0889,3.0889,3.0889,3.0889,3.0889,3.0889,3.0889,3.0889,3.0889,3.0889,3.0889,3.0889,3.0889,3.0889,3.0889,3.0889,3.0889,3.0889,3.0889,3.0889,3.0889,3.0889,3.0889,3.0889,3.0889,3.0957,3.1348,3.1494,3.167,3.2461,3.2744,3.2871,3.3271,3.3398,3.3418,3.3418,3.3418,3.3418,3.3418,3.3418,3.3428,3.3418,3.3922,3.4423,3.4423,3.4922,3.5418,3.5418,3.5418,3.5418,3.5418,3.5418,3.5418,3.5418,3.5418,3.5418,3.5418,3.5418,3.5418,3.5418,3.5418,3.5418,3.5418,3.5418,3.5418,3.5418,3.5832,3.608,3.6111,3.696,3.7425,3.7498,3.7933,3.815,3.8181,3.8181,3.8181,1.4987,1.6372,1.784,0.0,0.0,0.0,0.0,0.0,0.0,0.0,0.0,0.0,0.0,0.0,0.0,0.0,0.0,0.0,0.0,0.0,0.0,0.0,0.0,0.0,0.0,0.0,0.0,0.0,0.0,0.0,3.0869,3.0889,3.0889,3.0889,3.0889,3.0889,3.0889,3.0889,3.0889,3.0889,3.0889,3.0889,3.0889,3.0889,3.0889,3.0889,3.0889,3.0889,3.0889,3.0889,3.0889,3.0889,3.0889,3.0889,3.0889,3.0889,3.0889,3.0928,3.1191,3.1279,3.1357,3.1777,3.21,3.2373,3.2695,3.2978,3.3213,3.3379,3.3418,3.3418,3.3418,3.3418,3.3418,3.3418,3.3418,3.3418,3.3418,3.3796,3.4173,3.4423,3.4797,3.517,3.5418,3.5418,3.5418,3.5418,3.5418,3.5531,3.5821,3.5852,3.5966,3.6246,3.6028,3.5738,3.5449,3.5418,3.5542,3.5832,3.5852,3.5852,3.5852,3.6297,3.668,3.697,3.7322,3.7498,3.7498,3.7964,3.8036,3.7767,3.8046,3.8181,1.554,1.7023,1.858,0.0,0.0,0.0,0.0,0.0,0.0,0.0,0.0,0.0,0.0,0.0,0.0,0.0,0.0,0.0,0.0,0.0,0.0,0.0,0.0,0.0,0.0,0.0,0.0,0.0,0.0,0.0,0.0,3.081,3.0889,3.0889,3.0889,3.0889,3.0889,3.0889,3.0889,3.0889,3.0889,3.0889,3.0889,3.0889,3.0889,3.0889,3.0889,3.0889,3.0889,3.0889,3.0889,3.0889,3.0889,3.0889,3.0889,3.0889,3.0976,3.1133,3.1416,3.1611,3.1797,3.2226,3.2559,3.2822,3.2949,3.3193,3.3418,3.3418,3.3418,3.3418,3.3418,3.3418,3.3418,3.3418,3.3418,3.3418,3.3418,3.367,3.3922,3.4173,3.4548,3.4922,3.517,3.5294,3.5418,3.5418,3.5552,3.5759,3.607,3.6235,3.6453,3.6773,3.6515,3.6204,3.5883,3.5852,3.5997,3.6308,3.6473,3.6422,3.6121,3.6556,3.6949,3.727,3.7415,3.7498,3.7498,3.7808,3.7798,3.7508,3.7974,3.8181,1.6741,1.7669,0.0,0.0,0.0,0.0,0.0,0.0,0.0,0.0,0.0,0.0,0.0,0.0,0.0,0.0,0.0,0.0,0.0,0.0,0.0,0.0,0.0,0.0,0.0,0.0,0.0,0.0,0.0,0.0,0.0,3.0635,3.0889,3.0889,3.0889,3.0889,3.0889,3.0889,3.0889,3.0889,3.0889,3.0889,3.0889,3.0889,3.0889,3.0889,3.0889,3.0889,3.0889,3.0889,3.0889,3.0889,3.0889,3.0889,3.0889,3.0889,3.1152,3.1514,3.1523,3.1807,3.2246,3.2666,3.2803,3.2881,3.3301,3.3418,3.3418,3.3418,3.3418,3.3418,3.3418,3.3418,3.3418,3.3418,3.3418,3.3418,3.3418,3.367,3.3922,3.3922,3.4423,3.4922,3.4922,3.517,3.5418,3.5428,3.5821,3.6121,3.6121,3.6525,3.6815,3.6815,3.6815,3.6804,3.6804,3.6804,3.6804,3.6804,3.7229,3.7074,3.6163,3.6566,3.6815,3.6815,3.726,3.7488,3.7488,3.7488,3.7498,3.7498,3.7964,3.8181,1.6655,0.0,0.0,0.0,0.0,0.0,0.0,0.0,0.0,0.0,0.0,0.0,0.0,0.0,0.0,0.0,0.0,0.0,0.0,0.0,0.0,0.0,0.0,0.0,0.0,0.0,0.0,0.0,0.0,0.0,0.0,3.0635,3.0889,3.0889,3.0889,3.0889,3.0889,3.0889,3.0889,3.0889,3.0889,3.0889,3.0889,3.0889,3.0889,3.0889,3.0889,3.0889,3.0889,3.0889,3.0889,3.0889,3.0889,3.0889,3.0889,3.0889,3.1152,3.1562,3.1865,3.2256,3.2685,3.3096,3.3232,3.3252,3.3379,3.3418,3.3418,3.3418,3.3418,3.3418,3.3418,3.3418,3.3418,3.3418,3.3418,3.3418,3.3418,3.3418,3.367,3.3796,3.4298,3.4673,3.4922,3.517,3.5531,3.5863,3.6028,3.6349,3.7001,3.7488,3.7653,3.7322,3.7291,3.7156,3.6825,3.6804,3.6804,3.6804,3.6629,3.6691,3.7063,3.7529,3.7622,3.7291,3.7425,3.7177,3.6525,3.7177,3.7322,3.7032,3.7819,3.8181,1.7948,0.0,0.0,0.0,0.0,0.0,0.0,0.0,0.0,0.0,0.0,0.0,0.0,0.0,0.0,0.0,0.0,0.0,0.0,0.0,0.0,0.0,0.0,0.0,0.0,0.0,0.0,0.0,0.0,0.0,0.0,3.0547,3.0889,3.0889,3.0889,3.0889,3.0889,3.0889,3.0889,3.0889,3.0889,3.0889,3.0889,3.0889,3.0889,3.0889,3.0889,3.0889,3.0889,3.0889,3.0889,3.0889,3.0889,3.0889,3.0918,3.1074,3.1406,3.1836,3.2266,3.2695,3.3086,3.334,3.3418,3.3418,3.3418,3.3418,3.3418,3.3418,3.3418,3.3418,3.3418,3.3418,3.3418,3.3418,3.3418,3.3418,3.3418,3.3418,3.3544,3.3796,3.4173,3.4548,3.4797,3.517,3.5583,3.6039,3.6432,3.6929,3.7674,3.8015,3.8078,3.7798,3.7767,3.7653,3.7374,3.7187,3.7156,3.7343,3.6918,3.6908,3.7467,3.7405,3.7322,3.7218,3.7043,3.6763,3.639,3.6949,3.7177,3.7094,3.7839,3.8181,0.0,0.0,0.0,0.0,0.0,0.0,0.0,0.0,0.0,0.0,0.0,0.0,0.0,0.0,0.0,0.0,0.0,0.0,0.0,0.0,0.0,0.0,0.0,0.0,0.0,0.0,0.0,0.0,0.0,0.0,0.0,3.041,3.0889,3.0889,3.0889,3.0889,3.0889,3.0889,3.0889,3.0889,3.0889,3.0889,3.0889,3.0889,3.0889,3.0889,3.0889,3.0889,3.0889,3.0889,3.0889,3.0889,3.0889,3.0889,3.0947,3.1367,3.1797,3.2226,3.2646,3.3066,3.3418,3.3418,3.3418,3.3418,3.3418,3.3418,3.3418,3.3418,3.3418,3.3418,3.3418,3.3418,3.3418,3.3418,3.3418,3.3418,3.3428,3.3418,3.3544,3.3796,3.4173,3.4548,3.4797,3.5211,3.5656,3.6163,3.6991,3.7705,3.8129,3.8181,3.8181,3.8181,3.8181,3.8181,3.8181,3.7757,3.7653,3.8036,3.7622,3.7363,3.7363,3.6639,3.6401,3.6732,3.637,3.6359,3.6742,3.6825,3.7084,3.7508,3.7974,3.8181,0.0,0.0,0.0,0.0,0.0,0.0,0.0,0.0,0.0,0.0,0.0,0.0,0.0,0.0,0.0,0.0,0.0,0.0,0.0,0.0,0.0,0.0,0.0,0.0,0.0,0.0,0.0,0.0,0.0,0.0,2.957,3.041,3.0889,3.0889,3.0889,3.0889,3.0889,3.0889,3.0889,0.0,3.0889,3.0889,3.0889,3.0889,3.0889,3.0889,3.0889,3.0889,3.0889,3.0889,3.0889,3.0889,3.0889,3.0889,3.0947,3.1367,3.1797,3.2226,3.2646,3.3066,3.3418,3.3418,3.3418,3.3418,3.3418,3.3418,3.3418,3.3418,3.3418,3.3418,3.3418,3.3418,3.3418,3.3418,3.3544,3.367,3.3428,3.3544,3.3796,3.3922,3.4173,3.4548,3.4797,3.5468,3.6246,3.7074,3.7674,3.8078,3.8171,3.8181,3.8181,3.8181,3.8181,3.8181,3.8181,3.7757,3.7384,3.7115,3.667,3.6411,3.6411,3.6918,3.6908,3.6277,3.6515,3.6525,3.6266,3.6991,3.7394,3.7508,3.7974,3.8181,0.0,0.0,0.0,0.0,0.0,0.0,0.0,0.0,0.0,0.0,0.0,0.0,0.0,0.0,0.0,0.0,0.0,0.0,0.0,0.0,0.0,0.0,0.0,0.0,0.0,0.0,0.0,0.0,0.0,2.957,2.957,3.041,3.0889,3.0889,3.0889,3.0889,3.0889,3.0889,3.0889,3.0889,3.0889,3.0889,3.0889,3.0889,3.0889,3.0889,3.0889,3.0889,3.0889,3.0889,3.0889,3.0889,3.0889,3.0889,3.0967,3.1592,3.1973,3.2256,3.2881,3.3242,3.3418,3.3418,3.3418,3.3418,3.3418,3.3418,3.3418,3.3418,3.3418,3.3418,3.3418,3.3418,3.3418,3.3418,3.367,3.3796,3.3418,3.367,3.3922,3.3922,3.4173,3.4548,3.4797,3.5735,3.668,3.7384,3.7891,3.8181,3.8181,3.8181,3.8181,3.8181,3.8181,3.8098,3.7871,3.7425,3.7063,3.6815,3.637,3.6111,3.6111,3.6794,3.6939,3.6453,3.6463,3.6577,3.6773,3.726,3.7612,3.7829,3.8078,3.8181,0.0,0.0,0.0,0.0,0.0,0.0,0.0,0.0,0.0,0.0,0.0,0.0,0.0,0.0,0.0,0.0,0.0,0.0,0.0,0.0,0.0,0.0,0.0,0.0,0.0,0.0,0.0,0.0,0.0,2.9492,2.957,3.0332,3.081,3.0889,3.0889,3.0889,3.0889,3.0889,3.0889,3.0889,3.0889,3.0889,3.0889,3.0889,3.0889,3.0889,3.0889,3.0889,3.0889,3.0889,3.0889,3.0889,3.0889,3.0937,3.1094,3.1875,3.2217,3.2383,3.3154,3.3418,3.3418,3.3418,3.3418,3.3418,3.3418,3.3418,3.3418,3.3418,3.3418,3.3418,3.3418,3.3418,3.3418,3.3418,3.367,3.3922,3.3544,3.3796,3.4047,3.4047,3.4298,3.4723,3.5126,3.6044,3.6991,3.7529,3.7943,3.8181,3.8181,3.8181,3.8181,3.8181,3.8181,3.7995,3.7529,3.7063,3.6773,3.6691,3.6246,3.6028,3.6111,3.6484,3.6763,3.6918,3.6546,3.6732,3.7498,3.757,3.7808,3.8181,3.8181,3.8181,0.0,0.0,0.0,0.0,0.0,0.0,0.0,0.0,0.0,0.0,0.0,0.0,0.0,0.0,0.0,0.0,0.0,0.0,0.0,0.0,0.0,0.0,0.0,0.0,0.0,0.0,0.0,0.0,2.873,2.917,2.9551,3.0029,3.0478,3.0879,3.0889,3.0889,3.0889,3.0889,3.0889,3.0889,3.0889,3.0889,3.0889,3.0889,3.0889,3.0889,3.0889,3.0889,3.0889,3.0889,3.0889,3.0889,3.0889,3.1113,3.1494,3.1982,3.2393,3.2783,3.3252,3.3418,3.3418,3.3418,3.3418,3.3418,3.3418,3.3418,3.3418,3.3418,3.3418,3.3418,3.3418,3.3418,3.3418,3.3418,3.3922,3.4298,3.3922,3.4298,3.4797,3.4797,3.5046,3.5552,3.6356,3.6722,3.7094,3.7964,3.815,3.8181,3.8181,3.8181,3.8181,3.8181,3.8181,3.7995,3.7529,3.7063,3.6639,3.6235,3.5769,3.5697,3.609,3.6173,3.6587,3.7384,3.7343,3.7363,3.7498,3.7902,3.8119,3.8181,3.8181,3.8181,0.0,0.0,0.0,0.0,0.0,0.0,0.0,0.0,0.0,0.0,0.0,0.0,0.0,0.0,0.0,0.0,0.0,0.0,0.0,0.0,0.0,0.0,0.0,0.0,0.0,0.0,0.0,0.0,2.8682,2.9111,2.9541,2.9971,3.041,3.0879,3.0889,3.0889,3.0889,3.0889,3.0889,3.0889,3.0889,3.0889,3.0889,3.0889,3.0889,3.0889,3.0889,3.0889,3.0889,3.0889,3.0889,3.0889,3.0889,3.1006,3.125,3.1924,3.2285,3.2539,3.3193,3.3418,3.3418,3.3418,3.3418,3.3418,3.3418,3.3418,3.3418,3.3418,3.3418,3.3418,3.3418,3.3418,3.3418,3.3418,3.3922,3.4423,3.4173,3.4548,3.4922,3.4922,3.4922,3.5207,3.6511,3.6804,3.7115,3.8046,3.8181,3.8181,3.8181,3.7964,3.7902,3.816,3.7726,3.7332,3.7125,3.668,3.6225,3.5759,3.578,3.5894,3.6101,3.6608,3.7084,3.7488,3.7498,3.7622,3.7881,3.8088,3.8181,3.8181,3.8181,3.8181,0.0,0.0,0.0,0.0,0.0,0.0,0.0,0.0,0.0,0.0,0.0,0.0,0.0,0.0,0.0,0.0,0.0,0.0,0.0,0.0,0.0,0.0,0.0,0.0,0.0,0.0,0.0,0.0,2.8584,2.8994,2.9541,2.9863,3.0303,3.0869,3.0889,3.0889,3.0889,3.0889,3.0889,3.0889,3.0889,3.0889,3.0889,3.0889,3.0889,3.0889,3.0889,3.0889,3.0889,3.0889,3.0889,3.0889,3.0889,3.0957,3.1143,3.1894,3.2236,3.2432,3.3164,3.3418,3.3418,3.3418,3.3418,3.3418,3.3418,3.3418,3.3418,3.3418,3.3418,3.3418,3.3418,3.3418,3.3418,3.3418,3.3796,3.4298,3.4548,3.4797,3.5046,3.5046,3.4797,3.5082,3.6511,3.6804,3.7115,3.8046,3.8181,3.8181,3.8181,3.7881,3.7798,3.815,3.7467,3.6929,3.6815,3.638,3.5966,3.5614,3.5925,3.6225,3.6453,3.7125,3.755,3.7674,3.7674,3.7839,3.8181,3.8181,3.8181,3.8181,3.8181,3.8181,0.0,0.0,0.0,0.0,0.0,0.0,0.0,0.0,0.0,0.0,0.0,0.0,0.0,0.0,0.0,0.0,0.0,0.0,0.0,0.0,0.0,0.0,0.0,0.0,0.0,0.0,0.0,0.0,2.831,2.8691,2.9521,2.959,3.0,3.0859,3.0889,3.0889,3.0889,3.0889,3.0889,3.0889,3.0889,3.0889,3.0889,3.0889,3.0889,3.0889,3.0889,3.0889,3.0889,3.0889,3.0889,3.0889,3.0889,3.1133,3.1543,3.2002,3.2422,3.2822,3.3271,3.3418,3.3418,3.3418,3.3418,3.3418,3.3418,3.3418,3.3418,3.3418,3.3418,3.3418,3.3418,3.3418,3.3418,3.3418,3.367,3.4173,3.517,3.5418,3.5418,3.5418,3.5418,3.5718,3.6639,3.6804,3.7115,3.8046,3.8181,3.8181,3.8181,3.8171,3.816,3.8181,3.7757,3.7281,3.6846,3.638,3.6101,3.608,3.6101,3.6504,3.7384,3.7467,3.7705,3.814,3.815,3.816,3.8181,3.8181,3.8181,3.8181,3.8181,3.8181,0.0,0.0,0.0,0.0,0.0,0.0,0.0,0.0,0.0,0.0,0.0,0.0,0.0,0.0,0.0,0.0,0.0,0.0,0.0,0.0,0.0,0.0,0.0,0.0,0.0,0.0,0.0,0.0,0.0,2.8662,2.9521,2.957,2.998,3.0859,3.0889,3.0889,3.0889,3.0889,3.0889,3.0889,3.0889,3.0889,3.0889,3.0889,3.0889,3.0889,3.0889,3.0889,3.0889,3.0889,3.0889,3.0889,3.0889,3.0986,3.1201,3.1904,3.2266,3.249,3.3184,3.3418,3.3418,3.3418,3.3418,3.3418,3.3418,3.3418,3.3418,3.3418,3.3418,3.3418,3.3418,3.3418,3.3418,3.367,3.3922,3.4423,3.4922,3.5046,3.517,3.5304,3.517,3.5468,3.6639,3.6804,3.7115,3.8046,3.8181,3.8181,3.8181,3.7933,3.786,3.815,3.7239,3.666,3.6794,3.638,3.6111,3.6111,3.667,3.7146,3.7488,3.7777,3.8015,3.8181,3.8181,3.8181,3.8181,3.8181,3.8181,3.8181,3.8181,3.8181,0.0,0.0,0.0,0.0,0.0,0.0,0.0,0.0,0.0,0.0,0.0,0.0,0.0,0.0,0.0,0.0,0.0,0.0,0.0,0.0,0.0,0.0,0.0,0.0,0.0,0.0,0.0,0.0,0.0,0.0,2.9316,2.9492,2.998,3.0859,3.0889,3.0889,3.0889,3.0889,3.0889,3.0889,3.0889,3.0889,3.0889,3.0889,3.0889,3.0889,3.0889,3.0889,3.0889,3.0889,3.0889,3.0889,3.0889,3.0889,3.0996,3.1855,3.2168,3.2285,3.3135,3.3418,3.3418,3.3418,3.3418,3.3418,3.3418,3.3418,3.3418,3.3418,3.3418,3.3418,3.3418,3.3418,3.3428,3.367,3.4047,3.4423,3.4673,3.4922,3.517,3.5304,3.517,3.5468,3.6639,3.6804,3.7115,3.8046,3.8057,3.7953,3.7953,3.7684,3.755,3.7705,3.6898,3.6473,3.6773,3.638,3.6246,3.6556,3.7156,3.756,3.7726,3.8026,3.8181,3.8181,3.8181,3.8181,3.8181,3.8181,3.8181,3.8181,3.8181,3.8181,0.0,0.0,0.0,0.0,0.0,0.0,0.0,0.0,0.0,0.0,0.0,0.0,0.0,0.0,0.0,0.0,0.0,0.0,0.0,0.0,0.0,0.0,0.0,0.0,0.0,0.0,0.0,0.0,2.8291,2.8476,2.8896,2.9346,2.999,3.0859,3.0889,3.0889,3.0889,3.0889,3.0889,3.0889,3.0889,3.0889,3.0889,3.0889,3.0889,3.0889,3.0889,3.0889,3.0889,3.0889,3.0889,3.0889,3.0889,3.0889,3.0996,3.1855,3.2168,3.2285,3.3135,3.3418,3.3418,3.3418,3.3418,3.3418,3.3418,3.3418,3.3418,3.3418,3.3418,3.3418,3.3418,3.3418,3.3418,3.3418,3.3922,3.4423,3.4423,3.4922,3.5428,3.5418,3.5438,3.5728,3.6649,3.6815,3.7136,3.8046,3.7788,3.7498,3.7508,3.7498,3.7322,3.6877,3.6815,3.6804,3.6804,3.639,3.6525,3.7436,3.7508,3.7715,3.8171,3.8181,3.8181,3.8181,3.8181,3.8181,3.8181,3.8181,3.8181,3.8181,3.8181,3.8181,1.7442,0.0,0.0,0.0,0.0,0.0,0.0,0.0,0.0,0.0,0.0,0.0,0.0,0.0,0.0,0.0,0.0,0.0,0.0,0.0,0.0,0.0,0.0,0.0,0.0,0.0,0.0,0.0,2.8291,2.8476,2.8896,2.9619,3.0293,3.0869,3.0889,3.0889,3.0889,3.0889,3.0889,3.0889,3.0889,3.0889,3.0889,3.0889,3.0889,3.0889,3.0889,3.0889,3.0889,3.0889,3.0889,3.0889,3.0889,3.0889,3.0996,3.1855,3.2168,3.2285,3.3135,3.3418,3.3418,3.3418,3.3418,3.3418,3.3418,3.3418,3.3418,3.3418,3.3418,3.3418,3.3418,3.3418,3.3418,3.3418,3.367,3.4047,3.4298,3.4797,3.517,3.5294,3.5687,3.6111,3.6701,3.7084,3.7508,3.8098,3.7788,3.7612,3.7953,3.7705,3.7446,3.7322,3.7001,3.6804,3.6804,3.668,3.6867,3.7457,3.7808,3.8046,3.8181,3.8181,3.8181,3.8181,3.8181,3.8181,3.8181,3.8181,3.8181,3.8181,3.8181,3.8181,0.0,0.0,0.0,0.0,0.0,0.0,2.0775,2.1895,0.0,0.0,0.0,0.0,0.0,0.0,0.0,0.0,0.0,0.0,0.0,0.0,0.0,0.0,0.0,0.0,0.0,2.8291,2.8291,2.8291,2.8291,2.8476,2.8896,2.957,3.0137,3.0586,3.0791,3.0889,3.0889,3.0889,3.0889,3.0889,3.0889,3.0889,3.0889,3.0889,3.0889,3.0889,3.0889,3.0889,3.0889,3.0889,3.0889,3.0889,3.0889,3.0889,3.0976,3.165,3.2012,3.2266,3.293,3.3271,3.3418,3.3418,3.3418,3.3418,3.3418,3.3418,3.3418,3.3418,3.3418,3.3418,3.3418,3.3418,3.3418,3.3418,3.367,3.4047,3.4298,3.4673,3.5046,3.5294,3.5801,3.6256,3.6722,3.7187,3.7653,3.8119,3.7788,3.7591,3.786,3.7664,3.7343,3.696,3.6846,3.6804,3.6804,3.6804,3.7084,3.7736,3.8036,3.8181,3.8181,3.8181,3.8181,3.8181,3.8181,3.8181,3.8181,3.8181,3.8181,3.8181,3.8181,3.8181,0.0,0.0,0.0,0.0,0.0,0.0,2.0767,2.1777,2.2894,0.0,0.0,0.0,0.0,0.0,0.0,0.0,0.0,0.0,0.0,0.0,0.0,0.0,0.0,0.0,2.8291,2.8291,2.8291,2.8291,2.8291,2.8476,2.8896,2.9336,2.9766,3.0185,3.0644,3.0889,3.0889,3.0889,3.0889,3.0889,3.0889,3.0889,3.0889,3.0889,3.0889,3.0889,3.0889,3.0889,3.0889,3.0889,3.0889,3.0889,3.0889,3.0889,3.0947,3.1367,3.1797,3.2226,3.2646,3.3066,3.3418,3.3418,3.3418,3.3418,3.3418,3.3418,3.3418,3.3418,3.3418,3.3418,3.3418,3.3418,3.3418,3.3418,3.367,3.3922,3.4298,3.4548,3.4922,3.5294,3.5842,3.6318,3.6732,3.7229,3.7705,3.8119,3.7788,3.7508,3.756,3.7529,3.7156,3.6277,3.6556,3.6804,3.6804,3.6804,3.7198,3.8129,3.8181,3.8181,3.8181,3.8181,3.8181,3.8181,3.8181,3.8181,3.8181,3.8181,3.8181,3.8181,3.8181,3.8181,0.0,0.0,0.0,0.0,0.0,0.0,1.9332,1.9738,2.0546,0.0,0.0,0.0,0.0,0.0,0.0,0.0,0.0,0.0,0.0,0.0,0.0,0.0,0.0,0.0,2.8291,2.8291,2.8291,2.8291,2.8291,2.8476,2.8896,2.9336,2.9766,3.0185,3.0644,3.0889,3.0889,3.0889,3.0889,3.0889,3.0889,3.0889,3.0889,3.0889,3.0889,3.0889,3.0889,3.0889,3.0889,3.0889,3.0889,3.0889,3.0889,3.0889,3.0947,3.1367,3.1797,3.2226,3.2646,3.3066,3.3418,3.3418,3.3418,3.3418,3.3418,3.3418,3.3418,3.3418,3.3418,3.3418,3.3418,3.3418,3.3418,3.3418,3.3418,3.367,3.4298,3.4298,3.4298,3.4922,3.5848,3.6573,3.6398,3.7367,3.8078,3.8171,3.7788,3.7632,3.8005,3.7726,3.7281,3.6732,3.6753,3.6804,3.6804,3.6804,3.7198,3.8129,3.8181,3.8181,3.8181,3.8181,3.8181,3.8181,3.8181,3.8181,3.8181,3.8181,3.8181,3.8181,3.8181,3.8181,0.0,0.0,0.0,1.7582,0.0,0.0,0.0,1.9428,1.9937,2.1862,2.1676,0.0,0.0,0.0,0.0,0.0,0.0,0.0,0.0,0.0,0.0,0.0,0.0,0.0,2.8271,2.8291,2.8291,2.8291,2.8291,2.8389,2.8594,2.9014,2.9443,2.9873,3.0312,3.0654,3.0889,3.0889,3.0889,3.0889,3.0889,3.0889,3.0889,3.0889,3.0889,3.0889,3.0889,3.0889,3.0889,3.0889,3.0889,3.0889,3.0889,3.0889,3.0918,3.1133,3.1611,3.2197,3.2412,3.29,3.3418,3.3418,3.3418,3.3418,3.3418,3.3418,3.3418,3.3418,3.3418,3.3418,3.3418,3.3418,3.3418,3.3418,3.3418,3.3544,3.4047,3.4047,3.4117,3.4589,3.5554,3.6279,3.6279,3.7166,3.7904,3.8181,3.7995,3.7922,3.815,3.7984,3.7664,3.7198,3.7146,3.7146,3.7146,3.7146,3.7446,3.814,3.8181,3.8181,3.8181,3.8181,3.8181,3.8181,3.8181,3.8181,3.8181,3.8181,3.8181,3.8181,3.8181,3.8181,0.0,0.0,0.0,0.0,0.0,1.7823,0.0,0.0,0.0,2.0939,0.0,0.0,0.0,0.0,0.0,0.0,0.0,0.0,0.0,0.0,0.0,0.0,0.0,0.0,0.0,2.8242,2.8291,2.8291,2.8291,2.8291,2.8291,2.8691,2.9121,2.956,2.998,3.042,3.0889,3.0889,3.0889,3.0889,3.0889,3.0889,3.0889,3.0889,3.0889,3.0889,3.0889,3.0889,3.0889,3.0889,3.0889,3.0889,3.0889,3.0889,3.0889,3.0889,3.1435,3.2168,3.2168,3.2725,3.3418,3.3418,3.3418,3.3418,3.3418,3.3418,3.3418,3.3418,3.3418,3.3418,3.3418,3.3418,3.3418,3.3418,3.3418,3.3544,3.3796,3.3796,3.3924,3.4497,3.5072,3.5661,3.6132,3.6953,3.7626,3.8048,3.8048,3.8048,3.8181,3.8181,3.8005,3.7539,3.7498,3.7457,3.7363,3.7446,3.7653,3.8026,3.814,3.8181,3.8181,3.8181,3.8181,3.8181,3.8181,3.8181,3.8181,3.8181,3.8181,3.8181,3.8181,3.8181,0.0,0.0,0.0,0.0,1.7388,0.0,0.0,0.0,1.8094,1.922,0.0,0.0,0.0,0.0,0.0,0.0,0.0,0.0,0.0,0.0,0.0,0.0,0.0,0.0,0.0,2.8076,2.8291,2.8291,2.8291,2.8291,2.8291,2.8691,2.9121,2.956,2.998,3.042,3.0889,3.0889,3.0889,3.0889,3.0889,3.0889,3.0889,3.0889,3.0889,3.0889,3.0889,3.0889,3.0889,3.0889,3.0889,3.0889,3.0889,3.0889,3.0889,3.0889,3.1435,3.2168,3.2168,3.2725,3.3418,3.3418,3.3418,3.3418,3.3418,3.3418,3.3418,3.3418,3.3418,3.3418,3.3418,3.3418,3.3418,3.3418,3.3418,3.3544,3.3796,3.367,3.3672,3.4497,3.4674,3.5087,3.5878,3.6613,3.7213,3.7626,3.7626,3.776,3.8181,3.8181,3.8005,3.7539,3.7498,3.7332,3.6918,3.726,3.7519,3.757,3.7964,3.8181,3.8181,3.8181,3.8181,3.8181,3.8181,3.8181,3.8181,3.8181,3.8181,3.8181,3.8181,3.8181,0.0,0.0,0.0,0.0,0.0,0.0,1.7759,0.0,1.7956,0.0,0.0,0.0,0.0,0.0,0.0,0.0,1.9291,0.0,0.0,0.0,0.0,0.0,0.0,0.0,0.0,0.0,0.0,0.0,2.8291,2.8291,2.8291,2.8457,2.8867,2.9551,2.9736,3.0176,3.0889,3.0889,3.0889,3.0889,3.0889,3.0889,3.0889,3.0889,3.0889,3.0889,3.0889,3.0889,3.0889,3.0889,3.0889,3.0889,3.0889,3.0889,3.0889,3.0889,3.1435,3.2168,3.2168,3.2725,3.3418,3.3418,3.3418,3.3418,3.3418,3.3418,3.3418,3.3418,3.3418,3.3418,3.3418,3.3418,3.3418,3.3418,3.3418,3.3418,3.3544,3.3544,3.3623,3.4426,3.4711,3.4922,3.575,3.642,3.6934,3.7213,3.7482,3.7616,3.7626,3.777,3.7688,3.7371,3.7473,3.7421,3.6838,3.7491,3.7777,3.7508,3.7933,3.8181,3.8181,3.8181,3.8181,3.8181,3.8181,3.8181,3.8181,3.8181,3.8181,3.8181,3.8181,3.7904,2.186,0.0,0.0,0.0,0.0,0.0,0.0,0.0,0.0,0.0,0.0,0.0,0.0,0.0,0.0,1.7976,0.0,1.9605,0.0,0.0,0.0,0.0,0.0,0.0,0.0,0.0,0.0,2.8291,2.8291,2.8291,2.8291,2.8291,2.8633,2.9365,2.9502,2.9932,3.0693,3.083,3.0889,3.0889,3.0889,3.0889,3.0889,3.0889,3.0889,3.0889,3.0889,3.0889,3.0889,3.0889,3.0889,3.0889,3.0889,3.0889,3.0889,3.0889,3.1435,3.2168,3.2168,3.2725,3.3418,3.3418,3.3418,3.3418,3.3418,3.3418,3.3418,3.3418,3.3418,3.3418,3.3418,3.3418,3.3418,3.3418,3.3418,3.3418,3.3418,3.3418,3.3682,3.4531,3.4697,3.498,3.5869,3.6132,3.6529,3.7079,3.7213,3.7348,3.7213,3.7348,3.7348,3.7079,3.7348,3.7258,3.681,3.7452,3.7718,3.7519,3.7933,3.8181,3.8181,3.8181,3.8181,3.8181,3.8181,3.8181,3.8181,3.8181,3.8181,3.8181,3.8181,3.7626,0.0,0.0,0.0,1.9656,0.0,0.0,0.0,0.0,1.7762,0.0,0.0,0.0,0.0,0.0,1.8884,1.8838,1.8727,0.0,0.0,0.0,0.0,0.0,0.0,0.0,0.0,0.0,0.0,2.8291,2.8291,2.8291,2.8291,2.8291,2.8496,2.8926,2.9346,2.9785,3.0215,3.0664,3.0889,3.0889,3.0889,3.0889,3.0889,3.0889,3.0889,3.0889,3.0889,3.0889,3.0889,3.0889,3.0889,3.0889,3.0889,3.0889,3.0889,3.0889,3.1435,3.2168,3.2168,3.2725,3.3418,3.3418,3.3418,3.3418,3.3418,3.3418,3.3418,3.3418,3.3418,3.3418,3.3418,3.3418,3.3418,3.3418,3.3418,3.3418,3.3418,3.3418,3.3682,3.4531,3.4697,3.498,3.5869,3.6016,3.6287,3.6944,3.6799,3.6789,3.7482,3.7348,3.7079,3.7079,3.7079,3.686,3.6381,3.6707,3.7094,3.7498,3.7933,3.8181,3.8181,3.8181,3.8181,3.8181,3.8181,3.8181,3.8181,3.8181,3.8181,3.8181,3.8181,3.7626,0.0,0.0,2.3341,2.1143,0.0,0.0,0.0,0.0,0.0,0.0,0.0,0.0,0.0,0.0,1.9186,1.8979,1.8953,1.9048,0.0,0.0,0.0,0.0,0.0,0.0,0.0,0.0,0.0,2.7051,2.7079,2.7413,2.8291,2.8291,2.8486,2.8906,2.9346,2.9766,3.0195,3.0664,3.0889,3.0889,3.0889,3.0889,3.0889,3.0889,3.0889,3.0889,3.0889,3.0889,3.0889,3.0889,3.0889,3.0889,3.0889,3.0889,3.0889,3.0889,3.1435,3.2246,3.2803,3.3184,3.3418,3.3418,3.3418,3.3418,3.3418,3.3418,3.3418,3.3418,3.3418,3.3418,3.3418,3.3418,3.3418,3.3418,3.3418,3.3418,3.3418,3.3418,3.3682,3.4531,3.4697,3.498,3.5869,3.6016,3.6016,3.6287,3.6393,3.6519,3.6549,3.6674,3.6664,3.6413,3.6529,3.644,3.5691,3.6152,3.6766,3.7477,3.7933,3.8181,3.8181,3.8181,3.8181,3.8181,3.8181,3.8181,3.8181,3.8181,3.8181,3.8181,3.7492,3.6519,2.4812,2.4848,0.0,2.2895,2.2895,0.0,2.2209,0.0,0.0,0.0,0.0,0.0,0.0,0.0,2.0202,1.9875,1.9669,1.9476,0.0,1.9273,0.0,0.0,0.0,0.0,0.0,0.0,2.4767,2.5818,2.5845,2.6409,0.0,0.0,2.7517,2.8691,2.8805,2.9238,2.9971,3.0586,3.0889,3.0889,3.0889,3.0889,3.0889,3.0889,3.0889,3.0889,3.0889,3.0889,3.0889,3.0889,3.0889,3.0889,3.0889,3.0889,3.0889,3.0889,3.1435,3.2266,3.2959,3.3301,3.3418,3.3418,3.3418,3.3418,3.3418,3.3418,3.3447,3.3613,3.3545,3.3457,3.3613,3.3545,3.3418,3.3418,3.3418,3.3418,3.3418,3.3418,3.3682,3.4531,3.4697,3.498,3.5869,3.6016,3.6016,3.6142,3.6268,3.6268,3.6142,3.6268,3.6268,3.6016,3.6142,3.6048,3.529,3.5739,3.6367,3.7088,3.7684,3.8015,3.8181,3.8181,3.8109,3.7943,3.8098,3.8109,3.7943,3.8109,3.8037,3.7626,3.6799,3.5695]},{"header":{"parameterUnit":"m.s-1","parameterCategory":1,"la1":30.6,"la2":29.2853,"lo1":-89.7004,"lo2":-87.6739,"dy":0.0162,"dx":0.0183,"nx":112,"ny":82,"refTime":"2023-04-27T12:00:00:Z","depth":0,"parameterNumber":3,"parameterNumberName":"V-component_of_WINDS"},"data":[0.0,0.0,0.0,0.0,0.0,0.0,0.0,0.0,0.0,0.0,0.0,0.0,0.0,0.0,0.0,0.0,0.0,0.0,0.0,0.0,0.0,0.0,0.0,0.0,0.0,0.0,0.0,0.0,0.0,0.0,0.0,0.0,0.0,0.0,0.0,0.0,0.0,0.0,0.0,0.0,0.0,0.0,0.0,0.0,0.0,0.0,0.0,0.0,0.0,0.0,0.0,0.0,0.0,0.0,0.0,0.0,0.0,0.0,0.0,0.0,0.0,0.0,0.0,0.0,0.0,0.0,0.0,0.0,0.0,0.0,0.0,0.0,0.0,0.0,0.0,0.0,0.0,0.0,0.0,0.0,0.0,0.0,0.0,0.0,0.0,0.0,0.0,0.0,0.0,0.0,-3.5105,-3.5088,-3.4947,-3.4899,-3.4899,-3.4899,-3.4899,-3.4899,0.0,0.0,0.0,0.0,0.0,0.0,0.0,0.0,0.0,0.0,0.0,0.0,0.0,0.0,0.0,0.0,0.0,0.0,0.0,0.0,0.0,0.0,0.0,0.0,0.0,0.0,0.0,0.0,0.0,0.0,0.0,0.0,0.0,0.0,0.0,0.0,0.0,0.0,0.0,0.0,0.0,0.0,0.0,0.0,0.0,0.0,0.0,0.0,0.0,0.0,0.0,0.0,0.0,0.0,0.0,0.0,0.0,0.0,0.0,0.0,0.0,0.0,0.0,0.0,0.0,0.0,0.0,0.0,0.0,0.0,0.0,0.0,0.0,0.0,0.0,0.0,0.0,0.0,0.0,0.0,0.0,0.0,0.0,0.0,0.0,0.0,0.0,0.0,0.0,0.0,0.0,0.0,0.0,0.0,0.0,0.0,0.0,0.0,0.0,0.0,0.0,0.0,0.0,0.0,-3.5198,-3.4947,-3.4899,-3.4899,-3.4899,-3.4899,-3.4899,-3.4899,0.0,0.0,0.0,0.0,0.0,0.0,0.0,0.0,0.0,0.0,0.0,0.0,0.0,0.0,0.0,0.0,0.0,0.0,0.0,0.0,0.0,0.0,0.0,0.0,0.0,0.0,0.0,0.0,0.0,0.0,0.0,0.0,0.0,0.0,0.0,0.0,0.0,0.0,0.0,0.0,0.0,0.0,0.0,0.0,0.0,0.0,0.0,0.0,0.0,0.0,0.0,0.0,0.0,0.0,0.0,0.0,0.0,0.0,0.0,0.0,0.0,0.0,0.0,0.0,0.0,0.0,0.0,0.0,0.0,0.0,0.0,0.0,0.0,0.0,0.0,0.0,0.0,0.0,0.0,0.0,0.0,0.0,0.0,0.0,0.0,0.0,0.0,0.0,0.0,0.0,0.0,0.0,0.0,0.0,0.0,0.0,0.0,0.0,0.0,0.0,0.0,0.0,0.0,-3.5245,-3.5105,-3.4899,-3.4899,-3.4899,-3.4899,-3.4899,-3.5065,-3.5462,-3.5114,0.0,0.0,0.0,0.0,0.0,0.0,0.0,0.0,0.0,0.0,0.0,0.0,0.0,0.0,0.0,0.0,0.0,0.0,0.0,0.0,0.0,0.0,0.0,0.0,0.0,0.0,0.0,0.0,0.0,0.0,0.0,0.0,0.0,0.0,0.0,0.0,0.0,0.0,0.0,0.0,0.0,0.0,0.0,0.0,0.0,0.0,0.0,0.0,0.0,0.0,0.0,0.0,0.0,0.0,0.0,0.0,0.0,0.0,0.0,0.0,0.0,0.0,0.0,0.0,0.0,0.0,0.0,0.0,0.0,0.0,0.0,0.0,0.0,0.0,0.0,0.0,0.0,0.0,0.0,0.0,0.0,0.0,0.0,0.0,0.0,0.0,0.0,0.0,0.0,0.0,0.0,0.0,0.0,0.0,0.0,0.0,0.0,0.0,0.0,0.0,0.0,0.0,-3.5088,-3.4994,-3.4899,-3.4899,-3.4899,-3.4899,-3.5048,-3.5396,-3.5959,-3.5628,0.0,0.0,0.0,0.0,0.0,0.0,0.0,0.0,0.0,0.0,0.0,0.0,0.0,0.0,0.0,0.0,0.0,0.0,0.0,0.0,0.0,0.0,0.0,0.0,0.0,0.0,0.0,0.0,0.0,0.0,0.0,0.0,0.0,0.0,0.0,0.0,0.0,0.0,0.0,0.0,0.0,0.0,0.0,0.0,0.0,0.0,0.0,0.0,0.0,0.0,0.0,0.0,0.0,0.0,0.0,0.0,0.0,0.0,0.0,0.0,0.0,0.0,0.0,0.0,0.0,0.0,0.0,0.0,0.0,0.0,0.0,0.0,0.0,0.0,0.0,0.0,0.0,0.0,0.0,0.0,0.0,0.0,0.0,0.0,0.0,0.0,0.0,0.0,0.0,0.0,0.0,0.0,0.0,0.0,0.0,0.0,0.0,0.0,0.0,0.0,0.0,0.0,-3.5041,-3.4899,-3.4899,-3.4899,-3.4899,-3.4899,-3.5528,-3.5943,-3.6009,-3.6605,0.0,0.0,0.0,0.0,0.0,0.0,0.0,0.0,0.0,0.0,0.0,0.0,0.0,0.0,0.0,0.0,0.0,0.0,0.0,0.0,0.0,0.0,0.0,0.0,0.0,0.0,0.0,0.0,0.0,0.0,0.0,0.0,0.0,0.0,0.0,0.0,0.0,0.0,0.0,0.0,0.0,0.0,0.0,0.0,0.0,0.0,0.0,0.0,0.0,0.0,0.0,0.0,0.0,0.0,0.0,0.0,0.0,0.0,0.0,0.0,0.0,0.0,0.0,0.0,0.0,0.0,0.0,0.0,0.0,0.0,0.0,0.0,0.0,0.0,0.0,0.0,0.0,0.0,0.0,0.0,0.0,0.0,0.0,0.0,0.0,0.0,0.0,0.0,0.0,0.0,0.0,0.0,0.0,0.0,0.0,0.0,0.0,0.0,0.0,0.0,0.0,0.0,-3.5152,-3.4994,0.0,-3.4899,-3.4899,-3.4899,-3.5148,-3.5711,-3.6638,0.0,0.0,0.0,0.0,0.0,0.0,0.0,0.0,0.0,0.0,0.0,0.0,0.0,0.0,0.0,0.0,0.0,0.0,0.0,0.0,0.0,0.0,0.0,0.0,0.0,0.0,0.0,0.0,0.0,0.0,0.0,0.0,0.0,0.0,0.0,0.0,0.0,0.0,0.0,0.0,0.0,0.0,0.0,0.0,0.0,0.0,0.0,0.0,0.0,0.0,0.0,0.0,0.0,0.0,0.0,0.0,0.0,0.0,0.0,0.0,0.0,0.0,0.0,0.0,0.0,0.0,0.0,0.0,0.0,0.0,0.0,0.0,0.0,0.0,0.0,0.0,0.0,0.0,0.0,0.0,0.0,0.0,0.0,0.0,0.0,0.0,0.0,0.0,0.0,0.0,0.0,0.0,0.0,0.0,0.0,0.0,0.0,0.0,0.0,0.0,0.0,0.0,-3.5689,-3.5285,-3.4994,0.0,-3.4899,-3.4899,-3.4899,-3.5114,-3.5777,-3.7036,0.0,0.0,0.0,0.0,0.0,0.0,0.0,0.0,0.0,0.0,0.0,0.0,0.0,0.0,0.0,0.0,0.0,0.0,0.0,0.0,0.0,0.0,0.0,0.0,0.0,0.0,0.0,0.0,0.0,0.0,0.0,0.0,0.0,0.0,0.0,0.0,0.0,0.0,0.0,0.0,0.0,0.0,0.0,0.0,0.0,0.0,0.0,0.0,0.0,0.0,0.0,0.0,0.0,0.0,0.0,0.0,0.0,0.0,0.0,0.0,0.0,0.0,0.0,0.0,0.0,0.0,0.0,0.0,0.0,0.0,0.0,0.0,0.0,0.0,0.0,0.0,0.0,0.0,0.0,0.0,0.0,0.0,0.0,0.0,0.0,0.0,0.0,0.0,0.0,0.0,0.0,0.0,0.0,0.0,0.0,0.0,0.0,0.0,0.0,0.0,0.0,0.0,-3.641,-3.5538,-3.4899,-3.4899,-3.4899,-3.4899,-3.4899,-3.5578,-3.6307,0.0,0.0,0.0,0.0,0.0,0.0,0.0,0.0,0.0,0.0,0.0,0.0,0.0,0.0,0.0,0.0,0.0,0.0,0.0,0.0,0.0,0.0,0.0,0.0,0.0,0.0,0.0,0.0,0.0,0.0,0.0,0.0,0.0,0.0,0.0,0.0,0.0,0.0,0.0,0.0,0.0,0.0,0.0,0.0,0.0,0.0,0.0,0.0,0.0,0.0,0.0,0.0,0.0,0.0,0.0,0.0,0.0,0.0,0.0,0.0,0.0,0.0,0.0,0.0,0.0,0.0,0.0,0.0,0.0,0.0,0.0,0.0,0.0,0.0,0.0,0.0,0.0,0.0,0.0,0.0,0.0,0.0,0.0,0.0,0.0,0.0,0.0,0.0,0.0,0.0,0.0,0.0,0.0,0.0,0.0,0.0,0.0,0.0,0.0,0.0,0.0,0.0,0.0,-3.641,-3.5538,-3.4899,-3.4899,-3.4899,-3.4899,-3.4899,-3.5578,-3.6307,-3.7052,0.0,0.0,0.0,0.0,0.0,0.0,0.0,0.0,0.0,0.0,0.0,0.0,0.0,0.0,0.0,0.0,0.0,0.0,0.0,0.0,0.0,0.0,0.0,0.0,0.0,0.0,0.0,0.0,0.0,0.0,0.0,0.0,0.0,0.0,0.0,0.0,0.0,0.0,0.0,0.0,0.0,0.0,0.0,0.0,0.0,0.0,0.0,0.0,0.0,0.0,0.0,0.0,0.0,0.0,0.0,0.0,0.0,0.0,0.0,0.0,0.0,0.0,0.0,0.0,0.0,0.0,0.0,0.0,0.0,0.0,0.0,0.0,0.0,0.0,0.0,0.0,0.0,0.0,0.0,0.0,0.0,0.0,0.0,0.0,0.0,0.0,0.0,0.0,0.0,0.0,0.0,0.0,0.0,0.0,0.0,0.0,0.0,0.0,0.0,0.0,0.0,0.0,-3.7216,-3.6171,-3.5446,-3.5744,-3.6042,-3.6224,-3.6224,-3.6887,-3.7615,-3.8361,0.0,0.0,0.0,0.0,0.0,0.0,0.0,0.0,0.0,0.0,0.0,0.0,0.0,0.0,0.0,0.0,0.0,0.0,0.0,0.0,0.0,0.0,0.0,0.0,0.0,0.0,0.0,0.0,0.0,0.0,0.0,0.0,0.0,0.0,0.0,0.0,0.0,0.0,0.0,0.0,0.0,0.0,0.0,0.0,0.0,0.0,0.0,0.0,0.0,0.0,0.0,0.0,0.0,0.0,0.0,0.0,0.0,0.0,0.0,0.0,0.0,0.0,0.0,0.0,0.0,0.0,0.0,0.0,0.0,0.0,0.0,0.0,0.0,0.0,0.0,0.0,0.0,0.0,0.0,0.0,0.0,0.0,0.0,0.0,0.0,0.0,0.0,0.0,0.0,0.0,0.0,0.0,0.0,0.0,0.0,0.0,0.0,0.0,0.0,0.0,0.0,0.0,-3.8606,-3.722,-3.6489,-3.7235,-3.7914,-3.8311,-3.8311,-3.8974,-3.9669,-4.0332,0.0,0.0,0.0,0.0,0.0,0.0,0.0,0.0,0.0,0.0,0.0,0.0,0.0,0.0,0.0,0.0,0.0,0.0,0.0,0.0,0.0,0.0,0.0,0.0,0.0,0.0,0.0,0.0,0.0,0.0,0.0,0.0,0.0,0.0,0.0,0.0,0.0,0.0,0.0,0.0,0.0,0.0,0.0,0.0,0.0,0.0,0.0,0.0,0.0,0.0,0.0,0.0,0.0,0.0,0.0,0.0,0.0,0.0,0.0,0.0,-3.5345,0.0,0.0,0.0,0.0,0.0,0.0,0.0,0.0,0.0,0.0,0.0,0.0,0.0,0.0,0.0,0.0,0.0,0.0,0.0,0.0,0.0,0.0,0.0,0.0,0.0,0.0,0.0,0.0,0.0,0.0,0.0,0.0,0.0,0.0,0.0,0.0,0.0,0.0,0.0,0.0,0.0,-3.922,-3.8382,-3.8013,-3.8742,-3.8957,-3.9056,-3.9056,-3.9719,-4.0216,-4.0365,-4.0895,0.0,0.0,0.0,0.0,0.0,0.0,0.0,0.0,0.0,0.0,0.0,0.0,0.0,0.0,0.0,0.0,0.0,0.0,0.0,0.0,0.0,0.0,0.0,0.0,0.0,0.0,0.0,0.0,0.0,0.0,0.0,0.0,0.0,0.0,0.0,0.0,0.0,0.0,0.0,0.0,0.0,0.0,0.0,0.0,0.0,0.0,0.0,0.0,0.0,0.0,0.0,0.0,0.0,0.0,0.0,0.0,0.0,0.0,0.0,0.0,-3.5245,0.0,0.0,0.0,0.0,0.0,0.0,0.0,0.0,0.0,0.0,0.0,0.0,0.0,0.0,0.0,0.0,0.0,0.0,0.0,0.0,0.0,0.0,0.0,0.0,0.0,0.0,0.0,0.0,0.0,0.0,0.0,0.0,0.0,0.0,0.0,0.0,0.0,0.0,0.0,0.0,-4.0467,-3.981,-3.952,-4.0233,-4.0613,-4.0829,-4.0829,-4.1508,-4.1939,-4.1939,-4.227,0.0,0.0,0.0,0.0,0.0,0.0,0.0,0.0,0.0,0.0,0.0,0.0,0.0,0.0,0.0,0.0,0.0,0.0,0.0,0.0,0.0,0.0,0.0,0.0,0.0,0.0,0.0,0.0,0.0,0.0,0.0,0.0,0.0,0.0,0.0,0.0,0.0,0.0,0.0,0.0,0.0,0.0,0.0,0.0,0.0,0.0,0.0,0.0,0.0,0.0,0.0,0.0,0.0,-3.5245,-3.5265,-3.5241,-3.5382,-3.5355,-3.528,-3.5376,-3.5357,-3.5291,-3.5954,0.0,0.0,0.0,0.0,0.0,0.0,0.0,0.0,0.0,0.0,0.0,0.0,0.0,0.0,0.0,0.0,0.0,0.0,0.0,0.0,0.0,0.0,0.0,0.0,-3.9229,-3.9375,0.0,0.0,0.0,0.0,0.0,0.0,0.0,0.0,0.0,0.0,0.0,0.0,-4.1743,-4.1183,-4.1028,-4.1723,-4.2353,-4.2717,-4.2717,-4.328,-4.3628,-4.3628,-4.3628,-4.3628,0.0,0.0,0.0,0.0,0.0,0.0,0.0,0.0,0.0,0.0,0.0,0.0,0.0,0.0,0.0,0.0,0.0,0.0,0.0,0.0,0.0,0.0,0.0,0.0,0.0,0.0,0.0,0.0,0.0,0.0,0.0,0.0,-3.3942,-3.3186,0.0,0.0,0.0,0.0,0.0,0.0,0.0,0.0,0.0,0.0,0.0,0.0,0.0,-3.5677,-3.5291,-3.5182,-3.5152,-3.5135,-3.4994,-3.5278,-3.586,-3.5909,-3.6257,-3.682,-3.682,0.0,-3.5909,-3.6122,0.0,0.0,0.0,0.0,0.0,0.0,0.0,0.0,0.0,0.0,0.0,0.0,0.0,0.0,0.0,0.0,0.0,0.0,0.0,0.0,0.0,0.0,-3.9342,-3.9989,-4.0613,-4.1077,0.0,-3.9922,-3.9259,-3.9951,-4.0209,0.0,0.0,0.0,0.0,0.0,0.0,0.0,-4.2303,-4.2303,-4.2518,-4.3264,-4.3429,-4.3479,-4.3479,-4.3562,-4.3628,-4.3628,-4.3628,-4.3628,-4.3628,-4.3628,0.0,0.0,0.0,0.0,0.0,0.0,0.0,0.0,0.0,0.0,0.0,0.0,0.0,0.0,0.0,0.0,0.0,0.0,0.0,0.0,0.0,0.0,0.0,0.0,0.0,0.0,0.0,0.0,0.0,-3.46,-3.4363,-3.4445,-3.4891,-3.5428,0.0,0.0,0.0,0.0,0.0,0.0,0.0,0.0,0.0,-3.5453,-3.5874,-3.5971,-3.5721,-3.604,-3.624,-3.624,-3.6191,-3.6307,-3.6622,-3.6622,-3.6804,-3.7102,-3.7102,-3.7152,-3.7251,-3.7302,-3.7252,-3.7286,0.0,0.0,0.0,0.0,-3.8689,-3.8603,-3.8603,-3.8587,0.0,-3.8101,0.0,0.0,0.0,0.0,0.0,0.0,0.0,0.0,0.0,0.0,0.0,-4.041,-4.0893,-4.1295,-4.0918,-4.0369,-4.0156,0.0,-4.0702,-4.0652,-4.1293,0.0,0.0,0.0,0.0,-4.2858,-4.3098,-4.3148,-4.3413,-4.4141,-4.4224,-4.4224,-4.4224,-4.4224,-4.4042,-4.3645,-4.3628,-4.3628,-4.3628,-4.3628,-4.3628,0.0,0.0,0.0,0.0,0.0,0.0,0.0,0.0,0.0,0.0,0.0,0.0,0.0,0.0,0.0,0.0,0.0,0.0,0.0,0.0,0.0,0.0,0.0,0.0,0.0,0.0,0.0,0.0,-3.4892,-3.4651,-3.5414,-3.5094,-3.519,0.0,0.0,0.0,0.0,0.0,0.0,-3.5512,-3.5529,-3.5566,-3.5607,-3.6139,-3.6389,-3.629,-3.6837,-3.7102,-3.7102,-3.7301,-3.7483,-3.7665,-3.7864,-3.8046,-3.8212,-3.8212,-3.8411,-3.8742,-3.8361,-3.7996,-3.7765,-3.8963,-3.9448,-3.9432,-3.9573,-3.9537,-3.9448,-3.9448,-3.9379,-3.9239,-3.9056,0.0,-3.9073,-3.9454,0.0,0.0,0.0,0.0,-4.0757,-4.0702,-4.1177,-4.1576,-4.1053,-4.1477,-4.1857,-4.1357,-4.1222,-4.1292,0.0,-4.1147,-4.0958,-4.1799,0.0,0.0,0.0,0.0,-4.3959,-4.4158,-4.4175,-4.4373,-4.4903,-4.497,-4.497,-4.497,-4.497,-4.4738,-4.4208,-4.4175,-4.4175,-4.4175,-4.4175,-4.4175,-4.4175,0.0,0.0,0.0,0.0,0.0,0.0,0.0,0.0,0.0,0.0,0.0,0.0,0.0,0.0,0.0,0.0,0.0,0.0,0.0,0.0,0.0,0.0,0.0,0.0,0.0,0.0,0.0,0.0,0.0,-3.5391,-3.4745,0.0,0.0,0.0,0.0,-3.6343,-3.574,-3.5546,-3.6121,-3.6154,-3.6421,-3.697,-3.7036,-3.7052,-3.7052,-3.7085,-3.7102,-3.7119,-3.7814,-3.851,-3.9189,-3.9885,-4.058,-4.1193,-4.1193,-4.0845,-4.0166,-3.8791,-3.8593,-3.9172,-3.9292,-3.9325,-3.9325,-3.9325,-3.9325,-3.9325,-3.9325,-3.9325,-3.9156,-3.8477,-3.8278,-3.8526,-3.9901,-4.0332,0.0,0.0,-4.1326,-4.1359,-4.1359,-4.1905,-4.2469,-4.2411,-4.294,-4.3453,-4.3453,-4.3453,-4.3238,0.0,-4.1933,-4.189,-4.3261,0.0,-4.3794,-4.4473,-4.4605,-4.4887,-4.5599,-4.5682,-4.5698,-4.5732,-4.5732,-4.5732,-4.5732,-4.5732,-4.5715,-4.5682,-4.5682,-4.5682,-4.5682,-4.5682,-4.5682,-4.5682,-4.5682,0.0,0.0,0.0,0.0,0.0,0.0,0.0,0.0,0.0,0.0,0.0,0.0,0.0,0.0,0.0,0.0,0.0,0.0,0.0,0.0,0.0,0.0,0.0,0.0,0.0,0.0,0.0,0.0,-3.5442,-3.4667,0.0,-3.5702,-3.5847,-3.5969,-3.6235,-3.6404,-3.6538,-3.6754,-3.6771,-3.6887,-3.7102,-3.8013,-3.851,-3.851,-3.9421,-3.9885,-3.9885,-4.015,-4.0415,-4.0663,-4.0928,-4.1177,-4.1409,-4.1409,-4.1276,-4.1011,-4.0498,-4.015,-4.0034,-4.0481,-4.0647,-4.0647,-4.0647,-4.0647,-4.0647,-4.0647,-4.0647,-4.0613,-4.0348,-4.0282,-4.0382,-4.0895,-4.1044,-4.1094,-4.1342,-4.1756,-4.2121,-4.2121,-4.2684,-4.3096,-4.2659,-4.3114,-4.3624,-4.364,-4.3265,-4.3106,-4.3699,-4.3702,-4.3883,-4.4826,-4.5019,-4.5119,-4.5367,-4.54,-4.5483,-4.5765,-4.5798,-4.598,-4.646,-4.651,-4.651,-4.651,-4.651,-4.6295,-4.5814,-4.5798,-4.5798,-4.5798,-4.5798,-4.5798,-4.5798,-4.5798,-4.5798,0.0,0.0,0.0,0.0,0.0,0.0,0.0,0.0,0.0,0.0,0.0,0.0,0.0,0.0,0.0,0.0,0.0,0.0,0.0,0.0,0.0,0.0,0.0,0.0,0.0,0.0,-3.4746,-3.5859,-3.5127,-3.504,-3.639,-3.6582,-3.6719,-3.6887,-3.707,-3.7352,-3.7814,-3.7831,-3.8063,-3.8543,-3.9487,-4.0001,-4.0001,-4.0928,-4.1409,-4.1409,-4.1674,-4.1789,-4.1789,-4.2054,-4.2154,-4.217,-4.2419,-4.2518,-4.2535,-4.2783,-4.2618,-4.2154,-4.1624,-4.1409,-4.1409,-4.1409,-4.1409,-4.1409,-4.1409,-4.1409,-4.1409,-4.1409,-4.1409,-4.1458,-4.1707,-4.1789,-4.1839,-4.2088,-4.2684,-4.3247,-4.3247,-4.3597,-4.3817,-4.3345,-4.3425,-4.3618,-4.3961,-4.3387,-4.3309,-4.5032,-4.4804,-4.4542,-4.5271,-4.5639,-4.5864,-4.6129,-4.6162,-4.6245,-4.651,-4.6527,-4.6725,-4.7222,-4.7272,-4.7272,-4.7272,-4.7272,-4.7057,-4.656,-4.6527,-4.6527,-4.6527,-4.6527,-4.6527,-4.6527,-4.6527,-4.6527,-4.6527,0.0,0.0,0.0,0.0,0.0,0.0,0.0,0.0,0.0,0.0,0.0,0.0,0.0,0.0,0.0,0.0,0.0,0.0,0.0,0.0,0.0,0.0,0.0,-3.6323,-3.5958,-3.591,-3.6721,-3.6089,-3.637,-3.8355,-3.7953,-3.777,-3.8195,-3.7752,-3.7985,-3.9325,-3.9392,-3.9984,-4.1375,-4.1425,-4.1442,-4.1442,-4.1475,-4.1475,-4.1491,-4.2204,-4.2551,-4.2585,-4.3297,-4.3628,-4.3661,-4.4357,-4.4655,-4.4705,-4.545,-4.5765,-4.5483,-4.2651,-4.1558,-4.1558,-4.1558,-4.1558,-4.1558,-4.1558,-4.1558,-4.1558,-4.1558,-4.1558,-4.169,-4.2402,-4.2618,-4.2767,-4.3495,-4.4191,-4.4721,-4.4721,-4.4702,-4.4658,-4.4658,-4.4058,-4.3733,-4.4492,-4.409,-4.4177,-4.6437,-4.5107,-4.3881,-4.4591,-4.5355,-4.6096,-4.6825,-4.6924,0.0,-4.7918,-4.8001,-4.8001,-4.8001,-4.8001,-4.8001,-4.8001,-4.8001,-4.8001,-4.8001,-4.8001,-4.8001,-4.8001,-4.8001,-4.8001,-4.8001,-4.8001,-4.8001,-4.8001,0.0,0.0,0.0,0.0,0.0,0.0,0.0,0.0,0.0,0.0,0.0,0.0,0.0,0.0,0.0,0.0,0.0,0.0,0.0,0.0,0.0,0.0,-3.7665,-3.678,-3.6039,-3.6055,-3.7449,-3.7208,-3.723,-3.7883,-3.8623,-3.9158,-3.9272,-4.0127,-4.0725,-4.105,-4.1028,-4.1139,-4.1409,-4.1939,-4.222,-4.222,-4.275,-4.3015,-4.3015,-4.323,-4.333,-4.333,-4.3529,-4.3628,-4.3645,-4.3827,-4.391,-4.3976,-4.4688,-4.4986,-4.4953,-4.4688,-4.4589,-4.4589,-4.4589,-4.4589,-4.4589,-4.4589,-4.4589,-4.4589,-4.4589,-4.4589,-4.4622,-4.4821,-4.4887,-4.4937,-4.5135,-4.5334,-4.5483,-4.5483,-4.5491,-4.5434,-4.5434,-4.4887,-4.4671,-4.5979,-4.525,-4.463,-4.5767,-4.5539,-4.5553,-4.6815,-4.7242,-4.7454,-4.7669,-4.7703,0.0,-4.7968,-4.8001,-4.8001,-4.8001,-4.8001,-4.8001,-4.8001,-4.8001,-4.8001,-4.8001,-4.8001,-4.8001,-4.8001,-4.8001,-4.8001,-4.8001,-4.8001,-4.8001,0.0,0.0,0.0,0.0,0.0,0.0,0.0,0.0,0.0,0.0,0.0,0.0,0.0,0.0,0.0,0.0,0.0,0.0,0.0,0.0,0.0,0.0,-3.8159,-3.8345,-3.7787,-3.7283,-3.7405,-3.8684,-3.8654,-3.8857,-3.948,-4.0305,-4.074,-4.0651,-4.1439,-4.2021,-4.2172,-4.2132,-4.2226,-4.2336,-4.2767,-4.2982,-4.2982,-4.3413,-4.3628,-4.3628,-4.3628,-4.3628,-4.3628,-4.3628,-4.3628,0.0,-4.3943,-4.4241,-4.4589,-4.5317,-4.5798,0.0,0.0,0.0,0.0,0.0,-4.5798,-4.5798,-4.5798,-4.5798,-4.5798,-4.5798,-4.5798,-4.5798,-4.5798,-4.5798,-4.5798,-4.5798,-4.6013,-4.6245,-4.6245,-4.5995,-4.5864,-4.6143,-4.5142,-4.4488,-4.6047,-4.5136,-4.4406,-4.5473,-4.5697,0.0,-4.6844,-4.727,-4.7621,-4.7935,-4.8001,-4.8001,-4.8001,-4.8001,-4.8001,-4.8001,-4.8001,-4.8001,-4.8001,-4.8001,0.0,0.0,0.0,-4.8001,-4.8001,-4.8001,0.0,0.0,0.0,-4.8001,-4.8001,0.0,0.0,0.0,-4.7915,-4.7947,0.0,0.0,0.0,0.0,0.0,0.0,0.0,0.0,0.0,0.0,0.0,0.0,0.0,0.0,0.0,0.0,-3.8173,-3.8481,-3.9039,-3.9259,-3.9563,-4.0138,-4.0307,-4.0831,-4.2025,-4.2334,-4.2314,-4.2097,-4.2236,-4.2534,-4.2922,0.0,0.0,0.0,0.0,-4.3661,-4.3744,-4.3744,-4.3794,-4.3876,-4.3876,-4.3876,-4.3876,-4.3876,-4.3876,-4.391,-4.4539,-4.5185,-4.5847,-4.6593,-4.7338,-4.7868,-4.656,-4.6046,-4.6046,-4.6046,-4.6046,-4.6046,-4.6046,0.0,0.0,-4.6046,-4.6046,-4.6046,-4.6046,-4.6046,-4.6046,-4.6046,-4.651,-4.7023,-4.6878,-4.6442,-4.6056,-4.6534,-4.5079,-4.3927,-4.5405,-4.4572,-4.3955,-4.5368,-4.5725,-4.5788,-4.5934,-4.6571,-4.7232,-4.7902,-4.8134,-4.8249,-4.8249,-4.8249,-4.8249,-4.8249,0.0,0.0,-4.8249,-4.8249,-4.8249,-4.8249,-4.8249,-4.8249,-4.8249,-4.8166,-4.8117,-4.8117,-4.805,-4.8001,-4.8001,-4.8001,-4.8001,-4.8001,-4.8001,-4.8049,0.0,0.0,0.0,0.0,0.0,0.0,0.0,0.0,0.0,0.0,0.0,0.0,0.0,0.0,0.0,-3.8764,-3.9783,-4.0409,-3.9969,-4.0916,-4.1491,-4.1035,-4.1508,-4.1982,-4.2216,-4.2844,-4.3145,-4.309,-4.3736,-4.4086,-4.4034,-4.3977,-4.3987,-4.3981,-4.3981,-4.4206,-4.467,-4.467,-4.4909,-4.5367,0.0,0.0,-4.5367,-4.5367,-4.5367,-4.5384,-4.5516,-4.5665,-4.5847,-4.6593,-4.7338,-4.7968,-4.7686,-4.757,-4.757,-4.757,-4.757,-4.757,-4.757,-4.757,-4.757,-4.757,-4.757,-4.757,-4.757,-4.757,0.0,-4.757,-4.7686,-4.7638,-4.6974,-4.7172,-4.7286,-4.6198,-4.5551,-4.5332,-4.5624,-4.5397,-4.5186,-4.548,-4.6005,-4.6517,-4.7174,-4.8074,-4.851,-4.7981,-4.8951,-4.979,-4.979,-4.979,-4.979,-4.979,-4.979,-4.979,-4.979,-4.979,-4.979,-4.979,-4.979,-4.979,-4.979,-4.921,-4.8895,-4.8895,-4.8299,-4.8001,-4.8001,-4.8001,-4.8001,-4.8001,-4.8001,-4.8001,0.0,0.0,0.0,0.0,0.0,0.0,0.0,0.0,0.0,0.0,0.0,-3.8803,0.0,0.0,-3.9355,-3.9969,-4.073,-4.1204,-4.1204,-4.2151,-4.2726,-4.2354,-4.2642,-4.3014,-4.3403,-4.3775,-4.3995,-4.3995,-4.435,-4.4514,-4.431,-4.4663,-4.4807,-4.4633,-4.5001,-4.531,-4.5617,-4.5617,-4.574,-4.5939,-4.5939,-4.5939,-4.5939,-4.6242,-4.6424,-4.652,-4.6806,-4.7106,-4.7504,-4.8249,-4.8779,-4.911,-4.911,-4.8647,-4.8001,-4.8001,-4.8001,-4.8001,-4.8001,-4.8001,-4.8001,-4.8001,-4.8001,-4.8001,-4.8001,-4.8001,-4.8001,-4.8001,-4.8001,-4.7919,-4.7488,-4.7395,-4.7238,-4.6853,-4.6084,-4.5603,-4.5972,-4.5709,-4.5414,-4.5414,-4.628,-4.6967,-4.659,-4.8201,-4.9311,-4.8495,-4.904,-4.9583,-4.9583,-4.9583,-4.9739,-5.0135,-5.022,-5.022,-5.022,-5.022,-5.022,-5.022,-5.022,-5.022,-5.022,-4.9856,-4.9657,-4.9657,-4.9293,-4.911,-4.911,-4.911,-4.911,-4.911,-4.911,-4.8713,0.0,0.0,0.0,0.0,0.0,0.0,0.0,0.0,-3.9864,-4.0317,-3.9856,-3.9501,-4.0152,-4.0238,-4.0493,-4.1085,-4.1441,-4.1847,-4.2422,-4.3166,-4.3639,-4.3639,-4.3639,-4.3893,-4.4519,-4.4587,-4.4587,-4.4587,-4.4587,-4.4564,-4.4586,-4.5175,-4.5488,-4.5505,-4.6109,-4.6418,-4.6569,-4.6569,-4.6592,-4.6557,-4.6557,-4.6557,-4.6574,-4.6969,-4.7251,-4.7428,-4.7967,-4.863,-4.9375,-4.9955,-5.022,-5.022,-5.022,-4.9475,-4.8415,-4.8266,-4.8117,-4.8001,-4.8001,-4.81,-4.8216,-4.8216,-4.8315,-4.8431,-4.8431,-4.8431,-4.8431,-4.8431,-4.8431,-4.8349,-4.8049,-4.7529,-4.7151,-4.7266,-4.6423,-4.5686,-4.6142,-4.5858,-4.5484,-4.5484,-4.6674,-4.7293,-4.6146,-4.8075,-4.9448,-4.8743,-4.9054,-4.9297,-4.9297,-4.9458,-4.985,-5.0549,-5.0634,-5.0634,-5.0634,-5.0634,-5.0634,-5.0634,-5.0634,-5.0634,-5.0634,-5.0502,-5.0419,-5.0419,-5.0286,-5.022,-5.022,-5.022,-5.022,-5.022,-5.022,-4.9574,-4.0629,-4.0629,0.0,-4.0429,-4.0531,-4.06,0.0,0.0,-4.0203,-4.0171,-3.9545,-3.9274,-4.0002,-4.0138,-4.0375,-4.1085,-4.232,-4.32,-4.3284,-4.3961,-4.4451,-4.4451,-4.4451,-4.4485,-4.457,-4.4587,-4.4587,-4.4587,-4.4587,-4.4874,-4.5534,-4.5595,-4.5933,-4.6574,-4.6676,-4.6971,-4.7429,-4.7446,-4.772,-4.8232,-4.8232,-4.8232,-4.8249,-4.8125,-4.8046,-4.8144,-4.8729,-4.9409,-5.0104,-5.0187,-5.022,-5.022,-5.022,-5.0121,-4.9889,-4.9226,-4.8564,-4.8001,-4.8001,-4.8431,-4.8978,-4.8978,-4.9425,-4.9955,-4.9955,-4.9955,-4.9955,-4.9955,-4.9955,-4.9579,-4.8109,-4.8157,-4.8147,-4.61,-4.6016,-4.6223,-4.5604,-4.5852,-4.6217,-4.6217,-4.6836,-4.7552,-4.8094,-4.8553,-4.8546,-4.7849,-4.9531,-5.0876,-5.0876,-5.1499,-5.2054,-5.2142,-5.2125,-5.2125,-5.2125,-5.2125,-5.2125,-5.2125,-5.2125,-5.2125,-5.2125,-5.1496,-5.1164,-5.1164,-5.0535,-5.022,-5.022,-5.022,-5.022,-5.022,-5.022,-5.0121,-4.0793,0.0,0.0,0.0,-4.0583,-4.0648,-4.0387,-4.0046,-3.9876,-4.0153,-3.9884,-3.9851,-4.0595,-4.1085,-4.161,0.0,-4.3014,-4.3572,-4.4028,-4.4367,-4.4587,-4.4587,-4.4587,-4.4587,-4.4587,-4.4587,-4.4587,-4.4587,-4.4993,-4.5365,-4.5686,-4.6515,-4.7124,-4.7445,-4.7851,-4.8162,-4.8405,-4.8405,-4.8512,-4.869,-4.869,-4.869,-4.8644,-4.8935,-4.9241,-4.9692,-5.0225,-5.0724,-5.1108,-5.135,-5.1533,-5.1602,-5.1549,-5.1214,-5.075,-5.0021,-4.9558,-4.9293,-4.9293,-4.9491,-4.9756,-4.9756,-4.9955,-5.022,-5.022,-5.022,-5.0066,-4.9583,-4.9426,-4.9196,-4.7945,-4.8171,-4.8412,-4.69,-4.7206,-4.7482,-4.6626,-4.6696,-4.689,-4.689,-4.7513,-4.8019,-4.7849,-4.8256,-4.8315,-4.7555,-4.8701,-4.9837,-5.029,-5.0691,-5.109,-5.1706,-5.2125,-5.2208,-5.1777,-5.2125,-5.2373,-5.2373,-5.2373,-5.2373,-5.2373,-5.2075,-5.1926,-5.1926,-5.1628,-5.1479,-5.1479,-5.1479,-5.1479,-5.1479,-5.1479,-5.1479,-4.0793,0.0,0.0,-4.0583,-4.0648,-4.0648,-4.0534,-4.0075,-3.9839,-4.0491,-4.0544,-4.0663,-4.1356,-4.2117,-4.2777,-4.3318,-4.3606,-4.3927,-4.4502,-4.4587,-4.4654,-4.4874,-4.4891,-4.4891,-4.4891,-4.4705,-4.4654,-4.4874,-4.5399,-4.5889,-4.6295,-4.7344,-4.8003,-4.8206,-4.8731,-4.9001,-4.9001,-4.9001,-4.8956,-4.8832,-4.8832,-4.8832,-4.8849,-4.9198,-4.9771,-5.0442,-5.0827,-5.1161,-5.1547,-5.2024,-5.2271,-5.2341,-5.2487,-5.22,-5.1512,-5.1068,-5.0551,-5.022,-5.022,-5.0336,-5.0502,-5.0502,-5.0651,-5.0817,-5.0817,-5.0817,-5.0661,-4.9782,-4.9709,-4.9548,-4.8211,-4.8435,-4.8828,-4.7997,-4.807,-4.8172,-4.7779,-4.7467,-4.7309,-4.7309,-4.7779,-4.8019,-4.7381,-4.7864,-4.8019,-4.7381,-4.7864,-4.8573,-4.9343,-4.99,-5.0498,-5.1487,-5.2059,-5.2241,-5.1893,-5.2357,-5.2754,-5.2953,-5.297,-5.297,-5.297,-5.297,-5.297,-5.297,-5.297,-5.297,-5.297,-5.297,-5.297,-5.297,-5.297,-5.297,0.0,0.0,-4.0888,-4.0745,-4.0697,-4.0648,-4.0534,-4.0451,-4.0656,-4.1257,-4.1359,-4.1528,-4.217,-4.2878,-4.3386,-4.342,-4.4045,-4.4553,-4.4587,-4.4587,-4.4857,-4.5585,-4.5669,-4.5669,0.0,-4.501,-4.4891,-4.5618,-4.5703,-4.6329,-4.7784,-4.7902,-4.824,-4.8951,-4.8984,-4.9001,-4.9001,-4.9001,-4.9001,-4.9001,-4.9001,-4.9001,-4.9001,-4.8866,-4.9144,-4.9622,-4.9655,-5.0074,-5.081,-5.153,-5.1695,-5.1625,-5.2549,-5.2694,-5.2412,-5.2503,-5.1536,-5.022,-5.022,-5.0667,-5.1247,-5.1247,-5.1728,-5.2307,-5.2307,-5.2307,-5.2148,-5.1294,-5.168,-5.1753,-4.9215,-4.915,-4.9536,-4.8774,-4.7919,-4.7538,-4.8407,-4.7934,-4.7309,-4.7309,-4.7309,-4.7309,-4.7294,-4.7309,-4.7309,-4.7294,-4.7309,-4.7609,-4.8475,-5.0088,-5.1417,-5.2269,-5.2373,-5.2638,-5.3284,-5.3367,-5.3682,-5.4411,-5.446,-5.446,-5.446,-5.446,-5.446,-5.446,-5.446,-5.446,-5.446,-5.446,-5.446,-5.446,-5.446,-5.446,-4.0888,0.0,-4.0888,-4.0745,-4.0745,-4.0913,-4.1266,-4.0991,-4.0854,-4.1542,-4.1988,-4.2313,-4.2516,-4.3535,-4.4347,-4.4347,-4.4456,-4.4587,-4.4587,-4.4587,-4.4857,-4.5618,-4.5263,0.0,0.0,0.0,0.0,-4.572,-4.6616,-4.7394,-4.7885,-4.8376,-4.8748,-4.9001,-4.9001,-4.9001,-4.9001,-4.9001,-4.9001,-4.9001,-4.9001,-4.9001,-4.9001,-4.894,-4.9012,-4.9236,-5.0166,-5.0738,-5.1124,-5.2101,-5.2604,-5.262,-5.2803,-5.2834,-5.2711,-5.2624,-5.2254,-5.1768,-5.1715,-5.181,-5.2009,-5.2009,-5.2175,-5.2373,-5.2373,-5.198,-5.1508,-5.1194,-5.0477,-4.9678,-4.8805,-4.8805,-4.8805,-4.7934,-4.7934,-4.8088,-4.7779,-4.7538,-4.7309,-4.7309,-4.7309,-4.7309,-4.7309,-4.7309,-4.7467,-4.8103,-4.8641,-4.9019,-4.9343,-5.1262,-5.258,-5.2423,-5.3235,-5.3699,-5.3434,-5.3864,-5.4262,-5.4494,-5.4527,-5.4527,-5.4527,-5.4527,-5.4527,-5.4527,-5.4527,-5.4527,-5.4527,-5.4527,-5.4527,-5.4527,-5.4527,-5.4527,-4.0888,-4.1078,-4.1285,-4.1188,-4.1443,-4.175,-4.1859,-4.1484,-4.1346,-4.2036,-4.2483,-4.2929,-4.3423,-4.4221,-4.4831,-4.4886,-4.4776,-4.4682,-4.4682,-4.4682,-4.4914,-4.5618,-4.55,-4.5737,0.0,0.0,0.0,-4.6566,-4.7378,-4.8037,-4.8291,-4.8748,-4.9001,-4.9001,-4.9001,-4.9001,-4.9001,-4.9001,-4.9001,-4.9001,-4.9001,-4.9137,-4.939,-4.939,-4.9543,-4.9847,-5.0683,-5.1105,-5.1319,-5.227,-5.2707,-5.2825,-5.3026,-5.3058,-5.2903,-5.2764,-5.2624,-5.257,-5.2445,-5.2373,-5.2373,-5.2373,-5.2373,-5.2373,-5.2373,-5.198,-5.1508,-5.1194,-5.0322,-4.9358,-4.8723,-4.8805,-4.8805,-4.7934,-4.8172,-4.8407,-4.7864,-4.7553,-4.7309,-4.7309,-4.7309,-4.7309,-4.7309,-4.7504,-4.797,-4.8844,-4.984,-5.0549,-5.0611,-5.2243,-5.3321,-5.3202,-5.3964,-5.4427,-5.4212,-5.4643,-5.5024,-5.5289,-5.5289,-5.5289,-5.5289,-5.5289,-5.5289,-5.5289,-5.5289,-5.5289,-5.5289,-5.5289,-5.5289,-5.5289,-5.5289,-5.5289,-4.094,-4.1457,-4.1992,-4.2043,-4.2612,-4.3024,-4.2216,-4.2009,-4.215,-4.2807,-4.2911,-4.3323,0.0,0.0,-4.4886,-4.4978,-4.4886,-4.4776,-4.4776,-4.4776,-4.5026,0.0,0.0,0.0,0.0,0.0,0.0,-4.8071,0.0,-4.8308,-4.8968,-4.9001,-4.9001,-4.9001,-4.9001,-4.9018,-4.9069,-4.9086,-4.912,-4.912,-4.912,-4.9475,-5.0152,-5.0152,-5.0541,-5.1217,-5.1251,-5.1268,-5.1319,-5.2063,-5.2252,-5.2236,-5.3146,-5.328,-5.2903,-5.2903,-5.2764,-5.264,-5.2445,-5.2373,-5.2373,-5.2373,-5.239,-5.2373,-5.2373,-5.2373,-5.2142,-5.1359,-5.1102,-5.0723,-4.9132,-4.9262,-4.9583,-4.8805,-4.8573,-4.8573,-4.8573,-4.7849,-4.7309,-4.7309,-4.7339,-4.7354,-4.7354,-4.7908,-4.8648,-4.942,-5.0918,-5.1946,-5.213,-5.2835,-5.36,-5.4411,-5.4535,-5.4833,-5.562,-5.5686,-5.5968,-5.6647,-5.668,-5.668,-5.668,-5.668,-5.668,-5.668,-5.668,-5.668,-5.668,-5.668,-5.668,-5.668,-5.668,-5.668,-4.1561,-4.1836,-4.213,-4.2716,-4.3076,-4.3162,-4.2973,-4.2406,-4.2199,-4.2992,-4.3097,-4.339,0.0,0.0,0.0,-4.5032,-4.4886,0.0,-4.4682,-4.4626,0.0,-4.6363,0.0,-4.6633,-4.8274,-4.846,0.0,0.0,-4.9221,-4.9373,-4.9018,-4.9001,-4.9001,-4.9001,-4.9001,-4.9255,-4.9796,-5.0371,-5.0659,-5.0659,-5.0659,-5.0744,-5.093,-5.093,-5.1031,-5.1251,-5.1792,-5.2029,-5.208,-5.2875,-5.3196,-5.3163,-5.3433,-5.3433,-5.3348,-5.3195,-5.311,-5.3041,-5.285,-5.257,-5.2445,-5.2499,-5.2516,-5.2373,-5.2373,-5.198,-5.1508,-5.198,-5.1102,-5.0213,-5.04,-4.9678,-4.8872,-4.8641,-4.8088,-4.7624,-4.7624,-4.7467,-4.7309,-4.7309,-4.7698,-4.8042,-4.8042,-4.8581,-4.9104,-4.9327,-5.0651,-5.1755,-5.1962,-5.3166,-5.4096,-5.4349,-5.4805,-5.545,-5.6321,-5.6415,-5.6498,-5.668,-5.668,-5.668,-5.668,-5.668,-5.668,-5.668,-5.668,-5.668,-5.668,-5.668,-5.668,-5.668,-5.668,-5.668,-4.1871,-4.2475,-4.3095,-4.3544,-4.3698,-4.3698,-4.3698,-4.3061,-4.2733,-4.3492,-4.3698,0.0,-4.4647,0.0,0.0,0.0,0.0,0.0,-4.4776,-4.4793,-4.5162,0.0,-4.6244,0.0,-4.8376,-4.8731,-4.89,0.0,-4.9373,-4.9441,-4.9018,-4.9001,-4.9001,-4.9001,-4.9306,-4.983,-5.0574,-5.0997,-5.1217,-5.1217,-5.1217,-5.1386,-5.1691,-5.1691,-5.1894,-5.2249,0.0,-5.2841,-5.2858,-5.3315,-5.3501,-5.3501,-5.3501,-5.3501,-5.3501,-5.3264,-5.3179,-5.3179,-5.3041,-5.285,-5.264,-5.2624,-5.264,-5.257,-5.2499,-5.2125,-5.1875,-5.2357,-5.1492,-5.0461,-5.0951,-5.0151,-4.9035,-4.8641,-4.8256,-4.7779,-4.7381,-4.7309,-4.7399,-4.7683,-4.8267,-4.8716,-4.8716,-4.9254,-4.9869,-5.0289,-5.1267,-5.2147,-5.2363,-5.3738,-5.4729,-5.4729,-5.5408,-5.6162,-5.668,-5.668,-5.668,-5.668,-5.668,-5.668,-5.668,-5.668,-5.668,-5.668,-5.668,-5.668,-5.668,-5.668,-5.668,-5.668,-5.668,-5.668,-4.2112,-4.3199,-4.4302,-4.4406,-4.4354,-4.4285,-4.4285,-4.3749,-4.3439,-4.413,0.0,-4.4509,-4.5285,-4.53,-4.5247,-4.5371,0.0,-4.5123,-4.5032,-4.4978,-4.521,-4.5794,-4.6413,-4.7124,-4.797,-4.9204,-4.9678,-4.9052,-4.9001,-4.9001,-4.9001,-4.9001,-4.9035,-4.9137,-4.9949,-5.0693,-5.1352,-5.1471,-5.1522,-5.1522,-5.1522,-5.186,-5.2469,-5.2469,-5.2841,-5.3501,-5.3501,0.0,-5.3501,-5.3501,-5.3501,-5.3501,-5.3501,-5.3501,-5.3501,-5.3332,-5.3264,-5.3264,-5.3264,-5.3127,-5.2989,-5.2764,-5.2764,-5.2834,-5.2694,-5.2624,-5.2624,-5.2624,-5.1948,-5.1268,-5.1118,-5.0461,-4.9583,-4.8805,-4.849,-4.8256,-4.7452,-4.7369,-4.7623,-4.8282,-4.8955,-4.9389,-4.9389,-4.9942,-5.0622,-5.1374,-5.2058,-5.2516,-5.2874,-5.4216,-5.5215,-5.5215,-5.6067,-5.6663,-5.6757,-5.6757,-5.6757,-5.6757,-5.6757,-5.6757,-5.6757,-5.668,-5.668,-5.668,-5.668,-5.668,-5.668,-5.668,-5.668,-5.668,-5.668,-5.668,-4.2785,-4.3613,-4.4423,-4.5061,-4.4751,-4.4285,-4.4285,-4.3749,0.0,0.0,-4.4285,-4.4509,-4.5285,-4.5371,-4.5318,-4.5247,0.0,0.0,0.0,0.0,-4.5341,0.0,0.0,0.0,0.0,0.0,0.0,0.0,0.0,-4.9001,-4.9001,-4.9001,-4.9272,-4.9881,-5.1217,-5.1978,-5.2114,-5.2773,-5.3112,-5.3112,-5.3112,-5.3179,-5.3298,-5.3298,-5.3365,-5.3501,-5.3501,0.0,-5.3501,-5.3501,-5.3501,-5.3501,-5.3501,-5.3501,-5.3518,-5.3433,-5.3433,-5.3433,-5.3433,-5.3433,-5.3348,-5.3195,-5.2972,-5.2903,-5.2834,-5.2694,-5.2624,-5.2624,-5.2412,-5.198,-5.1268,-5.0461,-4.9583,-4.8805,-4.8019,-4.7467,-4.7294,-4.7743,-4.8312,-4.897,-4.9628,-5.0062,-5.0062,-5.0616,-5.105,-5.1206,-5.1404,-5.1742,-5.2516,-5.3703,-5.4537,-5.472,-5.5523,-5.6348,-5.7122,-5.7214,-5.7214,-5.7214,-5.7063,-5.6911,-5.6911,-5.6757,-5.668,-5.668,-5.668,-5.668,-5.668,-5.668,-5.668,-5.668,-5.668,-5.668,-4.3007,-4.3767,-4.4354,-4.4734,-4.4251,-4.3853,-4.4182,0.0,0.0,0.0,-4.4872,-4.4992,-4.5354,-4.5423,0.0,-4.53,0.0,0.0,0.0,0.0,0.0,0.0,0.0,0.0,0.0,0.0,0.0,0.0,0.0,-4.9407,-4.9018,-4.9357,-5.0084,-5.12,-5.1928,-5.2503,-5.2926,-5.3315,-5.3501,-5.3501,-5.3501,-5.3501,-5.3501,-5.3501,-5.3501,-5.3501,-5.3501,0.0,-5.3501,-5.3501,-5.3501,-5.3501,-5.3501,-5.3501,-5.3501,-5.3501,-5.3501,-5.3501,-5.3501,-5.3501,-5.3501,-5.3416,-5.328,-5.3195,-5.3127,-5.2903,-5.2764,-5.2764,-5.257,-5.2214,-5.1359,-5.0461,-4.9583,-4.8805,-4.8207,-4.7908,-4.8252,-4.8835,-4.9389,-4.9718,-5.0301,-5.075,-5.075,-5.1005,-5.1214,-5.1214,-5.1214,-5.1572,-5.2695,-5.3773,-5.4605,-5.5035,-5.6018,-5.6844,-5.7273,-5.7289,-5.7289,-5.7289,-5.7214,-5.7139,-5.7139,-5.6987,-5.6834,-5.6834,-5.6757,-5.668,-5.668,-5.668,-5.668,-5.668,-5.668,-5.668,-4.275,-4.3475,-4.4044,-4.4044,-4.3475,-4.3147,-4.4061,-4.3749,0.0,0.0,-4.5423,-4.5423,-4.5423,0.0,-4.5423,0.0,-4.5958,-4.6023,0.0,0.0,0.0,0.0,0.0,0.0,0.0,0.0,0.0,0.0,0.0,0.0,-4.9509,-5.0168,-5.1099,-5.2266,-5.2469,-5.2858,-5.3501,-5.3501,-5.3501,-5.3501,-5.3501,-5.3501,-5.3501,-5.3501,-5.3501,-5.3501,-5.3501,0.0,0.0,-5.3501,-5.3501,-5.3501,-5.3501,-5.3501,-5.3501,-5.3501,-5.3501,-5.3501,-5.3501,-5.3501,-5.3501,-5.3501,-5.3501,-5.3501,-5.3332,-5.311,-5.2903,-5.2903,-5.264,-5.2142,-5.1102,-5.0384,-4.971,-4.8826,-4.8733,-4.8907,-4.9419,-4.9883,-5.0272,-5.0421,-5.1041,-5.1479,-5.1214,-5.1386,-5.1386,-5.1214,-5.1214,-5.165,-5.3051,-5.403,-5.492,-5.578,-5.6861,-5.7439,-5.7439,-5.7439,-5.7439,-5.7439,-5.7364,-5.7364,-5.7289,-5.7139,-5.6987,-5.6911,-5.6757,-5.668,-5.668,-5.668,-5.668,-5.668,-5.668,-5.668,-4.2078,-4.2664,-4.3318,-4.3318,-4.2681,-4.2475,-4.394,0.0,-4.3595,-4.5113,-4.5423,-4.5423,-4.5423,0.0,0.0,0.0,0.0,-4.544,-4.5194,0.0,0.0,0.0,0.0,0.0,0.0,0.0,0.0,0.0,0.0,0.0,-5.1014,-5.1708,-5.2164,-5.23,-5.301,-5.3433,-5.3501,-5.3501,-5.3501,-5.3501,-5.3501,-5.3501,-5.3501,-5.3501,-5.3501,-5.3501,-5.3501,0.0,0.0,-5.3501,-5.3501,-5.3501,-5.3501,-5.3501,-5.3501,-5.3501,-5.3501,-5.3501,-5.3501,-5.3501,-5.3501,-5.3501,-5.3501,-5.3501,-5.3501,-5.3195,-5.2903,-5.2903,-5.264,-5.2053,-5.0368,-5.0073,-4.9867,-4.8865,-4.9489,-5.0304,-5.017,-5.0197,-5.0406,-5.1005,-5.1865,-5.217,-5.1401,-5.1911,-5.217,-5.1308,-5.1214,-5.1819,-5.3632,-5.4285,-5.5182,-5.6724,-5.7439,-5.7808,-5.7808,-5.7808,-5.7808,-5.7808,-5.7662,-5.7514,-5.7289,-5.7139,-5.6911,-5.6757,-5.668,-5.668,-5.668,-5.668,-5.668,-5.668,-5.668,-5.668,-4.1919,-4.2216,-4.2457,-4.2457,-4.2216,-4.2268,-4.3421,0.0,-4.3595,-4.5113,-4.5423,-4.5423,-4.5423,-4.5423,-4.5423,-4.5423,-4.582,0.0,-4.59,-4.6275,-4.685,0.0,0.0,0.0,0.0,0.0,0.0,0.0,0.0,0.0,-5.257,-5.2401,-5.252,-5.301,-5.3331,-5.3501,-5.3501,-5.3501,-5.3501,-5.3501,-5.3501,-5.3501,-5.3501,-5.3501,-5.3501,-5.3501,-5.3501,0.0,0.0,-5.3501,-5.3501,-5.3501,-5.3501,-5.3501,-5.3501,-5.3501,-5.3501,-5.3501,-5.3501,-5.3501,-5.3501,-5.3501,-5.3501,-5.3501,-5.3501,-5.328,-5.3041,-5.2903,-5.2711,-5.2109,-5.0477,-4.9606,-4.9466,-5.0355,-5.0479,-5.0427,-5.0768,-5.0825,-5.09,-5.1169,-5.2002,-5.2336,-5.1386,-5.2002,-5.226,-5.1308,-5.1214,-5.1911,-5.3961,-5.4437,-5.5345,-5.7181,-5.7662,-5.7881,-5.7735,-5.7735,-5.7735,-5.7881,-5.7735,-5.7588,-5.7514,-5.7289,-5.7063,-5.6911,-5.6757,-5.668,-5.668,-5.668,-5.668,-5.668,-5.668,-5.668,-4.167,-4.1712,-4.1647,-4.1647,-4.1647,-4.1923,0.0,0.0,-4.3595,-4.5113,-4.5423,-4.5423,-4.5423,-4.5423,-4.5423,-4.5423,-4.5906,-4.6266,-4.6313,-4.6845,-4.7472,0.0,0.0,0.0,0.0,0.0,0.0,0.0,0.0,0.0,-5.3467,-5.2959,-5.2909,-5.3484,-5.3501,-5.3501,-5.3501,-5.3501,-5.3501,-5.3501,-5.3501,-5.3501,-5.3501,-5.3501,-5.3501,-5.3501,-5.3501,0.0,0.0,-5.3501,-5.3501,-5.3501,-5.3501,-5.3501,-5.3501,-5.3501,-5.3501,-5.3501,-5.3501,-5.3501,-5.3501,-5.3501,-5.3501,-5.3501,-5.3501,-5.3348,-5.3179,-5.3041,-5.2844,-5.2406,-5.135,-5.0492,-5.0319,-5.1676,-5.1478,-5.0999,-5.1109,-5.1214,-5.1214,-5.1214,-5.2002,-5.2441,-5.1386,-5.1987,-5.2441,-5.1479,-5.1479,-5.2245,-5.4046,-5.4688,-5.5587,-5.7273,-5.7735,-5.7808,-5.7735,-5.7662,-5.7662,-5.7808,-5.7588,-5.7514,-5.7439,-5.7289,-5.7139,-5.6911,-5.6757,-5.668,-5.668,-5.668,-5.668,-5.668,-5.668,-5.6796,-4.1233,-4.1,-4.0888,-4.0888,-4.0888,-4.1285,0.0,0.0,-4.3595,-4.5113,-4.5423,-4.5423,-4.5423,-4.5423,-4.5423,-4.5423,-4.5441,-4.5629,-4.6244,-4.6453,0.0,0.0,0.0,0.0,0.0,0.0,0.0,0.0,0.0,0.0,-5.3501,-5.3501,-5.3501,-5.3501,-5.3501,-5.3501,-5.3501,-5.3501,-5.3501,-5.3501,-5.3501,-5.3501,-5.3501,-5.3501,-5.3501,0.0,0.0,0.0,0.0,-5.3501,-5.3501,-5.3501,-5.3501,-5.3501,-5.3501,-5.3501,-5.3501,-5.3501,-5.3501,-5.3501,-5.3501,-5.3501,-5.3501,-5.3501,-5.3501,-5.3348,-5.3179,-5.3179,-5.3019,-5.2819,-5.3,-5.3159,-5.3069,-5.2457,-5.2467,-5.2336,-5.1386,-5.1214,-5.1214,-5.1214,-5.2185,-5.2621,-5.1386,-5.2185,-5.2711,-5.1757,-5.217,-5.3035,-5.4163,-5.5198,-5.6159,-5.6894,-5.7514,-5.7881,-5.7881,-5.7735,-5.7588,-5.7588,-5.7439,-5.7214,-5.6987,-5.6987,-5.6911,-5.6697,-5.668,-5.668,-5.668,-5.668,-5.668,-5.668,-5.668,-5.7077,-4.177,-4.1552,-4.1373,-4.1123,-4.138,-4.1905,-4.299,0.0,0.0,-4.5216,-4.5423,-4.5423,-4.5423,-4.5423,-4.5423,-4.5423,-4.5423,-4.5818,-4.7093,0.0,0.0,0.0,0.0,0.0,0.0,0.0,0.0,0.0,0.0,0.0,-5.3501,-5.3501,-5.3501,-5.3501,-5.3501,-5.3501,-5.3501,-5.3501,-5.3501,-5.3501,-5.3501,-5.3501,-5.3501,-5.3501,-5.3501,0.0,0.0,0.0,0.0,-5.3501,-5.3501,-5.3501,-5.3501,-5.3501,-5.3501,-5.3501,-5.3501,-5.3501,-5.3501,-5.3501,-5.3501,-5.3501,-5.3501,-5.3501,-5.3501,-5.3433,-5.3348,-5.3264,-5.3123,-5.3263,-5.4378,-5.4153,-5.3922,-5.4567,-5.4278,-5.3443,-5.2426,-5.226,-5.2351,-5.217,-5.2606,-5.2785,-5.226,-5.2426,-5.2441,-5.1479,-5.2094,-5.3035,-5.4131,-5.5264,-5.6253,-5.7122,-5.7514,-5.7662,-5.7514,-5.7439,-5.7364,-5.7364,-5.7214,-5.7063,-5.6987,-5.6987,-5.6911,-5.668,-5.668,-5.668,-5.668,-5.668,-5.6945,-5.7458,-5.7972,-5.832,0.0,-4.1839,-4.1578,-4.1215,-4.1553,0.0,0.0,0.0,0.0,0.0,-4.5423,-4.5423,-4.5423,-4.5423,-4.5423,-4.5423,-4.5423,-4.5872,-4.7131,0.0,0.0,0.0,0.0,0.0,0.0,0.0,0.0,0.0,0.0,0.0,-5.3501,-5.3501,-5.3501,-5.3501,-5.3501,-5.3501,-5.3501,-5.3501,-5.3501,-5.3501,-5.3501,-5.3501,-5.3501,-5.3501,-5.3501,0.0,0.0,0.0,0.0,-5.3501,-5.3501,-5.3501,-5.3501,-5.3501,-5.3501,-5.3501,-5.3501,-5.3501,-5.3501,-5.3501,-5.3501,-5.3501,-5.3501,-5.3501,-5.3501,-5.3501,-5.3551,-5.3686,-5.3911,-5.4362,-5.5619,-5.5355,-5.5017,-5.5775,-5.5166,-5.4115,-5.3356,-5.3284,-5.3299,-5.3124,-5.3051,-5.2874,-5.2695,-5.2426,-5.217,-5.1911,-5.2606,-5.3545,-5.4653,-5.57,-5.652,-5.7122,-5.7364,-5.7439,-5.7214,-5.7214,-5.7214,-5.7214,-5.6987,-5.6911,-5.6911,-5.6911,-5.6834,-5.668,-5.668,-5.668,-5.668,-5.6962,-5.7492,-5.822,-5.8966,-5.9314,0.0,-4.1931,-4.1666,-4.129,0.0,0.0,0.0,0.0,0.0,0.0,0.0,-4.5423,-4.5423,-4.5423,-4.5423,-4.5423,-4.5423,-4.5717,-4.6562,-4.6769,0.0,0.0,0.0,0.0,0.0,0.0,0.0,0.0,0.0,0.0,-5.3501,-5.3501,-5.3501,-5.3501,-5.3501,-5.3501,-5.3501,-5.3501,-5.3501,-5.3501,-5.3501,-5.3501,-5.3501,-5.3501,-5.3501,0.0,0.0,0.0,0.0,-5.3501,-5.3501,-5.3501,-5.3501,-5.3501,-5.3501,-5.3501,-5.3501,-5.3501,-5.3501,-5.3501,-5.3501,-5.3501,-5.3501,-5.3501,-5.3501,-5.3501,-5.3653,-5.438,-5.5141,-5.5886,-5.6613,-5.6579,-5.6282,-5.6282,-5.541,-5.4453,-5.4453,-5.4216,-5.4163,-5.4062,-5.3561,-5.3051,-5.2769,-5.2094,-5.1926,-5.2874,-5.3561,-5.4417,-5.5539,-5.643,-5.6987,-5.6987,-5.7139,-5.7214,-5.6987,-5.6987,-5.6987,-5.6987,-5.6834,-5.668,-5.668,-5.668,-5.668,-5.668,-5.668,-5.6713,-5.6763,-5.7508,-5.8253,-5.8999,-5.9728,-6.0075,-4.3248,0.0,-4.2284,-4.218,-4.2615,-4.3169,0.0,0.0,0.0,0.0,0.0,-4.5423,-4.5423,-4.5423,-4.5423,-4.5423,-4.5423,-4.5906,-4.7269,0.0,0.0,0.0,0.0,0.0,0.0,0.0,0.0,0.0,0.0,-5.3501,-5.3501,-5.3501,-5.3501,-5.3501,-5.3501,-5.3501,-5.3501,-5.3501,-5.3501,-5.3501,-5.3501,-5.3501,-5.3501,-5.3501,-5.3501,0.0,0.0,0.0,-5.3501,-5.3501,-5.3501,-5.3501,-5.3501,-5.3501,-5.3501,-5.3501,-5.3501,-5.3501,-5.3501,-5.3501,-5.3501,-5.3501,-5.3501,-5.3501,-5.3501,-5.3501,-5.3653,-5.438,-5.5141,-5.5886,-5.6613,-5.7178,-5.7463,-5.7314,-5.692,-5.6364,-5.5523,-5.5328,-5.5263,-5.5067,-5.4485,-5.3907,-5.3734,-5.2947,-5.2441,-5.2695,-5.3474,-5.4317,-5.5231,-5.6319,-5.6911,-5.6774,-5.6987,-5.6987,-5.6757,-5.6911,-5.6911,-5.6757,-5.6774,-5.668,-5.668,-5.668,-5.668,-5.668,-5.668,-5.6962,-5.7541,-5.827,-5.9015,-5.9761,-6.0506,-6.0854,-4.3726,-4.3087,-4.2483,-4.2483,-4.2917,-4.3395,0.0,0.0,0.0,0.0,0.0,0.0,-4.5423,0.0,0.0,-4.5423,-4.5423,-4.5837,0.0,0.0,0.0,0.0,0.0,0.0,0.0,0.0,0.0,0.0,0.0,-5.3501,-5.3501,-5.3501,-5.3501,-5.3501,-5.3501,-5.3501,-5.3501,-5.3501,-5.3501,-5.3501,-5.3501,-5.3501,-5.3501,-5.3501,-5.3501,0.0,0.0,0.0,-5.3501,-5.3501,-5.3501,-5.3501,-5.3501,-5.3501,-5.3501,-5.3501,-5.3501,-5.3501,-5.3501,-5.3501,-5.3501,-5.3501,-5.3501,-5.3501,-5.3501,-5.3737,-5.416,-5.4905,-5.5649,-5.6376,-5.7103,-5.7594,-5.7881,-5.7735,-5.7588,-5.7273,-5.652,-5.6319,-5.6257,-5.5988,-5.5312,-5.4736,-5.4653,-5.3875,-5.3371,-5.3789,-5.4301,-5.4902,-5.5829,-5.6492,-5.6834,-5.668,-5.6757,-5.6834,-5.668,-5.6834,-5.6834,-5.6697,-5.668,-5.668,-5.668,-5.668,-5.668,-5.668,-5.668,-5.7227,-5.8303,-5.8701,-5.9446,-6.0523,-6.092,-6.1102,-4.3974,-4.3248,-4.2523,-4.2657,-4.2944,-4.3346,0.0,0.0,0.0,0.0,0.0,0.0,0.0,0.0,0.0,0.0,0.0,0.0,0.0,0.0,0.0,0.0,0.0,0.0,0.0,0.0,0.0,0.0,0.0,-5.3501,-5.3501,-5.3501,-5.3501,-5.3501,-5.3501,-5.3501,-5.3501,-5.3501,-5.3501,-5.3501,-5.3501,-5.3501,-5.3501,-5.3501,-5.3501,-5.3501,0.0,0.0,-5.3501,-5.3501,-5.3501,-5.3501,-5.3501,-5.3501,-5.3501,-5.3501,-5.3501,-5.3501,-5.3501,-5.3501,-5.3501,-5.3501,-5.3501,-5.3518,-5.3636,-5.4177,-5.4921,-5.5666,-5.6325,-5.6968,-5.7695,-5.7881,-5.7881,-5.7881,-5.7735,-5.7588,-5.7364,-5.7139,-5.6987,-5.6757,-5.6083,-5.5474,-5.5296,-5.4736,-5.4485,-5.5215,-5.5296,-5.5652,-5.6603,-5.668,-5.668,-5.668,-5.668,-5.668,-5.668,-5.668,-5.668,-5.668,-5.668,-5.668,-5.668,-5.668,-5.668,-5.668,-5.6796,-5.7525,-5.8899,-5.9015,-5.9777,-6.1102,-6.1102,-6.1102,-4.3929,-4.3231,-4.2696,-4.3444,-4.3459,-4.3541,0.0,0.0,0.0,0.0,0.0,0.0,0.0,0.0,0.0,0.0,0.0,0.0,0.0,0.0,0.0,0.0,0.0,0.0,0.0,0.0,0.0,0.0,0.0,-5.3501,-5.3501,-5.3501,-5.3501,-5.3501,-5.3501,-5.3501,-5.3501,-5.3501,-5.3501,-5.3501,-5.3501,-5.3501,-5.3501,-5.3501,-5.3501,-5.3501,0.0,-5.3501,-5.3501,-5.3501,-5.3501,-5.3501,-5.3501,-5.3501,-5.3501,-5.3501,-5.3501,-5.3501,-5.3501,-5.3501,-5.3501,-5.3501,-5.3501,-5.3619,-5.4228,-5.4955,-5.57,-5.6427,-5.6714,-5.6968,-5.7695,-5.7881,-5.7881,-5.7881,-5.7735,-5.7588,-5.7588,-5.7289,-5.6987,-5.6987,-5.6663,-5.6241,-5.5474,-5.5215,-5.5133,-5.5296,-5.5296,-5.5652,-5.6603,-5.668,-5.668,-5.668,-5.668,-5.668,-5.668,-5.668,-5.668,-5.668,-5.668,-5.668,-5.668,-5.668,-5.668,-5.668,-5.7293,-5.8038,-5.8899,-5.9529,-6.0274,-6.1102,-6.1102,-6.1102,-4.3929,-4.3195,-4.2657,-4.3232,-4.2995,0.0,0.0,0.0,0.0,0.0,0.0,0.0,0.0,0.0,0.0,0.0,0.0,0.0,0.0,0.0,0.0,0.0,0.0,0.0,0.0,0.0,0.0,0.0,0.0,0.0,-5.3501,-5.3501,-5.3501,-5.3501,-5.3501,-5.3501,-5.3501,-5.3501,-5.3501,-5.3501,-5.3501,-5.3501,-5.3501,-5.3501,-5.3501,-5.3501,0.0,-5.3501,-5.3501,-5.3501,-5.3501,-5.3501,-5.3501,-5.3501,-5.3501,-5.3501,-5.3501,-5.3501,-5.3501,-5.3501,-5.3501,-5.3501,-5.3771,-5.416,-5.4482,-5.5395,-5.6376,-5.6714,-5.7087,-5.7459,-5.7797,-5.7881,-5.7881,-5.7881,-5.7808,-5.7735,-5.7588,-5.7364,-5.7139,-5.6987,-5.6834,-5.6586,-5.6162,-5.6083,-5.6083,-5.6083,-5.6083,-5.6241,-5.6603,-5.668,-5.668,-5.668,-5.668,-5.668,-5.668,-5.668,-5.668,-5.668,-5.668,-5.668,-5.668,-5.668,-5.6879,-5.7276,-5.7624,-5.8353,-5.9496,-5.9827,-6.039,-6.1102,-6.1102,-6.1102,-4.3897,-4.3266,-4.2678,0.0,0.0,0.0,0.0,0.0,0.0,0.0,0.0,0.0,0.0,0.0,0.0,0.0,0.0,0.0,0.0,0.0,0.0,0.0,0.0,0.0,0.0,0.0,0.0,0.0,0.0,0.0,-5.3501,-5.3501,-5.3501,-5.3501,-5.3501,-5.3501,-5.3501,-5.3501,-5.3501,-5.3501,-5.3501,-5.3501,-5.3501,-5.3501,-5.3501,-5.3501,-5.3501,-5.3501,-5.3501,-5.3501,-5.3501,-5.3501,-5.3501,-5.3501,-5.3501,-5.3501,-5.3501,-5.3501,-5.3501,-5.3501,-5.3534,-5.3704,-5.4143,-5.4651,-5.5006,-5.5902,-5.685,-5.7002,-5.7459,-5.7881,-5.7881,-5.7881,-5.7881,-5.7881,-5.7881,-5.7881,-5.7735,-5.7514,-5.7289,-5.7139,-5.6834,-5.668,-5.668,-5.668,-5.668,-5.668,-5.668,-5.668,-5.668,-5.668,-5.668,-5.668,-5.668,-5.668,-5.668,-5.668,-5.668,-5.668,-5.668,-5.668,-5.668,-5.6862,-5.721,-5.7773,-5.8138,-5.8866,-6.0009,-6.0175,-6.0556,-6.1102,-6.1102,-6.1102,-4.3851,-4.3442,-4.2941,0.0,0.0,0.0,0.0,0.0,0.0,0.0,0.0,0.0,0.0,0.0,0.0,0.0,0.0,0.0,0.0,0.0,0.0,0.0,0.0,0.0,0.0,0.0,0.0,0.0,0.0,0.0,-5.3467,-5.3501,-5.3501,-5.3501,-5.3501,-5.3501,-5.3501,-5.3501,-5.3501,-5.3501,-5.3501,-5.3501,-5.3501,-5.3501,-5.3501,-5.3501,-5.3501,-5.3501,-5.3501,-5.3501,-5.3501,-5.3501,-5.3501,-5.3501,-5.3501,-5.3501,-5.3501,-5.3501,-5.3501,-5.3501,-5.3619,-5.4296,-5.4549,-5.4854,-5.6224,-5.6714,-5.6934,-5.7628,-5.7848,-5.7881,-5.7881,-5.7881,-5.7881,-5.7881,-5.7881,-5.7898,-5.7881,-5.7588,-5.7289,-5.7289,-5.6987,-5.668,-5.668,-5.668,-5.668,-5.668,-5.668,-5.668,-5.668,-5.668,-5.668,-5.668,-5.668,-5.668,-5.668,-5.668,-5.668,-5.668,-5.668,-5.668,-5.668,-5.7342,-5.774,-5.779,-5.9148,-5.9893,-6.0009,-6.0705,-6.1053,-6.1102,-6.1102,-6.1102,-4.3837,-4.3213,-4.2544,0.0,0.0,0.0,0.0,0.0,0.0,0.0,0.0,0.0,0.0,0.0,0.0,0.0,0.0,0.0,0.0,0.0,0.0,0.0,0.0,0.0,0.0,0.0,0.0,0.0,0.0,0.0,-5.3467,-5.3501,-5.3501,-5.3501,-5.3501,-5.3501,-5.3501,-5.3501,-5.3501,-5.3501,-5.3501,-5.3501,-5.3501,-5.3501,-5.3501,-5.3501,-5.3501,-5.3501,-5.3501,-5.3501,-5.3501,-5.3501,-5.3501,-5.3501,-5.3501,-5.3501,-5.3501,-5.3568,-5.4025,-5.4177,-5.4313,-5.504,-5.5598,-5.6072,-5.663,-5.712,-5.7526,-5.7814,-5.7881,-5.7881,-5.7881,-5.7881,-5.7881,-5.7881,-5.7881,-5.7881,-5.7881,-5.7662,-5.7439,-5.7289,-5.7063,-5.6834,-5.668,-5.668,-5.668,-5.668,-5.668,-5.6862,-5.7326,-5.7376,-5.7558,-5.8005,-5.7657,-5.7193,-5.673,-5.668,-5.6879,-5.7342,-5.7376,-5.7376,-5.7376,-5.8088,-5.8701,-5.9164,-5.9728,-6.0009,-6.0009,-6.0755,-6.087,-6.044,-6.0887,-6.1102,-4.3582,-4.294,-4.2226,0.0,0.0,0.0,0.0,0.0,0.0,0.0,0.0,0.0,0.0,0.0,0.0,0.0,0.0,0.0,0.0,0.0,0.0,0.0,0.0,0.0,0.0,0.0,0.0,0.0,0.0,0.0,0.0,-5.3365,-5.3501,-5.3501,-5.3501,-5.3501,-5.3501,-5.3501,-5.3501,-5.3501,-5.3501,-5.3501,-5.3501,-5.3501,-5.3501,-5.3501,-5.3501,-5.3501,-5.3501,-5.3501,-5.3501,-5.3501,-5.3501,-5.3501,-5.3501,-5.3501,-5.3653,-5.3923,-5.4414,-5.4752,-5.5074,-5.5818,-5.6393,-5.685,-5.707,-5.7492,-5.7881,-5.7881,-5.7881,-5.7881,-5.7881,-5.7881,-5.7881,-5.7881,-5.7881,-5.7881,-5.7881,-5.7735,-5.7588,-5.7439,-5.7214,-5.6987,-5.6834,-5.6757,-5.668,-5.668,-5.6895,-5.7227,-5.7723,-5.7988,-5.8336,-5.885,-5.8436,-5.7939,-5.7425,-5.7376,-5.7608,-5.8104,-5.8369,-5.8287,-5.7806,-5.8502,-5.9131,-5.9645,-5.9877,-6.0009,-6.0009,-6.0506,-6.049,-6.0026,-6.0771,-6.1102,-4.3051,-4.2657,0.0,0.0,0.0,0.0,0.0,0.0,0.0,0.0,0.0,0.0,0.0,0.0,0.0,0.0,0.0,0.0,0.0,0.0,0.0,0.0,0.0,0.0,0.0,0.0,0.0,0.0,0.0,0.0,0.0,-5.3061,-5.3501,-5.3501,-5.3501,-5.3501,-5.3501,-5.3501,-5.3501,-5.3501,-5.3501,-5.3501,-5.3501,-5.3501,-5.3501,-5.3501,-5.3501,-5.3501,-5.3501,-5.3501,-5.3501,-5.3501,-5.3501,-5.3501,-5.3501,-5.3501,-5.3957,-5.4583,-5.46,-5.5091,-5.5852,-5.6579,-5.6816,-5.6951,-5.7679,-5.7881,-5.7881,-5.7881,-5.7881,-5.7881,-5.7881,-5.7881,-5.7881,-5.7881,-5.7881,-5.7881,-5.7881,-5.7735,-5.7588,-5.7588,-5.7289,-5.6987,-5.6987,-5.6834,-5.668,-5.6697,-5.7326,-5.7806,-5.7806,-5.8452,-5.8916,-5.8916,-5.8916,-5.8899,-5.8899,-5.8899,-5.8899,-5.8899,-5.9579,-5.933,-5.7873,-5.8518,-5.8916,-5.8916,-5.9628,-5.9993,-5.9993,-5.9993,-6.0009,-6.0009,-6.0755,-6.1102,-4.3105,0.0,0.0,0.0,0.0,0.0,0.0,0.0,0.0,0.0,0.0,0.0,0.0,0.0,0.0,0.0,0.0,0.0,0.0,0.0,0.0,0.0,0.0,0.0,0.0,0.0,0.0,0.0,0.0,0.0,0.0,-5.3061,-5.3501,-5.3501,-5.3501,-5.3501,-5.3501,-5.3501,-5.3501,-5.3501,-5.3501,-5.3501,-5.3501,-5.3501,-5.3501,-5.3501,-5.3501,-5.3501,-5.3501,-5.3501,-5.3501,-5.3501,-5.3501,-5.3501,-5.3501,-5.3501,-5.3957,-5.4668,-5.5192,-5.5869,-5.6613,-5.7323,-5.756,-5.7594,-5.7814,-5.7881,-5.7881,-5.7881,-5.7881,-5.7881,-5.7881,-5.7881,-5.7881,-5.7881,-5.7881,-5.7881,-5.7881,-5.7881,-5.7735,-5.7662,-5.7364,-5.7139,-5.6987,-5.6834,-5.6862,-5.7392,-5.7657,-5.8171,-5.9214,-5.9993,-6.0258,-5.9728,-5.9678,-5.9463,-5.8933,-5.8899,-5.8899,-5.8899,-5.8618,-5.8717,-5.9314,-6.0059,-6.0208,-5.9678,-5.9893,-5.9496,-5.8452,-5.9496,-5.9728,-5.9264,-6.0523,-6.1102,-4.2541,0.0,0.0,0.0,0.0,0.0,0.0,0.0,0.0,0.0,0.0,0.0,0.0,0.0,0.0,0.0,0.0,0.0,0.0,0.0,0.0,0.0,0.0,0.0,0.0,0.0,0.0,0.0,0.0,0.0,0.0,-5.2909,-5.3501,-5.3501,-5.3501,-5.3501,-5.3501,-5.3501,-5.3501,-5.3501,-5.3501,-5.3501,-5.3501,-5.3501,-5.3501,-5.3501,-5.3501,-5.3501,-5.3501,-5.3501,-5.3501,-5.3501,-5.3501,-5.3501,-5.3551,-5.3822,-5.4397,-5.5141,-5.5886,-5.663,-5.7306,-5.7746,-5.7881,-5.7881,-5.7881,-5.7881,-5.7881,-5.7881,-5.7881,-5.7881,-5.7881,-5.7881,-5.7881,-5.7881,-5.7881,-5.7881,-5.7881,-5.7881,-5.7808,-5.7662,-5.7439,-5.7214,-5.7063,-5.6834,-5.6945,-5.7674,-5.8303,-5.9098,-6.0291,-6.0837,-6.0937,-6.049,-6.044,-6.0258,-5.981,-5.9512,-5.9463,-5.9761,-5.9082,-5.9065,-5.996,-5.986,-5.9728,-5.9562,-5.928,-5.8833,-5.8237,-5.9131,-5.9496,-5.9363,-6.0556,-6.1102,0.0,0.0,0.0,0.0,0.0,0.0,0.0,0.0,0.0,0.0,0.0,0.0,0.0,0.0,0.0,0.0,0.0,0.0,0.0,0.0,0.0,0.0,0.0,0.0,0.0,0.0,0.0,0.0,0.0,0.0,0.0,-5.2672,-5.3501,-5.3501,-5.3501,-5.3501,-5.3501,-5.3501,-5.3501,-5.3501,-5.3501,-5.3501,-5.3501,-5.3501,-5.3501,-5.3501,-5.3501,-5.3501,-5.3501,-5.3501,-5.3501,-5.3501,-5.3501,-5.3501,-5.3602,-5.4329,-5.5074,-5.5818,-5.6545,-5.7273,-5.7881,-5.7881,-5.7881,-5.7881,-5.7881,-5.7881,-5.7881,-5.7881,-5.7881,-5.7881,-5.7881,-5.7881,-5.7881,-5.7881,-5.7881,-5.7881,-5.7898,-5.7881,-5.7808,-5.7662,-5.7439,-5.7214,-5.7063,-5.69,-5.7061,-5.7873,-5.9198,-6.034,-6.102,-6.1102,-6.1102,-6.1102,-6.1102,-6.1102,-6.1102,-6.0423,-6.0258,-6.087,-6.0208,-5.9794,-5.9794,-5.8634,-5.8253,-5.8784,-5.8204,-5.8187,-5.88,-5.8933,-5.9347,-6.0026,-6.0771,-6.1102,0.0,0.0,0.0,0.0,0.0,0.0,0.0,0.0,0.0,0.0,0.0,0.0,0.0,0.0,0.0,0.0,0.0,0.0,0.0,0.0,0.0,0.0,0.0,0.0,0.0,0.0,0.0,0.0,0.0,0.0,-5.1217,-5.2672,-5.3501,-5.3501,-5.3501,-5.3501,-5.3501,-5.3501,-5.3501,0.0,-5.3501,-5.3501,-5.3501,-5.3501,-5.3501,-5.3501,-5.3501,-5.3501,-5.3501,-5.3501,-5.3501,-5.3501,-5.3501,-5.3501,-5.3602,-5.4329,-5.5074,-5.5818,-5.6545,-5.7273,-5.7881,-5.7881,-5.7881,-5.7881,-5.7881,-5.7881,-5.7881,-5.7881,-5.7881,-5.7881,-5.7881,-5.7881,-5.7881,-5.7881,-5.7808,-5.7735,-5.7898,-5.7808,-5.7662,-5.7588,-5.7439,-5.7214,-5.7063,-5.7316,-5.8005,-5.933,-6.0291,-6.0937,-6.1086,-6.1102,-6.1102,-6.1102,-6.1102,-6.1102,-6.1102,-6.0423,-5.9827,-5.9396,-5.8684,-5.827,-5.827,-5.9082,-5.9065,-5.8055,-5.8436,-5.8452,-5.8038,-5.9198,-5.9844,-6.0026,-6.0771,-6.1102,0.0,0.0,0.0,0.0,0.0,0.0,0.0,0.0,0.0,0.0,0.0,0.0,0.0,0.0,0.0,0.0,0.0,0.0,0.0,0.0,0.0,0.0,0.0,0.0,0.0,0.0,0.0,0.0,0.0,-5.1217,-5.1217,-5.2672,-5.3501,-5.3501,-5.3501,-5.3501,-5.3501,-5.3501,-5.3501,-5.3501,-5.3501,-5.3501,-5.3501,-5.3501,-5.3501,-5.3501,-5.3501,-5.3501,-5.3501,-5.3501,-5.3501,-5.3501,-5.3501,-5.3501,-5.3636,-5.4718,-5.5378,-5.5869,-5.6951,-5.7577,-5.7881,-5.7881,-5.7881,-5.7881,-5.7881,-5.7881,-5.7881,-5.7881,-5.7881,-5.7881,-5.7881,-5.7881,-5.7881,-5.7881,-5.7735,-5.7662,-5.7881,-5.7735,-5.7588,-5.7588,-5.7439,-5.7214,-5.7063,-5.7747,-5.8701,-5.9827,-6.0639,-6.1102,-6.1102,-6.1102,-6.1102,-6.1102,-6.1102,-6.097,-6.0605,-5.9893,-5.9314,-5.8916,-5.8204,-5.779,-5.779,-5.8883,-5.9115,-5.8336,-5.8353,-5.8535,-5.885,-5.9628,-6.0191,-6.0539,-6.0937,-6.1102,0.0,0.0,0.0,0.0,0.0,0.0,0.0,0.0,0.0,0.0,0.0,0.0,0.0,0.0,0.0,0.0,0.0,0.0,0.0,0.0,0.0,0.0,0.0,0.0,0.0,0.0,0.0,0.0,0.0,-5.1082,-5.1217,-5.2536,-5.3365,-5.3501,-5.3501,-5.3501,-5.3501,-5.3501,-5.3501,-5.3501,-5.3501,-5.3501,-5.3501,-5.3501,-5.3501,-5.3501,-5.3501,-5.3501,-5.3501,-5.3501,-5.3501,-5.3501,-5.3501,-5.3585,-5.3856,-5.5209,-5.5801,-5.6089,-5.7425,-5.7881,-5.7881,-5.7881,-5.7881,-5.7881,-5.7881,-5.7881,-5.7881,-5.7881,-5.7881,-5.7881,-5.7881,-5.7881,-5.7881,-5.7881,-5.7735,-5.7588,-5.7808,-5.7662,-5.7514,-5.7514,-5.7364,-5.7222,-5.732,-5.8246,-5.9198,-6.0059,-6.0721,-6.1102,-6.1102,-6.1102,-6.1102,-6.1102,-6.1102,-6.0804,-6.0059,-5.9314,-5.885,-5.8717,-5.8005,-5.7657,-5.779,-5.8386,-5.8833,-5.9082,-5.8485,-5.8784,-6.0009,-6.0125,-6.0506,-6.1102,-6.1102,-6.1102,0.0,0.0,0.0,0.0,0.0,0.0,0.0,0.0,0.0,0.0,0.0,0.0,0.0,0.0,0.0,0.0,0.0,0.0,0.0,0.0,0.0,0.0,0.0,0.0,0.0,0.0,0.0,0.0,-4.9763,-5.0524,-5.1183,-5.2012,-5.279,-5.3484,-5.3501,-5.3501,-5.3501,-5.3501,-5.3501,-5.3501,-5.3501,-5.3501,-5.3501,-5.3501,-5.3501,-5.3501,-5.3501,-5.3501,-5.3501,-5.3501,-5.3501,-5.3501,-5.3501,-5.389,-5.4549,-5.5395,-5.6105,-5.6782,-5.7594,-5.7881,-5.7881,-5.7881,-5.7881,-5.7881,-5.7881,-5.7881,-5.7881,-5.7881,-5.7881,-5.7881,-5.7881,-5.7881,-5.7881,-5.7881,-5.7588,-5.7364,-5.7588,-5.7364,-5.7063,-5.7063,-5.6911,-5.7172,-5.8465,-5.8767,-5.9363,-6.0755,-6.1053,-6.1102,-6.1102,-6.1102,-6.1102,-6.1102,-6.1102,-6.0804,-6.0059,-5.9314,-5.8634,-5.7988,-5.7243,-5.7127,-5.7757,-5.7889,-5.8552,-5.9827,-5.9761,-5.9794,-6.0009,-6.0655,-6.1003,-6.1102,-6.1102,-6.1102,0.0,0.0,0.0,0.0,0.0,0.0,0.0,0.0,0.0,0.0,0.0,0.0,0.0,0.0,0.0,0.0,0.0,0.0,0.0,0.0,0.0,0.0,0.0,0.0,0.0,0.0,0.0,0.0,-4.9678,-5.0422,-5.1166,-5.1911,-5.2672,-5.3484,-5.3501,-5.3501,-5.3501,-5.3501,-5.3501,-5.3501,-5.3501,-5.3501,-5.3501,-5.3501,-5.3501,-5.3501,-5.3501,-5.3501,-5.3501,-5.3501,-5.3501,-5.3501,-5.3501,-5.3704,-5.4126,-5.5294,-5.5919,-5.6359,-5.7492,-5.7881,-5.7881,-5.7881,-5.7881,-5.7881,-5.7881,-5.7881,-5.7881,-5.7881,-5.7881,-5.7881,-5.7881,-5.7881,-5.7881,-5.7881,-5.7588,-5.7289,-5.7439,-5.7214,-5.6987,-5.6987,-5.6987,-5.7453,-5.8714,-5.8899,-5.9396,-6.0887,-6.1102,-6.1102,-6.1102,-6.0755,-6.0655,-6.1069,-6.0374,-5.9744,-5.9413,-5.8701,-5.7972,-5.7227,-5.726,-5.7442,-5.7773,-5.8585,-5.9347,-5.9993,-6.0009,-6.0208,-6.0622,-6.0953,-6.1102,-6.1102,-6.1102,-6.1102,0.0,0.0,0.0,0.0,0.0,0.0,0.0,0.0,0.0,0.0,0.0,0.0,0.0,0.0,0.0,0.0,0.0,0.0,0.0,0.0,0.0,0.0,0.0,0.0,0.0,0.0,0.0,0.0,-4.9509,-5.0219,-5.1166,-5.1725,-5.2486,-5.3467,-5.3501,-5.3501,-5.3501,-5.3501,-5.3501,-5.3501,-5.3501,-5.3501,-5.3501,-5.3501,-5.3501,-5.3501,-5.3501,-5.3501,-5.3501,-5.3501,-5.3501,-5.3501,-5.3501,-5.3619,-5.394,-5.5243,-5.5835,-5.6173,-5.7442,-5.7881,-5.7881,-5.7881,-5.7881,-5.7881,-5.7881,-5.7881,-5.7881,-5.7881,-5.7881,-5.7881,-5.7881,-5.7881,-5.7881,-5.7881,-5.7662,-5.7364,-5.7214,-5.7063,-5.6911,-5.6911,-5.7063,-5.753,-5.8714,-5.8899,-5.9396,-6.0887,-6.1102,-6.1102,-6.1102,-6.0622,-6.049,-6.1053,-5.996,-5.9098,-5.8916,-5.822,-5.7558,-5.6995,-5.7492,-5.7972,-5.8336,-5.9413,-6.0092,-6.0291,-6.0291,-6.0556,-6.1102,-6.1102,-6.1102,-6.1102,-6.1102,-6.1102,0.0,0.0,0.0,0.0,0.0,0.0,0.0,0.0,0.0,0.0,0.0,0.0,0.0,0.0,0.0,0.0,0.0,0.0,0.0,0.0,0.0,0.0,0.0,0.0,0.0,0.0,0.0,0.0,-4.9035,-4.9695,-5.1133,-5.1251,-5.1961,-5.345,-5.3501,-5.3501,-5.3501,-5.3501,-5.3501,-5.3501,-5.3501,-5.3501,-5.3501,-5.3501,-5.3501,-5.3501,-5.3501,-5.3501,-5.3501,-5.3501,-5.3501,-5.3501,-5.3501,-5.3923,-5.4634,-5.5429,-5.6156,-5.685,-5.7628,-5.7881,-5.7881,-5.7881,-5.7881,-5.7881,-5.7881,-5.7881,-5.7881,-5.7881,-5.7881,-5.7881,-5.7881,-5.7881,-5.7881,-5.7881,-5.7735,-5.7439,-5.6834,-5.668,-5.668,-5.668,-5.668,-5.716,-5.8634,-5.8899,-5.9396,-6.0887,-6.1102,-6.1102,-6.1102,-6.1086,-6.1069,-6.1102,-6.0423,-5.9661,-5.8966,-5.822,-5.7773,-5.774,-5.7773,-5.8419,-5.9827,-5.996,-6.034,-6.1036,-6.1053,-6.1069,-6.1102,-6.1102,-6.1102,-6.1102,-6.1102,-6.1102,0.0,0.0,0.0,0.0,0.0,0.0,0.0,0.0,0.0,0.0,0.0,0.0,0.0,0.0,0.0,0.0,0.0,0.0,0.0,0.0,0.0,0.0,0.0,0.0,0.0,0.0,0.0,0.0,0.0,-4.9644,-5.1133,-5.1217,-5.1928,-5.345,-5.3501,-5.3501,-5.3501,-5.3501,-5.3501,-5.3501,-5.3501,-5.3501,-5.3501,-5.3501,-5.3501,-5.3501,-5.3501,-5.3501,-5.3501,-5.3501,-5.3501,-5.3501,-5.3501,-5.367,-5.4042,-5.526,-5.5886,-5.6275,-5.7476,-5.7881,-5.7881,-5.7881,-5.7881,-5.7881,-5.7881,-5.7881,-5.7881,-5.7881,-5.7881,-5.7881,-5.7881,-5.7881,-5.7881,-5.7735,-5.7588,-5.7289,-5.6987,-5.6911,-5.6834,-5.6774,-5.6834,-5.7316,-5.8634,-5.8899,-5.9396,-6.0887,-6.1102,-6.1102,-6.1102,-6.0705,-6.0589,-6.1053,-5.9595,-5.8668,-5.8883,-5.822,-5.779,-5.779,-5.8684,-5.9446,-5.9993,-6.0456,-6.0837,-6.1102,-6.1102,-6.1102,-6.1102,-6.1102,-6.1102,-6.1102,-6.1102,-6.1102,0.0,0.0,0.0,0.0,0.0,0.0,0.0,0.0,0.0,0.0,0.0,0.0,0.0,0.0,0.0,0.0,0.0,0.0,0.0,0.0,0.0,0.0,0.0,0.0,0.0,0.0,0.0,0.0,0.0,0.0,-5.0777,-5.1082,-5.1928,-5.345,-5.3501,-5.3501,-5.3501,-5.3501,-5.3501,-5.3501,-5.3501,-5.3501,-5.3501,-5.3501,-5.3501,-5.3501,-5.3501,-5.3501,-5.3501,-5.3501,-5.3501,-5.3501,-5.3501,-5.3501,-5.3687,-5.5175,-5.5716,-5.5919,-5.7391,-5.7881,-5.7881,-5.7881,-5.7881,-5.7881,-5.7881,-5.7881,-5.7881,-5.7881,-5.7881,-5.7881,-5.7881,-5.7881,-5.7898,-5.7735,-5.7514,-5.7289,-5.7139,-5.6987,-5.6834,-5.6774,-5.6834,-5.7316,-5.8634,-5.8899,-5.9396,-6.0887,-6.0904,-6.0738,-6.0738,-6.0307,-6.0092,-6.034,-5.9049,-5.8369,-5.885,-5.822,-5.8005,-5.8502,-5.9463,-6.0109,-6.0374,-6.0854,-6.1102,-6.1102,-6.1102,-6.1102,-6.1102,-6.1102,-6.1102,-6.1102,-6.1102,-6.1102,0.0,0.0,0.0,0.0,0.0,0.0,0.0,0.0,0.0,0.0,0.0,0.0,0.0,0.0,0.0,0.0,0.0,0.0,0.0,0.0,0.0,0.0,0.0,0.0,0.0,0.0,0.0,0.0,-4.9001,-4.9323,-5.005,-5.0828,-5.1944,-5.345,-5.3501,-5.3501,-5.3501,-5.3501,-5.3501,-5.3501,-5.3501,-5.3501,-5.3501,-5.3501,-5.3501,-5.3501,-5.3501,-5.3501,-5.3501,-5.3501,-5.3501,-5.3501,-5.3501,-5.3501,-5.3687,-5.5175,-5.5716,-5.5919,-5.7391,-5.7881,-5.7881,-5.7881,-5.7881,-5.7881,-5.7881,-5.7881,-5.7881,-5.7881,-5.7881,-5.7881,-5.7881,-5.7881,-5.7881,-5.7881,-5.7588,-5.7289,-5.7289,-5.6987,-5.6697,-5.668,-5.6713,-5.7177,-5.8651,-5.8916,-5.9429,-6.0887,-6.0473,-6.0009,-6.0026,-6.0009,-5.9728,-5.9015,-5.8916,-5.8899,-5.8899,-5.8237,-5.8452,-5.991,-6.0026,-6.0357,-6.1086,-6.1102,-6.1102,-6.1102,-6.1102,-6.1102,-6.1102,-6.1102,-6.1102,-6.1102,-6.1102,-6.1102,-4.7921,0.0,0.0,0.0,0.0,0.0,0.0,0.0,0.0,0.0,0.0,0.0,0.0,0.0,0.0,0.0,0.0,0.0,0.0,0.0,0.0,0.0,0.0,0.0,0.0,0.0,0.0,0.0,-4.9001,-4.9323,-5.005,-5.1302,-5.2469,-5.3467,-5.3501,-5.3501,-5.3501,-5.3501,-5.3501,-5.3501,-5.3501,-5.3501,-5.3501,-5.3501,-5.3501,-5.3501,-5.3501,-5.3501,-5.3501,-5.3501,-5.3501,-5.3501,-5.3501,-5.3501,-5.3687,-5.5175,-5.5716,-5.5919,-5.7391,-5.7881,-5.7881,-5.7881,-5.7881,-5.7881,-5.7881,-5.7881,-5.7881,-5.7881,-5.7881,-5.7881,-5.7881,-5.7881,-5.7881,-5.7881,-5.7735,-5.7514,-5.7364,-5.7063,-5.6834,-5.6757,-5.7111,-5.779,-5.8734,-5.9347,-6.0026,-6.097,-6.0473,-6.0191,-6.0738,-6.034,-5.9926,-5.9728,-5.9214,-5.8899,-5.8899,-5.8701,-5.8999,-5.9943,-6.0506,-6.0887,-6.1102,-6.1102,-6.1102,-6.1102,-6.1102,-6.1102,-6.1102,-6.1102,-6.1102,-6.1102,-6.1102,-6.1102,0.0,0.0,0.0,0.0,0.0,0.0,-4.6936,-4.6424,0.0,0.0,0.0,0.0,0.0,0.0,0.0,0.0,0.0,0.0,0.0,0.0,0.0,0.0,0.0,0.0,0.0,-4.9001,-4.9001,-4.9001,-4.9001,-4.9323,-5.005,-5.1217,-5.2198,-5.2976,-5.3331,-5.3501,-5.3501,-5.3501,-5.3501,-5.3501,-5.3501,-5.3501,-5.3501,-5.3501,-5.3501,-5.3501,-5.3501,-5.3501,-5.3501,-5.3501,-5.3501,-5.3501,-5.3501,-5.3501,-5.3653,-5.482,-5.5446,-5.5886,-5.7036,-5.7628,-5.7881,-5.7881,-5.7881,-5.7881,-5.7881,-5.7881,-5.7881,-5.7881,-5.7881,-5.7881,-5.7881,-5.7881,-5.7881,-5.7881,-5.7735,-5.7514,-5.7364,-5.7139,-5.6911,-5.6757,-5.7293,-5.8022,-5.8767,-5.9512,-6.0258,-6.1003,-6.0473,-6.0158,-6.0589,-6.0274,-5.9761,-5.9148,-5.8966,-5.8899,-5.8899,-5.8899,-5.9347,-6.039,-6.087,-6.1102,-6.1102,-6.1102,-6.1102,-6.1102,-6.1102,-6.1102,-6.1102,-6.1102,-6.1102,-6.1102,-6.1102,-6.1102,0.0,0.0,0.0,0.0,0.0,0.0,-4.6918,-4.6436,-4.5918,0.0,0.0,0.0,0.0,0.0,0.0,0.0,0.0,0.0,0.0,0.0,0.0,0.0,0.0,0.0,-4.9001,-4.9001,-4.9001,-4.9001,-4.9001,-4.9323,-5.005,-5.0811,-5.1555,-5.2283,-5.3078,-5.3501,-5.3501,-5.3501,-5.3501,-5.3501,-5.3501,-5.3501,-5.3501,-5.3501,-5.3501,-5.3501,-5.3501,-5.3501,-5.3501,-5.3501,-5.3501,-5.3501,-5.3501,-5.3501,-5.3602,-5.4329,-5.5074,-5.5818,-5.6545,-5.7273,-5.7881,-5.7881,-5.7881,-5.7881,-5.7881,-5.7881,-5.7881,-5.7881,-5.7881,-5.7881,-5.7881,-5.7881,-5.7881,-5.7881,-5.7735,-5.7588,-5.7364,-5.7214,-5.6987,-5.6757,-5.7359,-5.8121,-5.8784,-5.9579,-6.034,-6.1003,-6.0473,-6.0026,-6.0109,-6.0059,-5.9463,-5.8055,-5.8502,-5.8899,-5.8899,-5.8899,-5.9529,-6.102,-6.1102,-6.1102,-6.1102,-6.1102,-6.1102,-6.1102,-6.1102,-6.1102,-6.1102,-6.1102,-6.1102,-6.1102,-6.1102,-6.1102,0.0,0.0,0.0,0.0,0.0,0.0,-4.7548,-4.736,-4.6972,0.0,0.0,0.0,0.0,0.0,0.0,0.0,0.0,0.0,0.0,0.0,0.0,0.0,0.0,0.0,-4.9001,-4.9001,-4.9001,-4.9001,-4.9001,-4.9323,-5.005,-5.0811,-5.1555,-5.2283,-5.3078,-5.3501,-5.3501,-5.3501,-5.3501,-5.3501,-5.3501,-5.3501,-5.3501,-5.3501,-5.3501,-5.3501,-5.3501,-5.3501,-5.3501,-5.3501,-5.3501,-5.3501,-5.3501,-5.3501,-5.3602,-5.4329,-5.5074,-5.5818,-5.6545,-5.7273,-5.7881,-5.7881,-5.7881,-5.7881,-5.7881,-5.7881,-5.7881,-5.7881,-5.7881,-5.7881,-5.7881,-5.7881,-5.7881,-5.7881,-5.7881,-5.7735,-5.7364,-5.7364,-5.7364,-5.6987,-5.793,-5.8814,-5.9106,-6.0091,-6.0937,-6.1086,-6.0473,-6.0225,-6.0821,-6.0374,-5.9661,-5.8784,-5.8817,-5.8899,-5.8899,-5.8899,-5.9529,-6.102,-6.1102,-6.1102,-6.1102,-6.1102,-6.1102,-6.1102,-6.1102,-6.1102,-6.1102,-6.1102,-6.1102,-6.1102,-6.1102,-6.1102,0.0,0.0,0.0,-4.8306,0.0,0.0,0.0,-4.7488,-4.7255,-4.6353,-4.6484,0.0,0.0,0.0,0.0,0.0,0.0,0.0,0.0,0.0,0.0,0.0,0.0,0.0,-4.8968,-4.9001,-4.9001,-4.9001,-4.9001,-4.9171,-4.9526,-5.0253,-5.0997,-5.1742,-5.2503,-5.3095,-5.3501,-5.3501,-5.3501,-5.3501,-5.3501,-5.3501,-5.3501,-5.3501,-5.3501,-5.3501,-5.3501,-5.3501,-5.3501,-5.3501,-5.3501,-5.3501,-5.3501,-5.3501,-5.3551,-5.3923,-5.4752,-5.5767,-5.6139,-5.6985,-5.7881,-5.7881,-5.7881,-5.7881,-5.7881,-5.7881,-5.7881,-5.7881,-5.7881,-5.7881,-5.7881,-5.7881,-5.7881,-5.7881,-5.7881,-5.7808,-5.7514,-5.7514,-5.7631,-5.7851,-5.8591,-5.9202,-5.9202,-6.0353,-6.1252,-6.1102,-6.0804,-6.0688,-6.1053,-6.0788,-6.0274,-5.9529,-5.9446,-5.9446,-5.9446,-5.9446,-5.9926,-6.1036,-6.1102,-6.1102,-6.1102,-6.1102,-6.1102,-6.1102,-6.1102,-6.1102,-6.1102,-6.1102,-6.1102,-6.1102,-6.1102,-6.1102,0.0,0.0,0.0,0.0,0.0,-4.7988,0.0,0.0,0.0,-4.6756,0.0,0.0,0.0,0.0,0.0,0.0,0.0,0.0,0.0,0.0,0.0,0.0,0.0,0.0,0.0,-4.8917,-4.9001,-4.9001,-4.9001,-4.9001,-4.9001,-4.9695,-5.0439,-5.12,-5.1928,-5.2689,-5.3501,-5.3501,-5.3501,-5.3501,-5.3501,-5.3501,-5.3501,-5.3501,-5.3501,-5.3501,-5.3501,-5.3501,-5.3501,-5.3501,-5.3501,-5.3501,-5.3501,-5.3501,-5.3501,-5.3501,-5.4448,-5.5716,-5.5716,-5.6681,-5.7881,-5.7881,-5.7881,-5.7881,-5.7881,-5.7881,-5.7881,-5.7881,-5.7881,-5.7881,-5.7881,-5.7881,-5.7881,-5.7881,-5.7881,-5.7808,-5.7662,-5.7662,-5.7881,-5.8564,-5.9245,-5.9644,-5.9543,-6.0598,-6.14,-6.1186,-6.1186,-6.1186,-6.1102,-6.1102,-6.0821,-6.0075,-6.0009,-5.9943,-5.9794,-5.9926,-6.0258,-6.0854,-6.1036,-6.1102,-6.1102,-6.1102,-6.1102,-6.1102,-6.1102,-6.1102,-6.1102,-6.1102,-6.1102,-6.1102,-6.1102,-6.1102,0.0,0.0,0.0,0.0,-4.7774,0.0,0.0,0.0,-4.8075,-4.7572,0.0,0.0,0.0,0.0,0.0,0.0,0.0,0.0,0.0,0.0,0.0,0.0,0.0,0.0,0.0,-4.8629,-4.9001,-4.9001,-4.9001,-4.9001,-4.9001,-4.9695,-5.0439,-5.12,-5.1928,-5.2689,-5.3501,-5.3501,-5.3501,-5.3501,-5.3501,-5.3501,-5.3501,-5.3501,-5.3501,-5.3501,-5.3501,-5.3501,-5.3501,-5.3501,-5.3501,-5.3501,-5.3501,-5.3501,-5.3501,-5.3501,-5.4448,-5.5716,-5.5716,-5.6681,-5.7881,-5.7881,-5.7881,-5.7881,-5.7881,-5.7881,-5.7881,-5.7881,-5.7881,-5.7881,-5.7881,-5.7881,-5.7881,-5.7881,-5.7881,-5.7808,-5.7662,-5.7735,-5.8028,-5.8564,-5.9456,-6.0165,-6.0606,-6.1237,-6.1628,-6.14,-6.14,-6.1318,-6.1102,-6.1102,-6.0821,-6.0075,-6.0009,-5.9744,-5.9082,-5.9628,-6.0042,-6.0125,-6.0755,-6.1102,-6.1102,-6.1102,-6.1102,-6.1102,-6.1102,-6.1102,-6.1102,-6.1102,-6.1102,-6.1102,-6.1102,-6.1102,0.0,0.0,0.0,0.0,0.0,0.0,-4.8137,0.0,-4.9001,0.0,0.0,0.0,0.0,0.0,0.0,0.0,-4.8049,0.0,0.0,0.0,0.0,0.0,0.0,0.0,0.0,0.0,0.0,0.0,-4.9001,-4.9001,-4.9001,-4.9289,-4.9999,-5.1183,-5.1505,-5.2266,-5.3501,-5.3501,-5.3501,-5.3501,-5.3501,-5.3501,-5.3501,-5.3501,-5.3501,-5.3501,-5.3501,-5.3501,-5.3501,-5.3501,-5.3501,-5.3501,-5.3501,-5.3501,-5.3501,-5.3501,-5.4448,-5.5716,-5.5716,-5.6681,-5.7881,-5.7881,-5.7881,-5.7881,-5.7881,-5.7881,-5.7881,-5.7881,-5.7881,-5.7881,-5.7881,-5.7881,-5.7881,-5.7881,-5.7881,-5.7881,-5.7808,-5.7808,-5.8237,-5.9329,-5.9819,-6.0486,-6.1609,-6.1828,-6.1773,-6.1628,-6.1465,-6.1383,-6.14,-6.1334,-6.1201,-6.0984,-6.0852,-6.0471,-5.9821,-6.029,-6.0456,-6.0026,-6.0705,-6.1102,-6.1102,-6.1102,-6.1102,-6.1102,-6.1102,-6.1102,-6.1102,-6.1102,-6.1102,-6.1102,-6.1102,-6.1252,-4.6613,0.0,0.0,0.0,0.0,0.0,0.0,0.0,0.0,0.0,0.0,0.0,0.0,0.0,0.0,-4.9389,0.0,-4.7922,0.0,0.0,0.0,0.0,0.0,0.0,0.0,0.0,0.0,-4.9001,-4.9001,-4.9001,-4.9001,-4.9001,-4.9593,-5.0862,-5.1099,-5.1843,-5.3162,-5.3399,-5.3501,-5.3501,-5.3501,-5.3501,-5.3501,-5.3501,-5.3501,-5.3501,-5.3501,-5.3501,-5.3501,-5.3501,-5.3501,-5.3501,-5.3501,-5.3501,-5.3501,-5.3501,-5.4448,-5.5716,-5.5716,-5.6681,-5.7881,-5.7881,-5.7881,-5.7881,-5.7881,-5.7881,-5.7881,-5.7881,-5.7881,-5.7881,-5.7881,-5.7881,-5.7881,-5.7881,-5.7881,-5.7881,-5.7881,-5.7881,-5.8338,-5.981,-6.0097,-6.0588,-6.2127,-6.2268,-6.2014,-6.1709,-6.1628,-6.1547,-6.1628,-6.1547,-6.1547,-6.1709,-6.1547,-6.1098,-6.0068,-6.0521,-6.0655,-6.0042,-6.0705,-6.1102,-6.1102,-6.1102,-6.1102,-6.1102,-6.1102,-6.1102,-6.1102,-6.1102,-6.1102,-6.1102,-6.1102,-6.14,0.0,0.0,0.0,-4.7162,0.0,0.0,0.0,0.0,-4.8802,0.0,0.0,0.0,0.0,0.0,-5.0845,-5.1756,-5.0424,0.0,0.0,0.0,0.0,0.0,0.0,0.0,0.0,0.0,0.0,-4.9001,-4.9001,-4.9001,-4.9001,-4.9001,-4.9357,-5.0101,-5.0828,-5.1589,-5.2334,-5.3112,-5.3501,-5.3501,-5.3501,-5.3501,-5.3501,-5.3501,-5.3501,-5.3501,-5.3501,-5.3501,-5.3501,-5.3501,-5.3501,-5.3501,-5.3501,-5.3501,-5.3501,-5.3501,-5.4448,-5.5716,-5.5716,-5.6681,-5.7881,-5.7881,-5.7881,-5.7881,-5.7881,-5.7881,-5.7881,-5.7881,-5.7881,-5.7881,-5.7881,-5.7881,-5.7881,-5.7881,-5.7881,-5.7881,-5.7881,-5.7881,-5.8338,-5.981,-6.0097,-6.0588,-6.2127,-6.2381,-6.2223,-6.179,-6.1854,-6.1837,-6.1465,-6.1547,-6.1709,-6.1709,-6.1709,-6.1043,-5.9368,-5.9901,-6.0237,-6.0009,-6.0705,-6.1102,-6.1102,-6.1102,-6.1102,-6.1102,-6.1102,-6.1102,-6.1102,-6.1102,-6.1102,-6.1102,-6.1102,-6.14,0.0,0.0,-4.5319,-4.6664,0.0,0.0,0.0,0.0,0.0,0.0,0.0,0.0,0.0,0.0,-5.1316,-5.1101,-5.0026,-4.93,0.0,0.0,0.0,0.0,0.0,0.0,0.0,0.0,0.0,-4.9563,-4.9615,-4.9453,-4.9001,-4.9001,-4.934,-5.0067,-5.0828,-5.1555,-5.23,-5.3112,-5.3501,-5.3501,-5.3501,-5.3501,-5.3501,-5.3501,-5.3501,-5.3501,-5.3501,-5.3501,-5.3501,-5.3501,-5.3501,-5.3501,-5.3501,-5.3501,-5.3501,-5.3501,-5.4448,-5.5852,-5.6816,-5.7476,-5.7881,-5.7881,-5.7881,-5.7881,-5.7881,-5.7881,-5.7881,-5.7881,-5.7881,-5.7881,-5.7881,-5.7881,-5.7881,-5.7881,-5.7881,-5.7881,-5.7881,-5.7881,-5.8338,-5.981,-6.0097,-6.0588,-6.2127,-6.2381,-6.2381,-6.2223,-6.2093,-6.1997,-6.2047,-6.1951,-6.1934,-6.2127,-6.2014,-6.1249,-5.9695,-5.9577,-5.9705,-5.9976,-6.0705,-6.1102,-6.1102,-6.1102,-6.1102,-6.1102,-6.1102,-6.1102,-6.1102,-6.1102,-6.1102,-6.1102,-6.1482,-6.1997,-4.6178,-4.6003,0.0,-4.6941,-4.6941,0.0,-4.8453,0.0,0.0,0.0,0.0,0.0,0.0,0.0,-5.1617,-5.078,-5.0253,-4.9762,0.0,-4.8309,0.0,0.0,0.0,0.0,0.0,0.0,-4.9676,-5.0129,-5.0181,-4.993,0.0,0.0,-4.9641,-4.9695,-5.0912,-5.1677,-5.1911,-5.2976,-5.3501,-5.3501,-5.3501,-5.3501,-5.3501,-5.3501,-5.3501,-5.3501,-5.3501,-5.3501,-5.3501,-5.3501,-5.3501,-5.3501,-5.3501,-5.3501,-5.3501,-5.3501,-5.4448,-5.5886,-5.7087,-5.7679,-5.7881,-5.7881,-5.7881,-5.7881,-5.7881,-5.7881,-5.7932,-5.822,-5.8101,-5.7949,-5.822,-5.8101,-5.7881,-5.7881,-5.7881,-5.7881,-5.7881,-5.7881,-5.8338,-5.981,-6.0097,-6.0588,-6.2127,-6.2381,-6.2381,-6.2285,-6.2189,-6.2189,-6.2285,-6.2189,-6.2189,-6.2381,-6.2285,-6.1503,-5.991,-5.9187,-5.9056,-5.9643,-6.0307,-6.0837,-6.1102,-6.1102,-6.0986,-6.0721,-6.097,-6.0986,-6.0721,-6.0986,-6.1169,-6.14,-6.1854,-6.2453]}]]